[[{"header":{"parameterUnit":"m.s-1","parameterCategory":1,"la1":30.6,"la2":28.766,"lo1":-90.7593,"lo2":-88.6598,"dy":0.0162,"dx":0.0183,"nx":116,"ny":114,"refTime":"2023-07-25T06:00:00:Z","depth":0,"parameterNumber":2,"parameterNumberName":"U-component_of_WINDS"},"data":[0.0,0.0,0.0,0.0,0.0,0.0,0.0,0.0,0.0,0.0,0.0,0.0,0.0,0.0,0.0,0.0,0.0,0.0,0.0,0.0,0.0,0.0,0.0,0.0,0.0,0.0,0.0,0.0,0.0,0.0,0.0,0.0,0.0,0.0,0.0,0.0,0.0,0.0,0.0,0.0,0.0,0.0,0.0,0.0,0.0,0.0,0.0,0.0,0.0,0.0,0.0,0.0,0.0,0.0,0.0,0.0,0.0,0.0,0.0,0.0,0.0,0.0,0.0,0.0,0.0,0.0,0.0,0.0,0.0,0.0,0.0,0.0,0.0,0.0,0.0,0.0,0.0,0.0,0.0,0.0,0.0,0.0,0.0,0.0,0.0,0.0,0.0,0.0,0.0,0.0,0.0,0.0,0.0,0.0,0.0,0.0,0.0,0.0,0.0,0.0,0.0,0.0,0.0,0.0,0.0,0.0,0.0,0.0,0.0,0.0,0.0,0.0,0.0,0.0,0.0,0.0,0.0,0.0,0.0,0.0,0.0,0.0,0.0,0.0,0.0,0.0,0.0,0.0,0.0,0.0,0.0,0.0,0.0,0.0,0.0,0.0,0.0,0.0,0.0,0.0,0.0,0.0,0.0,0.0,0.0,0.0,0.0,0.0,0.0,0.0,0.0,0.0,0.0,0.0,0.0,0.0,0.0,0.0,0.0,0.0,0.0,0.0,0.0,0.0,0.0,0.0,0.0,0.0,0.0,0.0,0.0,0.0,0.0,0.0,0.0,0.0,0.0,0.0,0.0,0.0,0.0,0.0,0.0,0.0,0.0,0.0,0.0,0.0,0.0,0.0,0.0,0.0,0.0,0.0,0.0,0.0,0.0,0.0,0.0,0.0,0.0,0.0,0.0,0.0,0.0,0.0,0.0,0.0,0.0,0.0,0.0,0.0,0.0,0.0,0.0,0.0,0.0,0.0,0.0,0.0,0.0,0.0,0.0,0.0,0.0,0.0,0.0,0.0,0.0,0.0,0.0,0.0,0.0,0.0,0.0,0.0,0.0,0.0,0.0,0.0,0.0,0.0,0.0,0.0,0.0,0.0,0.0,0.0,0.0,0.0,0.0,0.0,0.0,0.0,0.0,0.0,0.0,0.0,0.0,0.0,0.0,0.0,0.0,0.0,0.0,0.0,0.0,0.0,0.0,0.0,0.0,0.0,0.0,0.0,0.0,0.0,0.0,0.0,0.0,0.0,0.0,0.0,0.0,0.0,0.0,0.0,0.0,0.0,0.0,0.0,0.0,0.0,0.0,0.0,0.0,0.0,0.0,0.0,0.0,0.0,0.0,0.0,0.0,0.0,0.0,0.0,0.0,0.0,0.0,0.0,0.0,0.0,0.0,0.0,0.0,0.0,0.0,0.0,0.0,0.0,0.0,0.0,0.0,0.0,0.0,0.0,0.0,0.0,0.0,0.0,0.0,0.0,0.0,0.0,0.0,0.0,0.0,0.0,0.0,0.0,0.0,0.0,0.0,0.0,0.0,0.0,0.0,0.0,0.0,0.0,0.0,0.0,0.0,0.0,0.0,0.0,0.0,0.0,0.0,0.0,0.0,0.0,0.0,0.0,0.0,0.0,0.0,0.0,0.0,0.0,0.0,0.0,0.0,0.0,0.0,0.0,0.0,0.0,0.0,0.0,0.0,0.0,0.0,0.0,0.0,0.0,0.0,0.0,0.0,0.0,0.0,0.0,0.0,0.0,0.0,0.0,0.0,0.0,0.0,0.0,0.0,0.0,0.0,0.0,0.0,0.0,0.0,0.0,0.0,0.0,0.0,0.0,0.0,0.0,0.0,0.0,0.0,0.0,0.0,0.0,0.0,0.0,0.0,0.0,0.0,0.0,0.0,0.0,0.0,0.0,0.0,0.0,0.0,0.0,0.0,0.0,0.0,0.0,0.0,0.0,0.0,0.0,0.0,0.0,0.0,0.0,0.0,0.0,0.0,0.0,0.0,0.0,0.0,0.0,0.0,0.0,0.0,0.0,0.0,0.0,0.0,0.0,0.0,0.0,0.0,0.0,0.0,0.0,0.0,0.0,0.0,0.0,0.0,0.0,0.0,0.0,0.0,0.0,0.0,0.0,0.0,0.0,0.0,0.0,0.0,0.0,0.0,0.0,0.0,0.0,0.0,0.0,0.0,0.0,0.0,0.0,0.0,0.0,0.0,0.0,0.0,0.0,0.0,0.0,0.0,0.0,0.0,0.0,0.0,0.0,0.0,0.0,0.0,0.0,0.0,0.0,0.0,0.0,0.0,0.0,0.0,0.0,0.0,0.0,0.0,0.0,0.0,0.0,0.0,0.0,0.0,0.0,0.0,0.0,0.0,0.0,0.0,0.0,0.0,0.0,0.0,0.0,0.0,0.0,0.0,0.0,0.0,0.0,0.0,0.0,0.0,0.0,0.0,0.0,0.0,0.0,0.0,0.0,0.0,0.0,0.0,0.0,0.0,0.0,0.0,0.0,0.0,0.0,0.0,0.0,0.0,0.0,0.0,0.0,0.0,0.0,0.0,0.0,0.0,0.0,0.0,0.0,0.0,0.0,0.0,0.0,0.0,0.0,0.0,0.0,0.0,0.0,0.0,0.0,0.0,0.0,0.0,0.0,0.0,0.0,0.0,0.0,0.0,0.0,0.0,0.0,0.0,0.0,0.0,0.0,0.0,0.0,0.0,0.0,0.0,0.0,0.0,0.0,0.0,0.0,0.0,0.0,0.0,0.0,0.0,0.0,0.0,0.0,0.0,0.0,0.0,0.0,0.0,0.0,0.0,0.0,0.0,0.0,0.0,0.0,0.0,0.0,0.0,0.0,0.0,0.0,0.0,0.0,0.0,0.0,0.0,0.0,0.0,0.0,0.0,0.0,0.0,0.0,0.0,0.0,0.0,0.0,0.0,0.0,0.0,0.0,0.0,0.0,0.0,0.0,0.0,0.0,0.0,0.0,0.0,0.0,0.0,0.0,0.0,0.0,0.0,0.0,0.0,0.0,0.0,0.0,0.0,0.0,0.0,0.0,0.0,0.0,0.0,0.0,0.0,0.0,0.0,0.0,0.0,0.0,0.0,0.0,0.0,0.0,0.0,0.0,0.0,0.0,0.0,0.0,0.0,0.0,0.0,0.0,0.0,0.0,0.0,0.0,0.0,0.0,0.0,0.0,0.0,0.0,0.0,0.0,0.0,0.0,0.0,0.0,0.0,0.0,0.0,0.0,0.0,0.0,0.0,0.0,0.0,0.0,0.0,0.0,0.0,0.0,0.0,0.0,0.0,0.0,0.0,0.0,0.0,0.0,0.0,0.0,0.0,0.0,0.0,0.0,0.0,0.0,0.0,0.0,0.0,0.0,0.0,0.0,0.0,0.0,0.0,0.0,0.0,0.0,0.0,0.0,0.0,0.0,0.0,0.0,0.0,0.0,0.0,0.0,0.0,0.0,0.0,0.0,0.0,0.0,0.0,0.0,0.0,0.0,0.0,0.0,0.0,0.0,0.0,0.0,0.0,0.0,0.0,0.0,0.0,0.0,0.0,0.0,0.0,0.0,0.0,0.0,0.0,0.0,0.0,0.0,0.0,0.0,0.0,0.0,0.0,0.0,0.0,0.0,0.0,0.0,0.0,0.0,0.0,0.0,0.0,0.0,0.0,0.0,0.0,0.0,0.0,0.0,0.0,0.0,0.0,0.0,0.0,0.0,0.0,0.0,0.0,0.0,0.0,0.0,0.0,0.0,0.0,0.0,0.0,0.0,0.0,0.0,0.0,0.0,0.0,0.0,0.0,0.0,0.0,0.0,0.0,0.0,0.0,0.0,0.0,0.0,0.0,0.0,0.0,0.0,0.0,0.0,0.0,0.0,0.0,0.0,0.0,0.0,0.0,0.0,0.0,0.0,0.0,0.0,0.0,0.0,0.0,0.0,0.0,0.0,0.0,0.0,0.0,0.0,0.0,0.0,0.0,0.0,0.0,0.0,0.0,0.0,0.0,0.0,0.0,0.0,0.0,0.0,0.0,0.0,0.0,0.0,0.0,0.0,0.0,0.0,0.0,0.0,0.0,0.0,0.0,0.0,0.0,0.0,0.0,0.0,0.0,0.0,0.0,0.0,0.0,0.0,0.0,0.0,0.0,0.0,0.0,0.0,0.0,0.0,0.0,0.0,0.0,0.0,0.0,0.0,0.0,0.0,0.0,0.0,0.0,0.0,0.0,0.0,0.0,0.0,0.0,0.0,0.0,0.0,0.0,0.0,0.0,0.0,0.0,0.0,0.0,0.0,0.0,0.0,0.0,0.0,0.0,0.0,0.0,0.0,0.0,0.0,0.0,0.0,0.0,0.0,0.0,0.0,0.0,0.0,0.0,0.0,0.0,0.0,0.0,0.0,0.0,0.0,0.0,0.0,0.0,0.0,0.0,0.0,0.0,0.0,0.0,0.0,0.0,0.0,0.0,0.0,0.0,0.0,0.0,0.0,0.0,0.0,0.0,0.0,0.0,0.0,0.0,0.0,0.0,0.0,0.0,0.0,0.0,0.0,0.0,0.0,0.0,0.0,0.0,0.0,0.0,0.0,0.0,0.0,0.0,0.0,0.0,0.0,0.0,0.0,0.0,0.0,0.0,0.0,0.0,0.0,0.0,0.0,0.0,0.0,0.0,0.0,0.0,0.0,0.0,0.0,0.0,0.0,0.0,0.0,0.0,0.0,0.0,0.0,0.0,0.0,0.0,0.0,0.0,0.0,0.0,0.0,0.0,0.0,0.0,0.0,0.0,0.0,0.0,0.0,0.0,0.0,0.0,0.0,0.0,0.0,0.0,0.0,0.0,0.0,0.0,0.0,0.0,0.0,0.0,0.0,0.0,0.0,0.0,0.0,0.0,0.0,0.0,0.0,0.0,0.0,0.0,0.0,0.0,0.0,0.0,0.0,0.0,0.0,0.0,0.0,0.0,0.0,0.0,0.0,0.0,0.0,0.0,0.0,0.0,0.0,0.0,0.0,0.0,0.0,0.0,0.0,0.0,0.0,0.0,0.0,0.0,0.0,0.0,0.0,0.0,0.0,0.0,0.0,0.0,0.0,0.0,0.0,0.0,0.0,0.0,0.0,0.0,0.0,0.0,0.0,0.0,0.0,0.0,0.0,0.0,0.0,0.0,0.0,0.0,0.0,0.0,0.0,0.0,0.0,0.0,0.0,0.0,0.0,0.0,0.0,0.0,0.0,0.0,0.0,0.0,0.0,0.0,0.0,0.0,0.0,0.0,0.0,0.0,0.0,0.0,0.0,0.0,0.0,0.0,0.0,0.0,0.0,0.0,0.0,0.0,0.0,0.0,0.0,0.0,0.0,0.0,0.0,0.0,0.0,0.0,0.0,0.0,0.0,0.0,0.0,0.0,0.0,0.0,0.0,0.0,0.0,0.0,0.0,0.0,0.0,0.0,0.0,0.0,0.0,0.0,0.0,0.0,0.0,0.0,0.0,0.0,0.0,0.0,0.0,0.0,0.0,0.0,0.0,0.0,0.0,0.0,0.0,0.0,0.0,0.0,0.0,0.0,0.0,0.0,0.0,0.0,0.0,0.0,0.0,0.0,0.0,0.0,0.0,0.0,0.0,0.0,0.0,0.0,0.0,0.0,0.0,0.0,0.0,0.0,0.0,0.0,0.0,0.0,0.0,0.0,0.0,0.0,0.0,0.0,0.0,0.0,0.0,0.0,0.0,0.0,0.0,0.0,0.0,0.0,0.0,0.0,0.0,0.0,0.0,0.0,0.0,0.0,0.0,0.0,0.0,0.0,0.0,0.0,0.0,0.0,0.0,0.0,0.0,0.0,0.0,0.0,0.0,0.0,0.0,0.0,0.0,0.0,0.0,0.0,0.0,0.0,0.0,0.0,0.0,0.0,0.0,0.0,0.0,0.0,0.0,0.0,0.0,0.0,0.0,0.0,0.0,0.0,0.0,0.0,0.0,0.0,0.0,0.0,0.0,0.0,0.0,0.0,0.0,0.0,0.0,0.0,0.0,0.0,0.0,0.0,0.0,0.0,0.0,0.0,0.0,0.0,0.0,0.0,0.0,0.0,0.0,0.0,0.0,-1.1494,-1.0906,0.0,0.0,0.0,0.0,0.0,0.0,0.0,0.0,0.0,0.0,0.0,0.0,0.0,0.0,0.0,0.0,0.0,0.0,0.0,0.0,0.0,0.0,0.0,0.0,0.0,0.0,0.0,0.0,0.0,0.0,0.0,0.0,0.0,0.0,0.0,0.0,0.0,0.0,0.0,0.0,0.0,0.0,0.0,0.0,0.0,0.0,0.0,0.0,0.0,0.0,0.0,0.0,0.0,0.0,0.0,0.0,0.0,0.0,0.0,0.0,0.0,0.0,0.0,0.0,0.0,0.0,0.0,0.0,0.0,0.0,0.0,0.0,0.0,0.0,0.0,0.0,0.0,0.0,0.0,0.0,0.0,0.0,0.0,0.0,0.0,0.0,0.0,0.0,0.0,0.0,0.0,0.0,0.0,0.0,0.0,0.0,0.0,0.0,0.0,0.0,0.0,0.0,0.0,0.0,0.0,0.0,0.0,0.0,0.0,0.0,0.0,0.0,0.0,0.0,-1.3147,-1.2517,0.0,0.0,0.0,0.0,0.0,0.0,0.0,0.0,0.0,0.0,0.0,0.0,0.0,0.0,0.0,0.0,0.0,0.0,0.0,0.0,0.0,0.0,0.0,0.0,0.0,0.0,0.0,0.0,0.0,0.0,0.0,0.0,0.0,0.0,0.0,0.0,0.0,0.0,0.0,0.0,0.0,0.0,0.0,0.0,0.0,0.0,0.0,0.0,0.0,0.0,0.0,0.0,0.0,0.0,0.0,0.0,0.0,0.0,0.0,0.0,0.0,0.0,0.0,0.0,0.0,0.0,0.0,0.0,0.0,0.0,0.0,0.0,0.0,0.0,0.0,0.0,0.0,0.0,0.0,0.0,0.0,0.0,0.0,0.0,0.0,0.0,0.0,0.0,0.0,0.0,0.0,0.0,0.0,0.0,0.0,0.0,0.0,0.0,0.0,0.0,0.0,0.0,0.0,0.0,0.0,0.0,0.0,0.0,-1.3521,-1.4039,-1.4732,-1.4824,-1.5231,-1.5872,-1.4595,-1.4099,-1.4063,-1.3384,0.0,0.0,0.0,0.0,0.0,0.0,0.0,0.0,0.0,0.0,0.0,0.0,0.0,0.0,0.0,0.0,0.0,0.0,0.0,0.0,0.0,0.0,0.0,0.0,0.0,0.0,0.0,0.0,0.0,0.0,0.0,0.0,0.0,0.0,0.0,0.0,0.0,0.0,-1.361,-1.4093,-1.428,-1.4291,-1.4326,0.0,0.0,0.0,0.0,0.0,0.0,0.0,0.0,0.0,0.0,0.0,0.0,0.0,0.0,0.0,0.0,0.0,0.0,0.0,0.0,0.0,0.0,0.0,0.0,0.0,0.0,0.0,0.0,0.0,0.0,0.0,0.0,0.0,0.0,0.0,0.0,0.0,0.0,0.0,0.0,0.0,0.0,0.0,-1.1475,-1.1236,0.0,0.0,0.0,0.0,0.0,0.0,0.0,0.0,0.0,0.0,0.0,0.0,0.0,-1.4699,-1.4756,-1.5196,-1.5231,-1.4903,-1.5276,-1.5511,-1.5644,-1.6064,-1.6293,-1.6423,-1.6599,0.0,-1.4923,-1.4839,0.0,0.0,0.0,0.0,0.0,0.0,0.0,0.0,0.0,0.0,0.0,0.0,0.0,0.0,0.0,0.0,0.0,0.0,0.0,0.0,0.0,0.0,0.0,0.0,0.0,0.0,0.0,0.0,0.0,0.0,0.0,0.0,0.0,0.0,0.0,0.0,-1.4046,-1.4176,-1.4455,-1.4697,-1.4789,-1.4789,-1.5085,-1.5085,-1.4949,-1.5085,0.0,0.0,0.0,0.0,0.0,0.0,0.0,0.0,0.0,0.0,0.0,0.0,0.0,0.0,0.0,0.0,0.0,0.0,0.0,0.0,0.0,0.0,0.0,0.0,0.0,0.0,0.0,0.0,0.0,0.0,0.0,0.0,0.0,0.0,0.0,0.0,0.0,0.0,0.0,-1.2627,-1.2686,-1.2878,-1.2828,-1.2701,0.0,0.0,0.0,0.0,0.0,0.0,0.0,0.0,0.0,-1.5718,-1.5892,-1.616,-1.6514,-1.6666,-1.6666,-1.6514,-1.6666,-1.691,-1.7152,-1.7335,-1.7619,-1.7843,-1.8065,-1.7622,-1.6739,-1.6126,-1.5768,-1.5546,0.0,0.0,0.0,0.0,-1.5018,-1.5241,0.0,0.0,0.0,0.0,0.0,0.0,0.0,0.0,0.0,0.0,0.0,0.0,0.0,0.0,0.0,-1.281,0.0,0.0,0.0,0.0,0.0,0.0,0.0,0.0,0.0,0.0,0.0,0.0,-1.4727,-1.4957,-1.5292,-1.5568,-1.5718,-1.5718,-1.6209,-1.6053,-1.549,-1.5635,-1.5724,0.0,0.0,0.0,0.0,0.0,0.0,0.0,0.0,0.0,0.0,0.0,0.0,0.0,0.0,0.0,0.0,0.0,0.0,0.0,0.0,0.0,0.0,0.0,0.0,0.0,0.0,0.0,0.0,0.0,0.0,0.0,0.0,0.0,0.0,0.0,0.0,0.0,0.0,-1.3647,-1.3878,-1.4179,-1.4316,-1.4269,0.0,0.0,0.0,0.0,0.0,0.0,-1.5519,-1.5693,-1.6182,-1.7078,-1.7091,-1.7321,-1.7832,-1.7844,-1.7939,-1.8069,-1.8069,-1.8316,-1.878,-1.878,-1.8963,-1.9293,-1.9088,-1.8795,-1.8339,-1.7346,-1.682,-1.6637,-1.6256,-1.6213,-1.6299,-1.6287,-1.6373,-1.6502,0.0,0.0,0.0,0.0,0.0,0.0,0.0,0.0,0.0,0.0,0.0,0.0,0.0,0.0,-1.242,-1.2886,-1.3331,-1.3589,0.0,0.0,0.0,0.0,0.0,0.0,0.0,0.0,0.0,-1.5062,-1.5556,-1.5821,-1.588,-1.6884,-1.7376,-1.7424,-1.7867,-1.7297,-1.5988,-1.61,-1.6219,-1.6225,0.0,0.0,0.0,0.0,0.0,0.0,0.0,0.0,0.0,0.0,0.0,0.0,0.0,0.0,0.0,0.0,0.0,0.0,0.0,0.0,0.0,0.0,0.0,0.0,0.0,0.0,0.0,0.0,0.0,0.0,0.0,0.0,0.0,0.0,0.0,0.0,0.0,0.0,0.0,-1.4269,-1.4971,0.0,0.0,0.0,0.0,-1.5344,-1.6133,-1.6558,-1.6453,-1.7062,-1.7627,-1.8116,-1.8116,-1.8363,-1.8806,-1.8806,-1.9093,-1.9601,-1.9601,-1.9839,-2.0302,-2.0302,-2.0288,-2.0316,-1.9642,-1.9376,-1.9265,-1.8382,-1.7665,-1.7157,-1.7092,-1.7299,-1.7707,-1.7706,-1.8001,-1.8305,0.0,0.0,0.0,0.0,0.0,0.0,0.0,0.0,0.0,0.0,0.0,0.0,0.0,-1.2204,-1.2565,-1.33,-1.3799,-1.3952,-1.3621,0.0,0.0,0.0,0.0,0.0,0.0,0.0,-1.5553,-1.6077,-1.6255,-1.6703,-1.7408,-1.776,-1.7954,-1.7954,-1.8157,-1.799,-1.7634,-1.7212,-1.6935,-1.6765,-1.6951,-1.7005,0.0,0.0,0.0,0.0,0.0,0.0,0.0,0.0,0.0,0.0,0.0,0.0,0.0,0.0,0.0,0.0,0.0,0.0,0.0,0.0,0.0,0.0,0.0,0.0,0.0,0.0,0.0,0.0,0.0,0.0,0.0,0.0,0.0,0.0,0.0,0.0,0.0,-1.5152,-1.5658,0.0,-1.5881,-1.664,-1.7159,-1.7183,-1.7785,-1.8083,-1.8037,-1.8261,-1.8648,-1.9236,-1.9249,-1.9646,-2.057,-2.0966,-2.1434,-2.1947,-2.2339,-2.2614,-2.2791,-2.2334,-2.2165,-2.2076,-2.1412,-2.092,-2.057,-1.9804,-1.8934,-1.8028,-1.8001,-1.8167,-1.8357,-1.8285,-1.8422,-1.859,0.0,0.0,0.0,0.0,0.0,0.0,0.0,0.0,0.0,0.0,0.0,-1.1271,-1.2214,-1.2307,-1.2671,-1.3538,-1.4093,-1.4186,-1.3621,0.0,0.0,0.0,0.0,0.0,0.0,-1.5745,-1.6324,-1.6871,-1.7237,-1.776,-1.848,-1.8668,-1.8744,-1.8744,-1.8744,-1.8788,-1.8849,-1.8346,-1.7837,-1.7385,-1.771,-1.7661,-1.7434,0.0,0.0,0.0,0.0,0.0,0.0,0.0,0.0,0.0,0.0,0.0,0.0,0.0,0.0,0.0,0.0,0.0,0.0,0.0,0.0,0.0,0.0,0.0,0.0,0.0,0.0,0.0,0.0,0.0,0.0,0.0,0.0,0.0,0.0,0.0,-1.613,-1.6008,-1.6694,-1.7162,-1.7081,-1.7822,-1.8329,-1.8435,-1.8908,-1.929,-1.9486,-1.9682,-2.0061,-2.0649,-2.0675,-2.1143,-2.2074,-2.2488,-2.3022,-2.378,-2.4184,-2.4433,-2.4615,-2.4149,-2.3947,-2.3918,-2.3238,-2.2606,-2.2017,-2.1398,-2.052,-1.9526,-1.8955,-1.8753,-1.8862,-1.8888,-1.8949,-1.9037,0.0,0.0,0.0,0.0,0.0,0.0,0.0,0.0,0.0,0.0,-1.0804,-1.1271,-1.2214,-1.2307,-1.2671,-1.3538,-1.4093,-1.4186,-1.3658,-1.4547,0.0,0.0,0.0,0.0,-1.6448,-1.6589,-1.6895,-1.7438,-1.8505,-1.8983,-1.907,-1.9572,-1.9798,-1.9798,-1.9798,-1.9661,-1.9425,-1.9461,-1.8986,-1.8184,-1.8157,-1.7991,-1.7828,0.0,0.0,0.0,0.0,0.0,0.0,0.0,0.0,0.0,0.0,0.0,0.0,0.0,0.0,0.0,0.0,0.0,0.0,0.0,0.0,0.0,0.0,0.0,0.0,0.0,0.0,0.0,0.0,0.0,0.0,0.0,0.0,0.0,-1.6017,-1.6777,-1.7272,-1.6827,-1.8037,-1.8753,-1.8298,-1.8699,-1.8989,-1.9015,-1.9551,-2.0126,-2.0725,-2.1237,-2.1786,-2.2389,-2.2441,-2.2697,-2.3278,-2.3264,-2.3858,-2.4956,-2.499,-2.5232,-2.5674,-2.5644,-2.563,-2.56,-2.4896,-2.4283,-2.361,-2.2996,-2.2353,-2.158,-1.983,-1.9145,-1.9182,-1.956,-1.969,-1.9743,0.0,0.0,0.0,0.0,0.0,0.0,0.0,0.0,0.0,0.0,-1.0677,-1.1271,-1.2214,-1.2307,-1.2671,-1.3538,-1.4408,-1.4697,-1.4186,0.0,0.0,0.0,0.0,0.0,-1.6536,-1.6946,-1.7613,-1.8581,-1.8882,-1.9221,-1.9597,-1.9736,-1.9798,-1.9798,-1.9798,-1.9876,-2.0002,-2.0374,-2.0279,-1.9763,-1.8903,-1.8712,-1.8918,0.0,0.0,0.0,0.0,0.0,0.0,0.0,0.0,0.0,0.0,0.0,0.0,0.0,0.0,0.0,0.0,0.0,0.0,0.0,0.0,0.0,0.0,0.0,0.0,0.0,0.0,0.0,0.0,0.0,0.0,0.0,0.0,-1.8151,-1.7085,-1.7849,-1.8435,-1.8298,-1.9045,-1.9673,-1.9979,-2.0495,-2.0963,-2.1381,-2.1564,-2.1773,-2.193,-2.2088,-2.2392,-2.2936,-2.2963,-2.3482,-2.4501,-2.4929,-2.5531,-2.6213,-2.6672,-2.6937,-2.7021,-2.6542,-2.6318,-2.6288,-2.563,-2.5241,-2.5001,-2.4358,-2.3684,-2.2906,-2.101,-2.0323,-2.0364,-1.9886,-1.969,-1.9705,0.0,0.0,0.0,0.0,0.0,0.0,0.0,0.0,0.0,0.0,-1.0994,-1.1372,-1.1934,-1.2299,-1.2806,-1.3591,-1.4528,-1.488,-1.4419,0.0,0.0,0.0,0.0,-1.6643,-1.6916,-1.7675,-1.8392,-1.8983,-1.9246,-1.9611,-2.0156,-2.0156,-2.0258,-2.0484,-2.0484,-2.0597,-2.0871,-2.1202,-2.1417,-2.1419,-2.0235,-1.9754,-1.9669,-1.9352,-1.9128,-1.8997,-1.9101,-1.8936,-1.8707,-1.8422,0.0,0.0,0.0,0.0,0.0,0.0,0.0,0.0,0.0,0.0,0.0,0.0,0.0,0.0,0.0,0.0,0.0,0.0,0.0,0.0,0.0,0.0,0.0,0.0,-1.8921,-1.9237,-1.9107,-1.9198,-1.9368,-1.9603,-2.0165,-2.0753,-2.1328,-2.1916,-2.2247,-2.2389,-2.2617,-2.2871,-2.307,-2.3083,-2.3447,-2.4267,-2.4267,-2.4766,-2.5688,-2.6067,-2.6528,-2.71,-2.7408,-2.7625,-2.761,-2.7186,-2.7006,-2.6976,-2.6602,-2.6273,-2.5989,-2.5615,-2.4896,-2.3864,0.0,0.0,0.0,0.0,-1.9929,-1.9735,0.0,0.0,0.0,0.0,0.0,0.0,0.0,0.0,0.0,0.0,0.0,-1.1475,-1.164,-1.2297,-1.2979,-1.3598,-1.4541,-1.4971,0.0,0.0,0.0,-1.638,-1.6577,-1.6953,-1.7476,-1.8493,-1.9008,-1.912,-1.9572,-2.0055,-2.061,-2.061,-2.0894,-2.1417,-2.1417,-2.1527,-2.1793,-2.1841,-2.2249,-2.2831,-2.1898,-2.1111,-2.0327,-1.9729,-1.9643,-1.9758,-1.9317,-1.9176,-1.9176,-1.9101,0.0,0.0,0.0,0.0,0.0,0.0,0.0,0.0,0.0,0.0,0.0,0.0,0.0,0.0,0.0,0.0,0.0,0.0,0.0,0.0,0.0,0.0,0.0,0.0,-1.9779,-2.0527,-2.1541,-2.0858,-2.0466,-2.093,-2.1444,-2.1983,-2.2548,-2.3071,-2.3229,-2.2802,-2.3204,-2.374,-2.4245,-2.4273,0.0,0.0,0.0,-2.6176,-2.6788,-2.6788,-2.7049,-2.7625,-2.7625,-2.7625,-2.7625,-2.7625,-2.7625,-2.7625,-2.7625,-2.7295,-2.6756,-2.6756,-2.5976,-2.4597,-2.3263,-2.2304,-2.1659,-2.1075,-2.0475,-2.0025,0.0,0.0,0.0,0.0,0.0,0.0,0.0,0.0,0.0,-1.1431,-1.1201,-1.1278,-1.1998,-1.2266,-1.269,-1.3465,-1.4496,-1.5232,0.0,0.0,-1.6076,-1.592,-1.6781,-1.7485,-1.8041,-1.8694,-1.9233,-1.966,-1.9748,-2.0055,-2.061,-2.061,-2.0894,-2.1417,-2.1417,-2.1527,-2.1841,-2.2203,-2.2558,-2.292,-2.3098,-2.2782,-2.2036,-2.0517,-2.0182,-2.0438,-1.9811,-1.9581,-1.953,-1.9213,-1.9064,-1.8936,-1.8592,0.0,0.0,0.0,0.0,0.0,0.0,0.0,0.0,0.0,0.0,0.0,0.0,0.0,0.0,0.0,0.0,0.0,0.0,0.0,0.0,-2.15,-2.2047,-2.254,-2.2748,-2.3049,-2.3128,-2.2742,-2.3261,-2.363,-2.3744,-2.4321,-2.4794,-2.512,-2.527,-2.5366,-2.5437,-2.5451,-2.5779,-2.651,-2.651,-2.6826,-2.7408,-2.7408,-2.7458,-2.7625,-2.7625,0.0,-2.7625,-2.7625,-2.7625,-2.7625,-2.7625,-2.76,-2.7545,-2.7545,-2.6859,-2.5546,-2.3541,-2.245,-2.194,-2.1819,-2.1682,-2.15,0.0,0.0,0.0,0.0,0.0,0.0,0.0,0.0,0.0,0.0,-1.149,-1.1588,-1.1817,-1.2494,-1.3103,-1.3515,-1.4484,0.0,0.0,-1.6151,-1.6151,-1.6151,-1.719,-1.7928,-1.8191,-1.8995,-1.9547,-1.9798,-2.0055,-2.0446,-2.0993,-2.1299,-2.1684,-2.2156,-2.2203,-2.2342,-2.2586,-2.2844,-2.3113,-2.329,-2.3508,-2.3236,-2.2562,-2.1361,-2.0837,-2.0617,-1.9929,-1.969,-1.969,-1.9472,-1.9398,-1.9347,-1.9161,-1.8959,-1.8879,0.0,0.0,0.0,0.0,0.0,0.0,0.0,0.0,0.0,0.0,0.0,0.0,0.0,0.0,-2.1619,0.0,0.0,-2.2226,-2.2536,-2.2893,-2.3413,-2.4361,-2.4769,-2.4753,-2.4187,-2.4395,-2.4647,-2.4941,-2.5494,-2.5834,-2.5823,-2.6068,-2.6229,-2.6229,-2.6229,-2.651,-2.7152,-2.7152,-2.7306,-2.7625,-2.7625,-2.7625,-2.7625,-2.7625,-2.7625,-2.7625,-2.7625,-2.7625,-2.7675,-2.7675,-2.791,-2.8207,-2.7869,-2.7242,-2.6313,-2.4852,-2.355,-2.2495,-2.2495,-2.2282,-2.1948,0.0,0.0,0.0,0.0,0.0,0.0,0.0,0.0,0.0,0.0,-1.1774,-1.1847,-1.1553,-1.2581,-1.3472,0.0,0.0,0.0,0.0,-1.6151,-1.6107,-1.6466,-1.7501,-1.8091,-1.8204,-1.9158,-1.9698,-1.9798,-2.0258,-2.0696,-2.1272,-2.1779,-2.231,-2.2783,-2.2992,-2.3201,-2.3363,-2.3466,-2.3538,-2.3595,-2.3475,-2.3116,-2.2634,-2.1799,-2.1171,-2.0617,-1.9929,-1.969,-1.969,-1.969,-1.969,-1.969,-1.969,-1.9561,-1.9505,-2.007,-1.9691,0.0,0.0,0.0,0.0,0.0,0.0,0.0,0.0,0.0,-2.1902,-2.1532,-2.2214,-2.2828,-2.253,-2.2498,-2.2804,-2.3478,-2.3678,-2.4316,-2.5833,-2.6147,-2.6068,-2.5578,-2.5526,-2.5621,-2.5957,-2.651,-2.6669,-2.6162,-2.6616,-2.6893,-2.6893,-2.6893,-2.71,-2.7575,-2.7625,-2.7625,-2.7625,-2.7625,-2.7625,-2.7625,-2.7625,-2.7625,-2.7625,-2.7625,-2.7775,-2.7974,-2.8107,-2.8431,-2.8826,-2.8322,-2.7703,-2.7015,-2.6388,-2.5086,-2.3486,-2.3486,-2.3093,-2.2539,0.0,0.0,0.0,0.0,0.0,0.0,0.0,0.0,0.0,0.0,0.0,0.0,0.0,0.0,0.0,0.0,0.0,0.0,-1.6466,-1.6436,-1.6436,-1.6522,-1.7137,-1.7702,-1.8191,-1.8794,-1.9334,-1.9798,-1.985,-2.0156,-2.0709,-2.1237,-2.1799,-2.2374,-2.2873,-2.326,-2.3466,-2.3509,-2.3538,-2.355,-2.2996,-2.2783,-2.2547,-2.1291,-2.0782,-2.0617,-1.9929,-1.969,-1.969,-1.969,-1.969,-1.969,-1.969,-2.0072,-2.0542,-2.0616,0.0,-2.1382,-2.153,-2.1204,-2.0956,-2.1385,-2.1297,-2.1205,0.0,0.0,-2.2076,-2.203,-2.2455,-2.3064,-2.3583,-2.4024,-2.4535,-2.5188,-2.583,-2.6262,-2.6475,-2.7046,-2.7354,-2.7303,-2.7303,-2.7115,-2.6669,-2.7152,-2.7458,-2.7408,-2.7458,-2.7509,-2.7509,-2.7509,-2.7524,-2.7625,-2.7625,-2.7625,-2.7625,-2.7625,-2.7625,-2.7625,-2.7625,-2.7675,-2.779,-2.779,-2.8057,-2.8638,-2.918,-2.9451,-2.948,-2.9565,-2.8801,-2.7607,-2.7542,-2.6566,-2.5239,-2.5239,-2.4962,-2.4547,0.0,0.0,0.0,0.0,0.0,0.0,0.0,0.0,0.0,0.0,0.0,0.0,0.0,0.0,0.0,0.0,0.0,0.0,-1.6454,-1.6522,-1.6522,-1.6522,-1.7074,-1.7488,-1.7714,-1.8267,-1.8807,-1.9346,-1.9634,-2.0086,-2.061,-2.1513,-2.2081,-2.2314,-2.3008,-2.3378,-2.348,-2.315,-2.3029,-2.3011,-2.2368,-2.1874,-2.147,-2.0917,-2.0468,-2.0124,-2.0243,-2.0288,0.0,0.0,-2.0543,-2.0782,-2.0408,-2.0737,-2.1365,-2.1739,-2.1784,0.0,-2.1801,-2.2001,-2.2192,0.0,-2.2294,-2.235,-2.279,-2.2952,-2.295,-2.295,-2.3143,-2.3496,-2.4161,-2.4476,-2.4971,0.0,-2.6408,-2.6722,-2.7111,-2.7395,-2.7625,-2.7625,-2.7625,-2.7509,-2.7255,-2.7458,-2.7625,-2.7625,-2.7625,-2.7625,-2.7625,-2.7625,-2.7625,-2.7625,-2.7625,-2.7625,-2.7625,-2.7625,-2.7625,-2.774,-2.774,-2.791,-2.8319,-2.8319,-2.8638,-2.9271,-2.9848,-3.0107,-3.0123,-3.0166,-2.9387,-2.8106,-2.8066,-2.7148,-2.5835,-2.5577,-2.5389,-2.5227,0.0,0.0,0.0,0.0,0.0,0.0,0.0,0.0,0.0,0.0,0.0,0.0,0.0,0.0,0.0,0.0,0.0,0.0,0.0,-1.6434,-1.6522,-1.6522,-1.6923,-1.7212,-1.7388,-1.7777,-1.8242,-1.8794,-1.9169,-1.959,-2.0139,-2.1115,-2.1668,-2.1849,-2.26,-2.2931,-2.2986,-2.2607,-2.2398,-2.2353,-2.1695,-2.1141,-2.0692,-2.0498,-2.0124,-1.9779,-2.0468,-2.0722,0.0,0.0,-2.1306,-2.162,-2.1141,-2.144,-2.2054,-2.2547,-2.2458,-2.2241,-2.2335,0.0,0.0,-2.3113,-2.3113,-2.3201,-2.3508,-2.3595,-2.3595,-2.3595,-2.3595,-2.3804,-2.4462,-2.4582,-2.5061,-2.6378,-2.6587,-2.6811,-2.7535,-2.7625,-2.7625,-2.7625,-2.7625,-2.7625,-2.7625,-2.7625,-2.7625,-2.7625,-2.7625,-2.7625,-2.7625,-2.7625,-2.7625,-2.7625,-2.7625,-2.7675,-2.7675,-2.7675,-2.7825,-2.8057,-2.8057,-2.8367,-2.895,-2.9134,-2.9451,-2.9892,-3.0435,-3.0699,-3.0699,-3.0699,-2.9832,-2.8569,-2.851,-2.7578,-2.6245,-2.5944,-2.5762,-2.5689,0.0,0.0,0.0,0.0,0.0,0.0,0.0,0.0,0.0,0.0,0.0,0.0,0.0,0.0,0.0,0.0,0.0,0.0,0.0,-1.622,-1.6522,-1.6522,-1.6534,-1.681,-1.7375,-1.74,-1.7677,-1.8229,-1.8229,-1.8465,-1.8871,-1.9436,-2.0055,-2.067,-2.1228,-2.1569,-2.1754,-2.1739,-2.1724,-2.1665,-2.1006,-2.0737,-2.0647,-1.9974,-1.9705,-1.9779,-2.0468,0.0,0.0,0.0,-2.168,-2.1695,-2.168,-2.2113,0.0,-2.2667,-2.3086,0.0,0.0,0.0,-2.3595,-2.3595,-2.3595,-2.3595,-2.3595,-2.3595,-2.3595,-2.3595,-2.3595,-2.3804,-2.4462,-2.4582,-2.5061,-2.6378,-2.6587,-2.6811,-2.7535,-2.7625,-2.7625,-2.7625,-2.7625,-2.7625,0.0,-2.7625,-2.7625,-2.7625,-2.7625,-2.7625,-2.7625,-2.7625,-2.7625,-2.7625,-2.774,-2.779,-2.779,-2.7905,-2.822,-2.8685,-2.8685,-2.8996,-2.9585,-3.0166,-3.0477,-3.0518,-3.0958,-3.119,-3.119,-3.119,-3.0311,-2.8975,-2.8975,-2.8044,-2.6691,-2.6657,-2.6436,-2.6139,0.0,0.0,0.0,0.0,0.0,0.0,0.0,0.0,0.0,0.0,0.0,0.0,0.0,0.0,0.0,0.0,0.0,0.0,0.0,-1.5869,-1.6132,-1.6497,-1.6522,-1.6609,-1.681,-1.681,-1.7207,-1.8093,-1.8093,-1.8487,-1.9338,-1.9956,-2.0415,-2.0696,-2.1304,-2.1615,-2.1665,-2.1231,-2.1051,-2.0991,-2.0303,-2.0034,-2.0004,-1.9779,-1.969,-1.9779,0.0,0.0,0.0,0.0,0.0,0.0,-2.258,-2.2896,0.0,-2.3423,-2.3531,-2.3595,-2.3595,0.0,-2.3595,-2.3595,-2.3939,-2.4163,-2.3699,-2.3954,-2.4148,-2.3684,-2.3595,-2.3804,-2.4462,-2.4582,-2.4911,-2.5794,-2.6303,-2.6662,-2.6886,-2.7305,-2.7625,-2.7625,-2.7625,0.0,0.0,0.0,0.0,-2.7625,-2.7625,-2.7625,-2.7625,-2.7675,-2.774,-2.774,-2.7855,-2.8073,-2.8367,-2.8431,-2.8748,-2.9316,-2.9717,-2.9978,-3.0192,-3.074,-3.0958,-3.0958,-3.1151,-3.119,-3.119,-3.119,-3.0328,-2.9011,-2.9011,-2.8044,-2.6691,-2.6691,-2.6607,-2.6505,0.0,0.0,0.0,0.0,0.0,0.0,0.0,0.0,0.0,0.0,0.0,0.0,0.0,0.0,0.0,0.0,0.0,0.0,0.0,0.0,-1.5897,-1.6208,-1.6409,-1.6522,-1.6522,-1.6534,-1.6883,-1.7544,-1.7575,-1.809,-1.9068,-1.9489,-1.9914,-2.0331,-2.0768,-2.0953,-2.0946,-2.0528,-2.0348,-2.0303,-1.9869,-1.969,-1.969,-1.969,-1.969,0.0,0.0,0.0,0.0,0.0,0.0,0.0,-2.3307,-2.3534,-2.3839,-2.3797,-2.3739,-2.3653,-2.3595,-2.3774,-2.3969,-2.3969,-2.4298,-2.4462,-2.4073,-2.4118,-2.4133,-2.3684,-2.3595,-2.3729,-2.4178,-2.4253,-2.4477,-2.5151,-2.5809,-2.6318,-2.6557,-2.7156,-2.7625,-2.7625,-2.7625,-2.7625,0.0,0.0,0.0,-2.7625,-2.7625,-2.7675,-2.7675,-2.779,-2.794,-2.8107,-2.8088,-2.8317,-2.8748,-2.8842,-2.9196,-2.9935,-3.046,-3.074,-3.074,-3.1055,-3.119,-3.119,-3.119,-3.119,-3.119,-3.119,-3.0328,-2.9011,-2.9011,-2.8044,-2.6691,-2.6691,-2.6691,-2.6691,0.0,0.0,0.0,0.0,0.0,0.0,0.0,0.0,0.0,0.0,0.0,0.0,0.0,0.0,0.0,0.0,0.0,0.0,0.0,0.0,0.0,-1.5696,-1.6183,-1.6471,-1.6471,-1.6607,-1.6718,-1.6718,-1.6876,-1.7338,-1.8145,-1.8145,-1.8679,-1.9611,-1.9611,-1.9632,-1.969,-1.969,-1.969,-1.969,-1.969,-1.969,-1.969,-1.969,0.0,0.0,0.0,0.0,0.0,0.0,0.0,0.0,0.0,-2.3952,-2.3982,-2.3839,-2.3797,-2.3754,-2.3683,-2.4133,-2.4582,-2.4582,-2.4612,-2.4612,-2.4552,-2.4088,-2.364,-2.361,-2.3595,-2.3595,0.0,0.0,-2.3819,-2.4477,-2.5136,-2.5794,-2.6437,-2.716,-2.758,0.0,0.0,0.0,0.0,0.0,0.0,-2.7755,-2.779,-2.784,-2.784,-2.8005,-2.8268,-2.8732,-2.8446,-2.851,-2.8997,-2.912,-2.9645,-3.0559,-3.1015,-3.119,-3.119,-3.119,-3.119,-3.119,-3.119,-3.119,-3.119,-3.1157,-3.0294,-2.9011,-2.8941,-2.801,-2.6691,-2.6691,-2.6691,-2.6691,0.0,0.0,0.0,0.0,0.0,0.0,0.0,0.0,0.0,0.0,0.0,0.0,0.0,0.0,0.0,0.0,0.0,0.0,0.0,0.0,0.0,0.0,0.0,0.0,0.0,0.0,0.0,0.0,0.0,-1.7948,-1.8616,-1.8936,-1.9273,-1.9654,-1.9654,-1.969,-1.969,-1.969,-1.969,-1.969,0.0,-1.969,-1.969,0.0,0.0,0.0,0.0,0.0,0.0,0.0,0.0,0.0,0.0,-2.3531,-2.3839,-2.3797,-2.3739,-2.3758,-2.4223,-2.4448,-2.4582,-2.4582,-2.5001,-2.5091,-2.4088,-2.4118,-2.4223,-2.3699,-2.3696,-2.3739,0.0,0.0,0.0,-2.398,-2.4477,0.0,-2.592,-2.6582,0.0,-2.7845,0.0,-2.8039,-2.8367,-2.8463,0.0,0.0,-2.8966,-2.8463,-2.8463,-2.8919,-2.9241,-2.9361,-2.9377,-2.9617,-3.0081,-3.0477,-3.0797,-3.1015,-3.1151,-3.119,-3.119,-3.119,-3.119,-3.119,-3.119,-3.119,-3.1157,-3.0615,-2.9837,-2.8924,-2.8349,-2.7537,-2.6691,-2.6691,-2.6691,-2.6691,0.0,0.0,0.0,0.0,0.0,0.0,0.0,0.0,0.0,0.0,0.0,0.0,0.0,0.0,0.0,0.0,0.0,0.0,0.0,0.0,0.0,0.0,0.0,0.0,0.0,0.0,0.0,0.0,0.0,0.0,0.0,-1.8988,-1.9325,-1.9435,-1.9617,-1.969,-1.969,-1.969,0.0,0.0,0.0,0.0,0.0,0.0,0.0,0.0,0.0,0.0,0.0,0.0,0.0,-2.2744,-2.305,-2.3361,-2.3629,-2.3891,0.0,-2.399,-2.4626,-2.4972,-2.5183,-2.5183,-2.5469,-2.5408,-2.446,-2.425,-2.4161,-2.3829,-2.3839,0.0,0.0,0.0,0.0,0.0,0.0,0.0,-2.5803,-2.6484,-2.7246,0.0,-2.8317,0.0,-2.9422,-2.9547,-2.9973,0.0,-3.0161,-2.9721,-3.0022,-3.0122,-3.0275,-3.0468,-3.0043,-3.0011,-3.0518,-3.074,-3.1015,-3.119,-3.119,-3.119,-3.119,-3.119,-3.119,-3.119,-3.119,-3.119,-3.114,-3.0412,-2.9668,-2.8907,-2.8129,-2.7351,-2.6691,-2.6775,-2.6858,-2.6971,0.0,0.0,0.0,0.0,0.0,0.0,0.0,0.0,0.0,0.0,0.0,0.0,0.0,0.0,0.0,0.0,0.0,0.0,0.0,0.0,0.0,0.0,0.0,0.0,0.0,0.0,0.0,0.0,0.0,0.0,0.0,0.0,0.0,0.0,0.0,0.0,0.0,0.0,0.0,0.0,0.0,0.0,0.0,0.0,0.0,0.0,0.0,0.0,0.0,0.0,-2.1013,-2.227,-2.2948,-2.3185,-2.34,-2.3967,-2.4208,-2.4361,-2.4952,-2.5515,-2.5955,-2.5986,-2.5849,-2.5561,-2.4999,-2.4349,-2.3882,-2.4051,0.0,-2.4219,-2.4542,-2.4664,-2.4704,-2.4623,0.0,-2.5668,-2.5924,-2.6612,-2.7473,-2.8483,-2.8763,-2.9279,-3.0376,-3.0674,-3.1167,-3.1957,-3.1489,-3.1424,-3.1897,-3.1482,-3.1391,-3.1672,-3.056,-3.0182,-3.0601,-3.0601,-3.0797,-3.119,-3.119,-3.119,-3.119,-3.119,-3.123,-3.1269,-3.1269,-3.1291,-3.1261,-3.0428,-2.9734,-2.9053,-2.8168,-2.7403,-2.6825,-2.699,-2.7149,-2.7317,0.0,0.0,0.0,0.0,0.0,0.0,0.0,0.0,0.0,0.0,0.0,0.0,0.0,0.0,0.0,0.0,0.0,0.0,0.0,0.0,0.0,0.0,0.0,0.0,0.0,0.0,0.0,0.0,0.0,0.0,0.0,0.0,0.0,0.0,0.0,0.0,0.0,0.0,0.0,0.0,0.0,0.0,0.0,0.0,0.0,0.0,0.0,0.0,0.0,0.0,-2.0722,-2.1452,-2.211,-2.2644,-2.3198,-2.3827,-2.4245,-2.4715,-2.5589,-2.5737,-2.5713,-2.5925,-2.5561,-2.4969,-2.4301,-2.4058,0.0,0.0,-2.4558,-2.4695,-2.4759,-2.5036,0.0,-2.4799,0.0,0.0,0.0,0.0,-2.7619,0.0,0.0,0.0,0.0,0.0,0.0,0.0,-3.3554,-3.3472,-3.2618,-3.2811,-3.2732,-3.2208,-3.1385,-3.1015,-3.1095,-3.1095,-3.1112,-3.119,-3.119,-3.119,-3.119,-3.119,-3.1368,-3.162,-3.162,-3.1787,-3.2004,-3.0641,-3.0009,-2.9779,-2.8421,-2.7622,-2.7317,-2.7607,-2.7577,-2.7409,0.0,0.0,0.0,0.0,0.0,0.0,0.0,0.0,0.0,0.0,0.0,0.0,0.0,0.0,0.0,0.0,0.0,0.0,0.0,0.0,0.0,0.0,0.0,0.0,0.0,0.0,0.0,0.0,0.0,0.0,0.0,0.0,0.0,0.0,0.0,0.0,0.0,0.0,0.0,0.0,0.0,0.0,0.0,0.0,0.0,0.0,0.0,0.0,0.0,0.0,-2.0746,-2.105,-2.175,-2.2397,-2.308,-2.3723,-2.4461,-2.5187,-2.5788,-2.5989,-2.6107,-2.623,-2.5973,-2.5524,-2.4673,0.0,0.0,0.0,-2.4799,-2.4981,-2.5389,0.0,0.0,0.0,0.0,0.0,0.0,0.0,0.0,0.0,0.0,0.0,0.0,0.0,-3.2522,-3.388,-3.4303,-3.4401,-3.4214,-3.3684,-3.3051,-3.2347,-3.1562,-3.119,-3.119,-3.119,-3.119,-3.119,-3.119,-3.119,-3.119,-3.1389,-3.1562,-3.1714,-3.1967,-3.1952,-3.1648,-3.0568,-2.9925,-2.94,-2.8329,-2.7811,-2.7678,-2.7869,-2.7936,-2.7946,0.0,0.0,0.0,0.0,0.0,0.0,0.0,0.0,0.0,0.0,0.0,0.0,0.0,0.0,0.0,0.0,0.0,0.0,0.0,0.0,0.0,0.0,0.0,0.0,0.0,0.0,0.0,0.0,0.0,0.0,0.0,0.0,0.0,0.0,0.0,0.0,0.0,0.0,0.0,0.0,0.0,0.0,0.0,0.0,0.0,0.0,0.0,0.0,0.0,0.0,-2.0794,-2.0922,-2.1595,-2.2343,-2.312,-2.3761,-2.4746,-2.5702,-2.5942,-2.6222,-2.6438,-2.6484,-2.6341,-2.6005,-2.5226,-2.4997,0.0,0.0,-2.516,-2.5351,-2.598,0.0,0.0,0.0,0.0,0.0,0.0,0.0,0.0,0.0,0.0,0.0,0.0,0.0,0.0,-3.3931,-3.4167,-3.459,-3.5334,-3.4134,-3.3051,-3.2347,-3.1562,-3.119,-3.119,-3.119,-3.119,-3.119,-3.1252,-3.1329,-3.1368,-3.1694,-3.1878,-3.2021,-3.2368,-3.2143,-3.1408,-3.0718,-2.9946,-2.9162,-2.8423,-2.8093,-2.8065,-2.8174,-2.8308,-2.8464,0.0,0.0,0.0,0.0,0.0,0.0,0.0,0.0,0.0,0.0,0.0,0.0,0.0,0.0,0.0,0.0,0.0,0.0,0.0,0.0,0.0,0.0,0.0,0.0,0.0,0.0,0.0,0.0,0.0,0.0,0.0,0.0,0.0,0.0,0.0,0.0,0.0,0.0,0.0,0.0,0.0,0.0,0.0,0.0,0.0,0.0,0.0,0.0,0.0,0.0,0.0,-2.0925,-2.1591,-2.2524,-2.3474,-2.4148,0.0,0.0,-2.6361,-2.6276,-2.6208,-2.6432,-2.6031,-2.5546,-2.5481,0.0,0.0,-2.5908,-2.598,-2.6016,-2.6104,-2.6401,0.0,0.0,0.0,0.0,0.0,0.0,0.0,0.0,0.0,0.0,0.0,0.0,-3.2381,-3.2517,-3.3119,-3.3829,-3.4556,-3.3846,-3.3051,-3.2347,-3.1562,-3.119,-3.119,-3.119,-3.119,-3.119,-3.1524,-3.1731,-3.1858,-3.2179,-3.2586,-3.297,-3.3019,-3.2769,-3.2219,-3.1482,-3.0706,-2.9922,-2.9192,-2.8743,-2.8576,-2.8834,-2.8767,-2.8626,0.0,0.0,0.0,0.0,0.0,0.0,0.0,0.0,0.0,0.0,0.0,0.0,0.0,0.0,0.0,0.0,0.0,0.0,0.0,0.0,0.0,0.0,0.0,0.0,0.0,0.0,0.0,0.0,0.0,0.0,0.0,0.0,0.0,0.0,0.0,0.0,0.0,0.0,0.0,0.0,0.0,0.0,0.0,0.0,0.0,0.0,0.0,0.0,0.0,0.0,0.0,0.0,-2.213,-2.2824,0.0,0.0,-2.4547,-2.5782,-2.5628,-2.6023,-2.6503,-2.6595,-2.6426,-2.6175,-2.5908,0.0,-2.5908,-2.6068,-2.6104,-2.6175,-2.6436,-2.6573,-2.6657,0.0,0.0,0.0,0.0,0.0,0.0,0.0,0.0,0.0,0.0,0.0,-3.1799,-3.2297,-3.2983,-3.3447,-3.3522,-3.3248,-3.294,-3.2672,-3.2145,-3.1877,-3.1877,-3.1913,-3.1913,-3.1913,-3.2092,-3.2231,-3.2265,-3.2651,-3.2908,-3.3093,-3.2832,-3.2347,-3.167,-3.0943,-3.0161,-2.941,-2.9104,-2.8929,-2.8858,-2.897,-2.8929,-2.8858,0.0,0.0,0.0,0.0,0.0,0.0,0.0,0.0,0.0,0.0,0.0,0.0,0.0,0.0,0.0,0.0,0.0,0.0,0.0,0.0,0.0,0.0,0.0,0.0,0.0,0.0,0.0,-1.3788,-1.404,-1.4254,0.0,0.0,-1.5149,0.0,0.0,0.0,0.0,0.0,0.0,0.0,0.0,0.0,0.0,0.0,0.0,0.0,0.0,0.0,0.0,0.0,0.0,0.0,0.0,0.0,0.0,0.0,-2.4301,-2.5544,-2.5247,-2.5916,-2.6691,-2.6691,-2.6691,-2.6624,0.0,0.0,-2.628,-2.628,-2.628,-2.635,-2.6657,-2.6691,-2.6691,0.0,0.0,0.0,0.0,0.0,0.0,0.0,0.0,0.0,0.0,-3.119,-3.141,-3.1918,-3.2564,-3.2798,-3.2614,-3.2802,-3.2875,-3.2728,-3.2477,-3.2317,-3.2317,-3.2419,-3.2435,-3.2435,-3.2601,-3.2681,-3.2713,-3.3093,-3.3291,-3.3284,-3.2757,-3.2078,-3.1254,-3.0516,-2.9732,-2.8994,-2.8994,-2.8994,-2.8994,-2.8994,-2.8994,-2.8994,0.0,0.0,0.0,0.0,0.0,0.0,0.0,0.0,0.0,0.0,0.0,0.0,0.0,0.0,0.0,0.0,0.0,0.0,0.0,0.0,0.0,0.0,0.0,0.0,0.0,0.0,0.0,-1.3788,-1.3788,-1.4189,-1.489,-1.4497,-1.4732,-1.5477,0.0,0.0,0.0,0.0,0.0,0.0,0.0,0.0,0.0,0.0,0.0,0.0,0.0,0.0,0.0,0.0,0.0,0.0,0.0,0.0,0.0,0.0,-2.4637,-2.5609,-2.5609,-2.615,-2.6691,-2.6691,-2.6691,-2.6691,0.0,0.0,-2.6691,-2.6691,-2.6691,-2.6691,-2.6691,-2.6691,-2.6691,-2.6691,0.0,0.0,0.0,0.0,0.0,0.0,0.0,0.0,-3.119,-3.119,-3.119,-3.1207,-3.1542,-3.1768,-3.1806,-3.2553,-3.2784,-3.2317,-3.2351,-3.2385,-3.2385,-3.2468,-3.2484,-3.2517,-3.2908,-3.3142,-3.3214,-3.3541,-3.3726,-3.3752,-3.2963,-3.2137,-3.1329,-3.0522,-2.9732,-2.8994,-2.8994,-2.8994,-2.8994,-2.8994,-2.8994,-2.8994,0.0,0.0,0.0,0.0,0.0,0.0,0.0,0.0,0.0,0.0,0.0,0.0,0.0,0.0,0.0,0.0,0.0,0.0,0.0,0.0,0.0,0.0,0.0,0.0,0.0,0.0,0.0,-1.3399,-1.3446,-1.3702,-1.4208,-1.461,-1.4921,-1.5165,-1.5551,0.0,0.0,0.0,0.0,0.0,0.0,0.0,0.0,0.0,0.0,0.0,0.0,0.0,0.0,0.0,0.0,0.0,0.0,0.0,0.0,0.0,0.0,0.0,-2.4983,-2.553,-2.6065,-2.6573,-2.6691,-2.6691,-2.6691,-2.6691,-2.6691,-2.6691,-2.6691,-2.6691,-2.6691,-2.6691,-2.6691,-2.6691,-2.6691,0.0,0.0,0.0,0.0,0.0,0.0,0.0,0.0,0.0,-3.1562,-3.1562,-3.1932,-3.2317,-3.2619,-3.2925,-3.2988,-3.2844,-3.3081,-3.3202,-3.3202,-3.3291,-3.3302,-3.3302,-3.3494,-3.3578,-3.3606,-3.3707,-3.3468,-3.2944,-3.2137,-3.1311,-3.0522,-2.9714,-2.9214,-2.8994,-2.8994,-2.8994,-2.8994,-2.8994,-2.8994,-2.9017,0.0,0.0,0.0,0.0,0.0,0.0,0.0,0.0,0.0,0.0,0.0,0.0,0.0,0.0,0.0,0.0,0.0,0.0,0.0,0.0,0.0,0.0,0.0,0.0,0.0,0.0,-1.3467,-1.3488,-1.3676,-1.3954,-1.4369,-1.4797,-1.5043,-1.5134,-1.5521,0.0,0.0,0.0,0.0,0.0,0.0,0.0,-1.707,0.0,0.0,0.0,0.0,0.0,0.0,0.0,0.0,0.0,0.0,0.0,0.0,0.0,-2.365,0.0,0.0,-2.5264,-2.6073,-2.6519,-2.6766,0.0,0.0,-2.6791,-2.6691,-2.6691,-2.6691,-2.6691,-2.6691,-2.6691,-2.6691,-2.6691,-2.6691,0.0,0.0,0.0,0.0,0.0,0.0,0.0,0.0,-3.1431,-3.1806,-3.1986,-3.2401,-3.2781,-3.305,-3.3232,-3.3321,-3.335,-3.3559,-3.3633,-3.3633,-3.3698,-3.3726,-3.3726,-3.378,-3.3807,-3.3807,-3.3807,-3.3366,-3.2577,-3.1751,-3.0944,0.0,-2.9347,-2.8994,-2.8994,-2.8994,-2.9044,-2.9115,-2.9115,-2.916,-2.9249,0.0,0.0,0.0,0.0,0.0,0.0,0.0,0.0,0.0,0.0,0.0,0.0,0.0,0.0,0.0,0.0,0.0,0.0,0.0,0.0,0.0,0.0,0.0,0.0,0.0,-1.3353,-1.3894,-1.3967,-1.4278,-1.4627,-1.5043,-1.5043,-1.5134,-1.5299,-1.5225,-1.5255,-1.5418,-1.5983,-1.6234,-1.6328,-1.6565,-1.6581,0.0,0.0,0.0,0.0,0.0,0.0,0.0,0.0,0.0,0.0,0.0,0.0,0.0,0.0,0.0,0.0,0.0,0.0,0.0,0.0,0.0,0.0,0.0,-2.7021,0.0,-2.6758,-2.6758,-2.6758,-2.6758,-2.6725,-2.6725,-2.6791,0.0,0.0,0.0,0.0,0.0,0.0,0.0,0.0,-3.0751,-3.1463,-3.2057,-3.2517,-3.2908,-3.3172,-3.3243,-3.3541,-3.3726,-3.3807,-3.3753,-3.3698,-3.3698,-3.378,-3.3807,-3.3807,-3.3807,-3.3807,-3.3807,-3.3733,-3.3275,-3.2485,-3.1659,-3.0852,-3.0063,-2.9329,-2.9017,-2.9021,-2.9021,-2.9138,-2.9314,-2.9314,-2.9455,-2.9608,0.0,0.0,0.0,0.0,0.0,0.0,0.0,0.0,0.0,0.0,0.0,0.0,0.0,0.0,0.0,0.0,0.0,0.0,0.0,0.0,0.0,0.0,0.0,0.0,0.0,-1.3378,-1.3581,-1.3615,-1.3735,-1.4013,-1.4401,-1.4982,-1.5255,-1.5329,-1.574,-1.5955,-1.6011,-1.6191,-1.6274,-1.6313,-1.6474,-1.6644,0.0,0.0,0.0,0.0,-2.0027,-2.1135,0.0,0.0,0.0,0.0,0.0,0.0,0.0,0.0,-2.3976,-2.3933,-2.4009,0.0,-2.5121,-2.6337,-2.6722,-2.6992,0.0,0.0,0.0,0.0,0.0,0.0,0.0,0.0,0.0,0.0,0.0,0.0,0.0,0.0,0.0,0.0,-2.978,-3.0487,-3.1444,-3.2311,-3.2827,-3.2939,-3.3321,-3.3587,-3.3569,-3.3726,-3.378,-3.3807,-3.378,-3.378,-3.378,-3.3788,-3.3807,-3.3807,-3.3807,-3.3807,-3.377,-3.3164,-3.2449,-3.1641,-3.0834,-3.0026,-2.925,-2.9067,-2.9089,-2.9228,-2.9228,-2.9355,-2.9532,-2.9532,-2.957,-2.9626,0.0,0.0,0.0,0.0,0.0,0.0,0.0,0.0,0.0,0.0,0.0,0.0,0.0,0.0,0.0,0.0,0.0,0.0,0.0,0.0,0.0,0.0,0.0,0.0,0.0,-1.3399,-1.3695,-1.3861,-1.4046,-1.4241,-1.4493,-1.5165,-1.5433,-1.5329,-1.5797,-1.608,-1.6262,-1.6316,-1.6421,-1.6565,-1.6644,0.0,0.0,0.0,0.0,0.0,-1.9636,-2.0875,0.0,-2.2723,-2.3358,-2.3978,0.0,0.0,0.0,0.0,-2.4172,-2.4094,-2.4094,-2.4393,-2.492,-2.5799,-2.6451,-2.7014,0.0,0.0,0.0,0.0,0.0,0.0,0.0,0.0,0.0,0.0,0.0,0.0,0.0,0.0,0.0,0.0,-2.9769,-3.0614,0.0,-3.2675,-3.3214,-3.3408,-3.3625,-3.3753,-3.3753,-3.378,-3.3807,-3.3807,-3.3807,-3.3807,-3.3807,-3.3807,-3.3807,-3.3807,-3.3807,-3.3605,-3.3238,-3.2816,-3.1971,-3.0834,-3.0393,-2.9803,-2.9138,-2.9138,-2.927,-2.9435,-2.9435,-2.957,-2.9734,-2.9734,-2.9805,-2.9905,0.0,0.0,0.0,0.0,0.0,0.0,0.0,0.0,0.0,0.0,0.0,0.0,0.0,0.0,0.0,0.0,0.0,0.0,0.0,0.0,0.0,0.0,0.0,0.0,-1.2765,-1.3399,-1.3908,-1.4235,-1.4525,-1.4683,-1.4746,-1.5315,-1.5492,-1.5374,-1.5725,-1.6037,-1.6328,-1.6382,-1.6581,-1.685,-1.6885,0.0,0.0,0.0,0.0,0.0,0.0,0.0,0.0,-2.2562,-2.3339,-2.4247,-2.4373,0.0,0.0,0.0,0.0,0.0,-2.4247,-2.4647,-2.5098,-2.5202,-2.6027,-2.6891,0.0,0.0,0.0,0.0,0.0,0.0,0.0,0.0,0.0,0.0,0.0,0.0,0.0,0.0,0.0,-2.9218,-2.9959,0.0,-3.2148,-3.2893,-3.3419,-3.3762,-3.3807,-3.3807,-3.3807,-3.3807,-3.3807,-3.3807,-3.3807,-3.3807,-3.3807,-3.3807,-3.3807,-3.3807,-3.3807,-3.3385,-3.2614,-3.2485,-3.1604,-3.0239,-3.011,-2.9787,-2.9355,-2.9355,-2.9456,-2.9644,-2.9644,-2.9769,-2.9956,-2.9937,-3.0049,-3.0199,0.0,0.0,0.0,0.0,0.0,0.0,0.0,0.0,0.0,0.0,0.0,0.0,0.0,0.0,0.0,0.0,0.0,0.0,0.0,0.0,0.0,0.0,0.0,-1.299,-1.306,-1.3357,-1.3695,-1.3941,-1.4007,-1.4138,-1.4383,-1.4763,-1.5209,-1.5754,-1.6065,-1.6274,-1.6398,-1.6448,-1.6512,-1.6591,-1.6866,0.0,0.0,0.0,0.0,0.0,0.0,0.0,0.0,-2.2381,-2.3381,-2.4373,-2.4389,0.0,0.0,0.0,0.0,0.0,-2.4408,-2.443,-2.4653,-2.5219,-2.5525,-2.6015,0.0,0.0,0.0,0.0,0.0,0.0,0.0,0.0,0.0,0.0,0.0,0.0,0.0,0.0,-2.8802,-3.0281,0.0,-3.1638,-3.2889,-3.3449,-3.3734,-3.3807,-3.3807,-3.3807,-3.3807,-3.3807,-3.3807,-3.3807,-3.3807,-3.3807,-3.3807,-3.3807,-3.3807,-3.3807,-3.3807,-3.3385,-3.2596,-3.1898,-3.1175,-3.0435,-2.9731,-2.9487,-2.9533,-2.9533,-2.9681,-2.9855,-2.9855,-2.9988,-3.0157,-3.0166,-3.0161,-3.0207,0.0,0.0,0.0,0.0,0.0,0.0,0.0,0.0,0.0,0.0,0.0,0.0,0.0,0.0,0.0,0.0,0.0,0.0,0.0,0.0,0.0,0.0,-1.3459,-1.3323,-1.3323,-1.3573,-1.3775,-1.3921,-1.404,-1.417,-1.43,-1.4887,-1.5463,-1.6093,-1.6459,-1.6644,-1.6686,-1.6901,-1.7134,-1.7365,0.0,0.0,0.0,0.0,0.0,0.0,0.0,0.0,0.0,0.0,-2.3066,-2.3961,-2.4546,0.0,0.0,0.0,0.0,0.0,-2.4594,-2.4559,-2.4603,-2.4819,-2.5132,-2.5605,0.0,0.0,0.0,0.0,0.0,0.0,0.0,0.0,0.0,0.0,0.0,-2.8749,-2.8881,-2.8791,-2.9119,0.0,0.0,-3.1741,-3.2775,-3.3424,-3.3807,-3.3807,-3.3807,-3.3807,-3.3807,-3.3807,-3.3807,-3.3807,-3.3807,-3.3807,-3.3807,-3.3478,-3.3257,-3.3146,-3.3146,-3.2555,-3.1444,-3.108,-3.0587,-2.9997,-2.9604,-2.9589,-2.9751,-2.9767,-2.9883,-3.006,-3.0109,-3.0166,-3.024,-3.0253,-3.0247,-3.026,0.0,0.0,0.0,0.0,0.0,0.0,0.0,0.0,0.0,0.0,0.0,0.0,0.0,0.0,0.0,0.0,0.0,0.0,0.0,0.0,-1.1446,-1.3894,-1.3535,-1.3353,-1.348,-1.3795,-1.396,-1.4026,-1.4305,-1.4497,-1.4592,-1.5165,-1.5725,-1.6274,-1.6722,-1.6926,-1.6952,-1.732,-1.7698,-1.8027,0.0,0.0,0.0,0.0,0.0,0.0,0.0,0.0,0.0,0.0,0.0,0.0,0.0,0.0,0.0,-2.5019,-2.4942,-2.4823,-2.4779,-2.4764,-2.4719,-2.4508,0.0,-2.5223,-2.5348,0.0,0.0,0.0,0.0,0.0,0.0,0.0,0.0,0.0,-2.8994,-2.8994,-2.8994,-2.8994,-2.931,-3.0099,-3.0742,-3.1439,-3.2247,-3.3054,-3.3532,-3.3532,-3.3697,-3.3807,-3.3807,-3.3807,-3.3807,-3.3807,-3.3658,-3.3574,-3.3574,-3.3017,-3.272,-3.2672,-3.2545,-3.1816,-3.0583,-3.0586,-3.0261,-2.9697,-2.9697,-2.9803,-2.9984,-3.0003,-3.0103,-3.0248,-3.0328,-3.0348,-3.0343,-3.0318,-3.033,-3.0359,0.0,0.0,0.0,0.0,0.0,0.0,0.0,0.0,0.0,0.0,0.0,0.0,0.0,0.0,0.0,0.0,0.0,0.0,0.0,0.0,-1.0962,-1.4144,-1.3243,-1.2923,-1.348,-1.3835,-1.4117,-1.4374,-1.4755,-1.5121,-1.5404,-1.5536,-1.5782,-1.6151,-1.667,-1.6926,-1.7027,-1.7482,-1.7732,-1.7859,-1.8206,0.0,0.0,0.0,0.0,0.0,0.0,0.0,0.0,0.0,0.0,0.0,0.0,0.0,-2.5182,-2.5255,-2.5216,-2.5138,-2.5019,-2.4974,-2.494,-2.4727,0.0,0.0,-2.5259,0.0,0.0,0.0,0.0,0.0,0.0,0.0,0.0,0.0,-2.8994,-2.8994,-2.8994,0.0,-2.931,-3.0099,-3.0246,-3.0595,-3.1403,-3.221,-3.2706,-3.2706,-3.3385,-3.3807,-3.3807,-3.3807,-3.3807,-3.3807,-3.3266,-3.2956,-3.2956,-3.243,-3.2411,-3.2887,-3.2371,-3.1692,-3.0866,-3.0866,-3.054,-2.9977,-2.9977,-3.0104,-3.0279,-3.0344,-3.0362,-3.0402,-3.0461,-3.0491,-3.0471,-3.034,-3.0378,-3.0482,0.0,0.0,0.0,0.0,0.0,0.0,0.0,0.0,0.0,0.0,0.0,0.0,0.0,0.0,0.0,0.0,0.0,0.0,0.0,0.0,-1.1588,-1.3533,-1.406,-1.4581,-1.5096,-1.4744,-1.4582,-1.4599,-1.5061,-1.5606,-1.6173,-1.6238,-1.663,-1.7252,-1.7653,-1.7864,-1.7885,-1.8241,-1.8476,-1.8608,-1.8735,-1.8911,0.0,0.0,0.0,0.0,0.0,0.0,0.0,0.0,-2.2932,-2.3449,0.0,-2.534,-2.5324,-2.5354,-2.5311,-2.5245,-2.5157,-2.513,-2.5082,-2.4855,0.0,0.0,0.0,0.0,0.0,0.0,0.0,0.0,0.0,0.0,0.0,-2.8994,-2.8994,-2.8994,-2.8994,-2.8994,-2.9104,-2.9439,-2.9898,-3.032,-3.0613,-3.1384,-3.1843,-3.1843,-3.2137,-3.2302,-3.2302,-3.2302,-3.236,-3.249,-3.2312,-3.2281,-3.2393,-3.1827,-3.1636,-3.1845,-3.1506,-3.0996,-3.0341,-3.0338,-3.0281,-3.0194,-3.0194,-3.0221,-3.0305,-3.0428,-3.0462,-3.0472,-3.0532,-3.0556,-3.0552,-3.0518,-3.0516,-3.0576,0.0,0.0,0.0,0.0,0.0,0.0,0.0,0.0,0.0,0.0,0.0,0.0,0.0,0.0,0.0,0.0,0.0,0.0,0.0,0.0,-1.2404,-1.387,-1.4536,-1.5286,-1.6171,-1.5717,-1.5403,-1.5301,-1.5734,-1.6307,-1.7035,-1.7003,-1.7349,0.0,-1.8261,-1.8419,-1.8479,-1.8824,-1.9061,-1.9268,-1.924,-1.9376,0.0,0.0,0.0,0.0,0.0,0.0,0.0,0.0,-2.2968,0.0,0.0,0.0,0.0,-2.5453,-2.5425,-2.5352,-2.5274,-2.5253,-2.5192,0.0,0.0,0.0,0.0,0.0,0.0,0.0,0.0,0.0,0.0,0.0,0.0,0.0,-2.8994,-2.8994,-2.8994,-2.8994,-2.8994,-2.8994,-2.9494,-2.9824,-2.9824,-3.0558,-3.1017,-3.1017,-3.1256,-3.1384,-3.1384,-3.1483,-3.1584,-3.1727,-3.1661,-3.1692,-3.1808,-3.1219,-3.091,-3.091,-3.0798,-3.051,-3.0114,-3.0114,-3.0202,-3.0318,-3.0348,-3.0359,-3.0383,-3.051,-3.0579,-3.061,-3.0614,-3.0626,-3.0626,-3.0607,-3.0607,-3.0639,0.0,0.0,0.0,0.0,0.0,0.0,0.0,0.0,0.0,0.0,0.0,0.0,0.0,0.0,0.0,0.0,0.0,0.0,0.0,-1.2161,-1.3266,-1.5404,-1.4438,-1.4641,-1.6386,-1.6632,-1.6699,-1.6614,-1.6822,-1.7299,-1.8004,-1.78,0.0,0.0,0.0,-1.8498,-1.8645,-1.9118,-1.9421,-1.9607,-1.9676,-1.9781,-1.9896,0.0,0.0,0.0,0.0,0.0,0.0,0.0,-2.3003,-2.3305,0.0,0.0,0.0,0.0,-2.5547,-2.5486,-2.541,-2.5343,0.0,0.0,0.0,0.0,0.0,0.0,0.0,0.0,0.0,0.0,0.0,0.0,0.0,-2.904,-2.8994,-2.8994,-2.8994,-2.8994,-2.8994,-2.8994,-2.9017,-2.9017,-2.9017,-2.9732,-3.0191,-3.0191,-3.0925,-3.1391,-3.1391,-3.1635,-3.1775,-3.1775,-3.1392,-3.1181,-3.1181,-3.0603,-3.0304,-3.0304,-3.0367,-3.0367,-3.0304,-3.0367,-3.0398,-3.039,-3.0472,-3.0501,-3.0519,-3.0645,-3.0735,-3.0799,-3.0728,-3.0691,-3.0687,-3.0626,-3.0639,-3.0691,0.0,0.0,0.0,0.0,0.0,0.0,0.0,0.0,0.0,0.0,0.0,0.0,0.0,0.0,0.0,0.0,0.0,0.0,0.0,-1.3129,-1.4151,-1.5162,-1.5833,-1.6759,-1.798,-1.8165,-1.8089,-1.7723,-1.7799,-1.8104,-1.8628,0.0,0.0,-1.8996,0.0,-1.928,-1.9327,-1.96,-1.9762,-1.9809,-1.9821,-1.9855,-1.9918,0.0,0.0,0.0,0.0,0.0,0.0,0.0,0.0,0.0,0.0,0.0,0.0,-2.5605,-2.5593,-2.5561,-2.543,-2.5382,0.0,0.0,0.0,0.0,0.0,0.0,0.0,0.0,0.0,0.0,-2.8633,0.0,0.0,-2.9228,-2.9093,-2.8994,-2.8994,-2.8994,-2.8994,-2.8994,-2.9115,-2.9206,-2.9206,-2.9558,-2.977,-2.977,-2.9994,-3.0144,-3.0203,-3.0245,-3.034,-3.0519,-3.0421,-3.0409,-3.056,-3.0426,-3.0367,-3.0367,-3.0398,-3.0398,-3.0367,-3.0398,-3.0436,-3.0472,-3.0482,-3.0537,-3.0583,-3.0661,-3.0735,-3.0799,-3.0771,-3.0768,-3.0768,-3.0758,-3.0739,-3.0768,0.0,0.0,0.0,0.0,0.0,0.0,0.0,0.0,0.0,0.0,0.0,0.0,0.0,0.0,0.0,0.0,0.0,0.0,0.0,0.0,-1.5668,-1.6096,-1.7093,-1.8027,-1.8888,-1.9189,-1.9193,-1.8877,-1.8661,-1.8797,0.0,0.0,-1.9304,-1.9607,0.0,-1.9775,-1.9809,-1.9924,-2.0002,-2.004,-1.9991,-2.0012,-2.0059,0.0,0.0,0.0,0.0,0.0,0.0,0.0,0.0,0.0,0.0,0.0,0.0,-2.5642,-2.5632,-2.5629,-2.5517,0.0,0.0,0.0,0.0,0.0,0.0,0.0,0.0,0.0,0.0,-2.8717,-2.8957,-2.9288,0.0,-2.9435,-2.9332,-2.9228,-2.9228,-2.9228,-2.9228,-2.9228,-2.9334,-2.9415,-2.9415,-2.9532,-2.9608,-2.9608,-2.9607,-2.9626,-2.9699,-2.9729,-2.9826,-2.9988,-3.0109,-3.0222,-3.0336,-3.0379,-3.0398,-3.0398,-3.0436,-3.0439,-3.0439,-3.0439,-3.0482,-3.0543,-3.0576,-3.0614,-3.0672,-3.0724,-3.0765,-3.0801,-3.0801,-3.0801,-3.0801,-3.0801,-3.0806,-3.079,0.0,0.0,0.0,0.0,0.0,0.0,0.0,0.0,0.0,0.0,0.0,0.0,0.0,0.0,0.0,0.0,0.0,0.0,0.0,0.0,-1.7522,-1.7751,-1.8189,-1.8707,-1.9265,-1.9763,-1.998,-1.9933,-1.9417,0.0,0.0,0.0,-1.984,-1.9906,0.0,-2.006,-2.0115,-2.0111,-2.0196,-2.0292,-2.0161,-2.0188,-2.0308,-2.0241,0.0,0.0,0.0,0.0,0.0,0.0,0.0,0.0,-2.5175,0.0,-2.5683,-2.5703,-2.5698,-2.5685,0.0,0.0,0.0,0.0,0.0,0.0,0.0,0.0,0.0,0.0,0.0,-2.9287,-2.982,-2.9905,-2.9839,-2.9662,-2.9608,-2.9608,-2.9608,-2.9608,-2.9608,-2.9608,-2.9626,-2.9626,-2.9626,-2.9626,-2.9644,-2.9644,-2.966,-2.9695,-2.9751,-2.9927,-3.0028,-3.0047,-3.0267,-3.0398,-3.0398,-3.0321,-3.0294,-3.0275,-3.0279,-3.0269,-3.0297,-3.0433,-3.0543,-3.0607,-3.0672,-3.0735,-3.0801,-3.0801,-3.0801,-3.0801,-3.0801,-3.0804,-3.0804,-3.0806,-3.0754,-3.0682,0.0,0.0,0.0,0.0,0.0,0.0,0.0,0.0,0.0,0.0,0.0,0.0,0.0,0.0,0.0,0.0,0.0,0.0,0.0,0.0,-1.8503,-1.8915,-1.9326,-1.9643,-1.9811,-1.9993,-2.0075,-2.007,-1.9878,0.0,0.0,0.0,0.0,-1.9975,0.0,-2.0149,-2.0196,-2.0301,-2.0313,-2.0302,-2.0326,-2.0341,-2.0381,-2.0371,-2.0834,0.0,0.0,0.0,0.0,0.0,0.0,0.0,-2.5369,-2.566,-2.5638,-2.5683,-2.5702,-2.5697,0.0,0.0,0.0,0.0,0.0,0.0,0.0,0.0,0.0,0.0,-2.8874,-2.9983,-3.0104,-3.0003,-2.9888,-2.9839,-2.9698,-2.9608,-2.9608,-2.9608,-2.9608,-2.9608,-2.9734,-2.9839,-2.9839,-2.9965,-3.0071,-3.0071,-3.0118,-3.0161,-3.0182,-3.0222,-3.0248,-3.0311,-3.0367,-3.0398,-3.0398,-2.9717,-2.9371,-2.9371,-2.8801,-2.8581,-2.8662,-2.9982,-3.0614,-3.0677,-3.0758,-3.0796,-3.0801,-3.0801,-3.0801,-3.0801,-3.0795,-3.0797,-3.0798,-3.0801,-3.037,-2.9784,0.0,0.0,0.0,0.0,0.0,0.0,0.0,0.0,0.0,0.0,0.0,0.0,0.0,0.0,0.0,0.0,0.0,0.0,0.0,0.0,0.0,0.0,-2.0052,-2.0213,-2.0184,-2.0224,-2.0237,-2.0208,0.0,0.0,0.0,0.0,0.0,-2.0244,0.0,-2.0376,-2.0355,-2.0413,-2.0405,-2.0355,-2.0386,-2.0666,-2.1076,-2.1075,-2.1637,-2.242,-2.2422,0.0,0.0,0.0,0.0,0.0,0.0,0.0,-2.5609,-2.5631,-2.5642,-2.5644,0.0,0.0,0.0,0.0,0.0,0.0,0.0,0.0,0.0,0.0,-2.8785,-3.026,-3.024,-3.0152,-3.0094,-3.0094,-3.0015,-2.9934,-2.9934,-2.9934,-2.9934,-2.9934,-3.003,-3.0094,-3.0094,-3.018,-3.0253,-3.0253,-3.0273,-3.0311,-3.0304,-3.0336,-3.0348,-3.0398,-3.0398,-3.0398,-3.0398,-2.9948,-2.9751,-2.9766,-2.8991,-2.8469,-2.8227,-2.9104,-2.9526,-2.9549,-2.9584,-2.9591,-2.9591,-2.9597,-2.9601,-2.9602,-2.9609,-2.9609,-2.9609,-2.9608,-2.9291,-2.8877,0.0,0.0,0.0,0.0,0.0,0.0,0.0,0.0,0.0,0.0,0.0,0.0,0.0,0.0,0.0,0.0,0.0,0.0,0.0,0.0,0.0,0.0,-2.0441,-2.051,-2.0408,-2.0388,-2.0351,0.0,0.0,0.0,0.0,0.0,0.0,-2.0525,0.0,-2.0549,-2.05,-2.0509,-2.0572,-2.0647,-2.0655,-2.1208,-2.2018,-2.2018,-2.2578,-2.3315,-2.3318,-2.3358,-2.3536,-2.4257,0.0,0.0,0.0,0.0,-2.5566,-2.5578,-2.5581,-2.5603,0.0,0.0,0.0,0.0,0.0,0.0,0.0,0.0,0.0,-2.6554,-2.8434,-3.0081,-3.0081,-3.0196,-3.0292,-3.0292,-3.0292,-3.0292,-3.0292,-3.0292,-3.0292,-3.0292,-3.0292,-3.0292,-3.0292,-3.0292,-3.0305,-3.0305,-3.0311,-3.0316,-3.0316,-3.0367,-3.0398,-3.0398,-3.0398,-3.0398,-3.0398,-3.0248,-3.0218,-3.0269,-2.9334,-2.8603,-2.8069,-2.7913,-2.803,-2.8303,-2.8303,-2.8305,-2.8307,-2.8297,-2.83,-2.83,-2.8298,-2.8276,-2.8276,-2.8274,-2.8149,-2.7975,0.0,0.0,0.0,0.0,0.0,0.0,0.0,0.0,0.0,0.0,0.0,0.0,0.0,0.0,0.0,0.0,0.0,0.0,-1.9389,0.0,0.0,-2.0423,-2.0448,-2.0414,-2.0409,-2.0346,-2.0303,0.0,0.0,0.0,0.0,0.0,0.0,-2.0583,0.0,0.0,-2.0503,-2.0555,-2.098,-2.1623,-2.1689,-2.2197,-2.2928,-2.293,-2.347,-2.421,-2.4156,-2.4584,-2.5181,-2.5234,-2.5201,0.0,0.0,0.0,-2.5444,-2.5493,-2.5543,0.0,0.0,0.0,0.0,0.0,0.0,0.0,0.0,0.0,0.0,0.0,-2.8056,-2.9236,-2.918,-2.9794,-3.0292,-3.0292,-3.0292,-3.0292,-3.0292,-3.0292,-3.0292,-3.0292,-3.0292,-3.0292,-3.0292,-3.0299,-3.0304,-3.0304,-3.0348,-3.0398,-3.0398,-3.0398,-3.0398,-3.0398,-3.0398,-3.0398,-3.0398,-2.9718,-2.937,-2.936,-2.7918,-2.7199,-2.7153,-2.639,-2.6878,-2.8303,-2.8303,-2.8291,-2.8298,-2.8299,-2.8301,-2.8298,-2.8248,-2.8201,-2.8218,-2.8216,-2.7733,-2.7067,0.0,0.0,0.0,0.0,0.0,0.0,0.0,0.0,0.0,0.0,0.0,0.0,0.0,0.0,0.0,-1.6493,-1.9137,-2.0355,-2.0004,-1.9948,-2.0071,-2.0434,-2.0376,-2.0346,-2.0346,-2.0313,-2.0295,0.0,0.0,0.0,0.0,-2.0412,-2.0472,0.0,0.0,0.0,0.0,0.0,-2.148,-2.1842,-2.2358,-2.3084,-2.3828,-2.3821,-2.4322,-2.5016,-2.4946,-2.5122,-2.5376,-2.5311,-2.5274,-2.5234,-2.5235,0.0,0.0,0.0,0.0,0.0,0.0,0.0,0.0,0.0,0.0,0.0,0.0,0.0,-2.6115,-2.6029,-2.6986,-2.7932,-2.8347,-2.9117,-2.9676,-2.9685,-3.01,-3.0406,-3.0355,-3.0362,-3.0362,-3.0362,-3.0362,-3.0362,-3.0362,-3.0355,-3.0367,-3.0367,-3.0379,-3.0398,-3.0398,-3.0398,-3.0398,-3.0398,-3.0398,-3.0414,-3.0471,-3.0105,-2.9741,-2.9363,-2.8727,-2.7923,-2.6997,-2.6605,-2.6585,-2.6839,-2.6848,-2.6814,-2.6797,-2.6834,-2.6823,-2.6783,-2.6747,-2.6732,-2.6738,-2.6739,-2.6495,-2.6164,0.0,0.0,0.0,0.0,0.0,0.0,0.0,0.0,0.0,0.0,0.0,0.0,0.0,0.0,0.0,0.0,-2.0509,-2.0477,-2.0434,-2.0223,-2.0162,-2.0322,-2.0263,-2.0224,-2.0229,-2.0165,0.0,0.0,0.0,0.0,-2.0229,-2.0324,-2.041,0.0,-2.0495,0.0,0.0,0.0,0.0,0.0,0.0,-2.3945,0.0,0.0,-2.502,-2.5485,-2.5398,-2.533,-2.5241,-2.519,-2.5168,-2.5145,-2.5145,-2.5157,0.0,0.0,0.0,0.0,0.0,0.0,0.0,0.0,0.0,0.0,0.0,0.0,-2.5605,0.0,-2.6046,-2.6669,-2.7276,-2.8222,-2.8922,-2.8913,-2.9464,-2.9863,-2.9823,-2.9811,-2.9789,-2.9789,-2.996,-3.0083,-3.0083,-3.0275,-3.0398,-3.0398,-3.0398,-3.0398,-3.0398,-3.0398,-3.0421,-3.0406,-3.0436,-3.0471,-3.0518,-3.0543,-3.0309,-2.9827,-2.9659,-2.893,-2.7643,-2.7178,-2.6615,-2.599,-2.5761,-2.5644,-2.5597,-2.5659,-2.5648,-2.5591,-2.56,-2.5604,-2.5601,-2.5601,-2.5601,-2.564,0.0,0.0,0.0,0.0,0.0,0.0,0.0,0.0,0.0,0.0,0.0,0.0,0.0,-1.1066,-1.3555,-1.9938,-2.0503,-2.041,-2.0235,-1.9624,-1.9527,-2.0092,-2.0046,0.0,-2.0031,-1.9828,0.0,0.0,0.0,0.0,-2.0012,-2.0203,-2.0349,-2.0409,-2.0467,-2.0504,-2.0562,0.0,0.0,0.0,0.0,0.0,0.0,0.0,0.0,0.0,0.0,0.0,0.0,0.0,0.0,0.0,0.0,-2.5038,-2.5106,0.0,0.0,0.0,0.0,0.0,0.0,0.0,0.0,0.0,0.0,0.0,-2.5679,-2.5605,-2.5636,-2.5675,-2.571,-2.7062,-2.8165,-2.8165,-2.8203,-2.8223,-2.8216,-2.8155,-2.8124,-2.8124,-2.8742,-2.9159,-2.9159,-2.9929,-3.0398,-3.0398,-3.0398,-3.0398,-3.0398,-3.0398,-3.0436,-3.0492,-3.0492,-3.0537,-3.0586,-3.0656,-3.0704,-3.0721,-2.9962,-2.9556,-2.9404,-2.7695,-2.6874,-2.6795,-2.5956,-2.5592,-2.5593,-2.5589,-2.5605,-2.5601,-2.5601,-2.5601,-2.5601,-2.5601,-2.5601,-2.5718,0.0,0.0,0.0,0.0,0.0,0.0,0.0,0.0,0.0,0.0,0.0,0.0,0.0,-1.4257,-1.7509,-2.0012,-2.0316,-2.0336,-2.027,-1.9999,-1.9906,-2.0037,-1.9974,-1.989,-1.9802,-1.9738,0.0,0.0,0.0,-1.9813,-1.9805,-2.0002,-2.0115,-2.0154,-2.0351,-2.076,-2.1396,-2.2264,0.0,0.0,0.0,0.0,0.0,0.0,0.0,0.0,0.0,0.0,0.0,0.0,0.0,0.0,-2.501,-2.5023,-2.5038,-2.5087,0.0,0.0,0.0,0.0,0.0,0.0,0.0,0.0,0.0,-2.5663,-2.5696,-2.5679,-2.5654,-2.5654,-2.5654,-2.658,-2.7328,-2.7337,-2.7804,-2.8143,-2.812,-2.8092,-2.8051,-2.8051,-2.8299,-2.8457,-2.8457,-2.8739,-2.8915,-2.8859,-2.8906,-2.9128,-2.9593,-2.9669,-2.9965,-3.0548,-3.0548,-3.0593,-3.0661,-3.0728,-3.0794,-3.0866,-3.0574,-3.0113,-2.9511,-2.8865,-2.7932,-2.6813,-2.6506,-2.6061,-2.5537,-2.559,-2.557,-2.5536,-2.5544,-2.5538,-2.5529,-2.5529,-2.5468,-2.5534,0.0,0.0,0.0,0.0,0.0,0.0,0.0,0.0,0.0,0.0,0.0,0.0,0.0,0.0,-1.9735,-2.0123,-2.0257,-2.0257,-2.0139,-2.0118,-2.0031,-1.9842,-1.9724,-1.9619,-1.9526,-1.9485,0.0,0.0,0.0,0.0,0.0,-1.9933,-2.0203,-2.0516,-2.0688,-2.1143,0.0,0.0,0.0,-2.4481,0.0,0.0,-2.5625,0.0,0.0,0.0,0.0,0.0,0.0,0.0,0.0,0.0,0.0,-2.501,-2.5023,-2.5038,0.0,0.0,0.0,0.0,0.0,0.0,0.0,0.0,0.0,0.0,-2.5663,-2.5691,-2.5707,-2.5707,-2.5707,-2.6142,-2.65,-2.6493,-2.6981,-2.7359,-2.7303,-2.7287,-2.7251,-2.7251,-2.7505,-2.7667,-2.7667,-2.7938,-2.8073,-2.8039,-2.8066,-2.8306,-2.8803,-2.8868,-2.9292,-3.0179,-3.0242,-3.0424,-3.0732,-3.0794,-3.0864,-3.0907,-3.0875,-3.0547,-2.9934,-2.9606,-2.8653,-2.7226,-2.6896,-2.6282,-2.5505,-2.5551,-2.5536,-2.5492,-2.5441,-2.5426,-2.544,-2.5415,-2.5524,-2.5832,0.0,0.0,0.0,0.0,0.0,0.0,0.0,0.0,0.0,0.0,0.0,0.0,0.0,0.0,0.0,-2.0224,-2.027,-2.0146,-1.9825,-1.9925,-1.985,-1.9513,-1.9298,-1.9206,-1.9201,-1.9061,0.0,0.0,0.0,0.0,0.0,0.0,-2.0613,-2.1496,-2.1554,-2.1635,-2.1877,0.0,-2.4346,-2.4507,0.0,-2.561,-2.5492,0.0,0.0,0.0,-2.5057,-2.4999,0.0,-2.501,0.0,0.0,0.0,-2.501,-2.501,-2.501,0.0,0.0,0.0,0.0,0.0,0.0,0.0,0.0,-2.5579,0.0,-2.5625,-2.5675,-2.5709,-2.5707,-2.5707,-2.5707,-2.5707,-2.5707,-2.5707,-2.5707,-2.5707,-2.5645,-2.5601,-2.5601,-2.6295,-2.6767,-2.6767,-2.7537,-2.8035,-2.8035,-2.8035,-2.8035,-2.8055,-2.81,-2.8481,-2.9342,-2.9481,-2.9943,-3.0762,-3.0827,-3.0868,-3.0909,-3.0839,-3.0795,-3.0767,-2.9859,-2.8942,-2.8049,-2.7129,-2.6257,-2.5511,-2.5511,-2.5511,-2.5484,-2.5339,-2.5293,-2.5283,-2.5243,-2.5757,-2.6619,0.0,0.0,0.0,0.0,0.0,0.0,0.0,0.0,0.0,0.0,0.0,0.0,0.0,0.0,-1.9669,-1.9729,-1.9903,-1.9933,-1.9736,-1.9767,-1.9695,-1.9499,-1.9452,-1.9335,-1.9196,-1.9166,-1.9134,0.0,0.0,0.0,0.0,0.0,0.0,0.0,-2.2649,-2.3275,-2.3388,-2.3925,0.0,0.0,-2.5432,-2.5535,0.0,0.0,0.0,0.0,0.0,-2.5038,-2.5049,0.0,-2.501,-2.501,0.0,0.0,0.0,0.0,0.0,0.0,-2.5118,0.0,0.0,0.0,0.0,0.0,0.0,0.0,-2.5612,-2.5619,-2.5625,-2.5644,-2.5681,-2.5694,-2.5707,-2.5707,-2.5707,-2.5707,-2.5707,-2.5681,-2.5676,-2.5676,-2.5863,-2.5993,-2.5993,-2.6227,-2.6334,-2.6301,-2.635,-2.6626,-2.7201,-2.7878,-2.8366,-2.8608,-2.8641,-2.9075,-2.9915,-2.9955,-3.0253,-3.0838,-3.0814,-3.0752,-3.0656,-3.0387,-2.9446,-2.8008,-2.7752,-2.6826,-2.5511,-2.5511,-2.5448,-2.5339,-2.5302,-2.5265,-2.5301,-2.5902,-2.6228,-2.6549,0.0,0.0,0.0,0.0,0.0,0.0,0.0,0.0,0.0,0.0,0.0,0.0,0.0,0.0,0.0,-1.958,-1.9738,-1.9762,-1.9638,-1.9599,-1.9518,-1.9423,-1.9308,-1.9166,-1.9001,-1.9069,-1.9069,0.0,0.0,0.0,0.0,0.0,0.0,0.0,0.0,0.0,0.0,0.0,0.0,0.0,-2.5554,0.0,0.0,-2.5379,-2.5357,0.0,0.0,0.0,-2.5043,-2.5018,-2.501,0.0,0.0,0.0,0.0,0.0,0.0,0.0,0.0,0.0,0.0,0.0,0.0,0.0,-2.5441,-2.5507,-2.5565,-2.5595,-2.5592,-2.5618,-2.5641,-2.5684,-2.5701,-2.5701,-2.5697,-2.5693,-2.5707,-2.5707,-2.5707,-2.5707,-2.5707,-2.5707,-2.5707,-2.5707,-2.5681,-2.5645,-2.5679,-2.5896,-2.637,-2.6915,-2.7372,-2.7743,-2.7767,-2.8179,-2.9058,-2.9059,-2.9453,-3.0263,-3.0231,-3.0345,-3.0593,-3.0603,-2.9857,-2.8528,-2.8528,-2.7776,-2.6504,-2.6504,-2.6023,-2.5293,-2.5244,-2.5393,-2.5719,-2.6199,-2.6765,-2.7452,0.0,0.0,0.0,0.0,0.0,0.0,0.0,0.0,0.0,0.0,0.0,0.0,0.0,0.0,0.0,0.0,-1.9807,-1.9793,-1.9764,-1.9697,-1.9629,-1.9573,-1.9251,-1.9058,-1.902,-1.9111,-1.9129,0.0,0.0,0.0,0.0,0.0,0.0,0.0,0.0,0.0,0.0,0.0,0.0,-2.5486,-2.5625,-2.5543,0.0,0.0,-2.5214,-2.5082,-2.5018,-2.501,-2.501,-2.501,-2.501,0.0,0.0,0.0,0.0,0.0,-2.501,0.0,0.0,0.0,0.0,0.0,0.0,0.0,-2.5379,-2.546,-2.5512,-2.557,-2.5584,-2.5587,-2.5606,-2.5648,-2.5698,-2.5698,-2.5683,-2.5681,-2.5691,-2.5709,-2.5707,-2.5707,-2.5707,-2.5707,-2.5707,-2.5707,-2.5707,-2.5707,-2.5707,-2.5707,-2.5707,-2.5693,-2.6067,-2.6828,-2.685,-2.7262,-2.8142,-2.8143,-2.8554,-2.9338,-2.9281,-2.9672,-3.0462,-3.046,-3.0017,-2.9273,-2.9273,-2.8743,-2.7873,-2.7862,-2.6958,-2.5543,-2.5421,-2.5806,-2.6447,-2.6479,-2.7407,-2.8679,-1.5829,0.0,0.0,0.0,0.0,0.0,0.0,0.0,0.0,0.0,0.0,0.0,0.0,0.0,0.0,0.0,-2.0507,-2.076,-2.138,-2.1322,-2.1256,-2.1221,-2.0513,-2.0389,-2.1025,-2.0391,-2.0355,0.0,0.0,0.0,0.0,0.0,0.0,0.0,0.0,0.0,0.0,0.0,0.0,-2.5359,-2.5422,0.0,-2.5245,-2.5215,-2.5163,-2.5084,-2.5025,-2.501,-2.501,-2.501,-2.501,-2.501,0.0,0.0,0.0,-2.501,0.0,0.0,0.0,0.0,0.0,0.0,0.0,0.0,-2.5329,-2.5418,-2.5498,-2.5525,-2.5521,-2.5532,-2.5593,-2.5603,-2.562,-2.562,-2.5622,-2.5637,-2.5681,-2.5696,-2.5693,-2.5693,-2.5709,-2.5707,-2.5707,-2.5707,-2.5707,-2.5707,-2.5691,-2.5693,-2.5693,-2.5699,-2.578,-2.5955,-2.5956,-2.6347,-2.7161,-2.718,-2.7588,-2.8368,-2.8351,-2.8773,-2.9541,-2.9543,-2.9409,-2.9147,-2.9147,-2.8613,-2.7723,-2.7669,-2.7459,-2.7154,-2.7115,-2.7195,-2.7338,-2.7972,-2.8312,-2.8535,-1.6622,0.0,0.0,0.0,0.0,0.0,0.0,0.0,0.0,0.0,0.0,0.0,0.0,0.0,0.0,0.0,0.0,0.0,0.0,0.0,0.0,0.0,-2.1171,-2.108,-2.1385,-2.1061,0.0,0.0,0.0,0.0,0.0,0.0,0.0,0.0,0.0,0.0,0.0,0.0,-2.5233,-2.522,-2.5339,0.0,-2.5205,-2.5163,-2.5107,-2.5043,-2.4999,-2.4936,-2.4846,-2.4846,-2.4846,0.0,0.0,-2.4922,-2.501,0.0,-2.501,-2.501,0.0,0.0,0.0,-2.5057,0.0,0.0,0.0,-2.5303,-2.5393,-2.5398,-2.5444,-2.5506,-2.5544,-2.5556,-2.5546,-2.5546,-2.5586,-2.5609,-2.5652,-2.5683,-2.5703,-2.5703,-2.5697,-2.5691,-2.5694,-2.5691,-2.5707,-2.5691,-2.5693,-2.5694,-2.5697,-2.5701,-2.5702,-2.5702,-2.5703,-2.5897,-2.6293,-2.6293,-2.6692,-2.7446,-2.7446,-2.7872,-2.8644,-2.8644,-2.882,-2.9107,-2.9107,-2.9017,-2.8886,-2.8864,-2.8749,-2.8531,-2.7808,-2.777,-2.8127,-2.8428,-2.8739,-2.9045,-1.7248,0.0,0.0,0.0,0.0,0.0,0.0,0.0,0.0,0.0,0.0,0.0,0.0,0.0,0.0,0.0,0.0,0.0,0.0,0.0,0.0,0.0,-2.1823,-2.1728,-2.1718,-2.173,0.0,0.0,0.0,0.0,0.0,0.0,0.0,0.0,0.0,0.0,0.0,0.0,0.0,-2.5137,0.0,-2.5264,-2.5163,-2.5118,-2.5043,-2.4999,-2.4991,-2.4908,-2.4753,-2.4753,-2.4723,-2.4707,-2.4738,-2.4817,0.0,0.0,0.0,0.0,0.0,0.0,0.0,0.0,0.0,-2.5101,0.0,0.0,0.0,-2.5274,-2.5387,-2.5456,-2.5456,-2.5478,-2.5505,-2.5505,-2.5546,-2.5576,-2.5576,-2.5626,-2.5672,-2.5675,-2.5683,-2.5699,-2.5702,-2.5697,-2.5691,-2.5694,-2.5696,-2.5697,-2.57,-2.5702,-2.5703,-2.5703,-2.5703,-2.5699,-2.5681,-2.5676,-2.5968,-2.6547,-2.6547,-2.6965,-2.7755,-2.7746,-2.8116,-2.8844,-2.8975,-2.9315,-2.9821,-2.9927,-2.9803,-2.9439,-2.8334,-2.8288,-2.8789,-2.8632,-2.8952,-2.9455,-1.7384,0.0,0.0,0.0,0.0,0.0,0.0,0.0,0.0,0.0,0.0,0.0,0.0,0.0,0.0,0.0,0.0,0.0,-2.4145,0.0,0.0,0.0,0.0,0.0,-2.3585,0.0,0.0,0.0,0.0,0.0,0.0,0.0,0.0,0.0,-2.4355,0.0,0.0,0.0,-2.5144,0.0,-2.5082,-2.5076,0.0,-2.5032,-2.5012,-2.501,-2.501,-2.4996,-2.4983,0.0,-2.4846,-2.4723,0.0,-2.4738,-2.4543,-2.4908,0.0,0.0,0.0,0.0,0.0,0.0,-2.5057,0.0,0.0,0.0,-2.5203,-2.5203,0.0,-2.533,-2.533,0.0,0.0,-2.5507,-2.5515,-2.5515,-2.5515,-2.5525,-2.5532,-2.5597,-2.5652,-2.5702,-2.5702,-2.5703,-2.5699,-2.5699,-2.5701,-2.5702,-2.5702,-2.5703,-2.5703,-2.5703,-2.5698,-2.5661,-2.5609,-2.5547,-2.5564,-2.5654,-2.5654,-2.608,-2.6857,-2.6785,-2.715,-2.7877,-2.8488,-2.8742,-2.8806,-2.9289,-2.9454,-2.9415,-2.9383,-2.9308,-2.9225,-2.9142,-2.9092,-2.903,-1.7849,0.0,0.0,0.0,0.0,0.0,0.0,0.0,0.0,0.0,0.0,0.0,0.0,0.0,0.0,0.0,0.0,-2.3969,0.0,0.0,0.0,0.0,0.0,0.0,0.0,0.0,0.0,0.0,-2.3795,0.0,0.0,0.0,0.0,0.0,-2.4425,0.0,-2.4673,0.0,-2.5051,0.0,0.0,0.0,0.0,-2.5018,-2.4991,-2.501,-2.501,-2.4922,-2.4832,-2.4832,-2.4689,0.0,0.0,0.0,0.0,0.0,0.0,0.0,0.0,0.0,0.0,0.0,0.0,0.0,-2.5044,0.0,-2.5153,0.0,0.0,0.0,0.0,0.0,0.0,0.0,-2.5448,-2.5511,-2.5511,-2.5503,-2.5512,-2.5542,-2.5597,-2.5642,-2.5646,-2.5631,-2.5633,-2.5633,-2.5631,-2.5648,-2.5646,-2.5644,-2.5642,-2.5642,-2.5632,-2.5605,-2.5542,-2.5515,-2.5506,-2.5511,-2.5511,-2.5642,-2.5897,-2.5851,-2.6214,-2.6867,-2.7623,-2.8086,-2.8372,-2.9098,-2.923,-2.8997,-2.9067,-2.9129,-2.9169,-2.8975,-2.886,-2.8785,0.0,0.0,0.0,0.0,0.0,0.0,0.0,0.0,0.0,0.0,0.0,0.0,-2.4039,-2.419,0.0,0.0,-2.4284,-2.4266,0.0,0.0,-2.3958,-2.3816,-2.3795,0.0,0.0,0.0,0.0,0.0,0.0,0.0,0.0,0.0,0.0,0.0,0.0,-2.4545,-2.4578,0.0,-2.4879,-2.4934,-2.4926,-2.494,-2.4999,-2.4991,-2.501,-2.501,-2.501,-2.4861,-2.4707,-2.4707,-2.4578,-2.4442,-2.4642,-2.4657,-2.4657,0.0,0.0,0.0,-2.4996,0.0,0.0,0.0,0.0,0.0,0.0,0.0,0.0,0.0,-2.5118,0.0,0.0,0.0,0.0,0.0,0.0,-2.5415,-2.5415,-2.5432,-2.5453,-2.5506,-2.5537,-2.5582,-2.5603,-2.5597,-2.559,-2.559,-2.559,-2.5609,-2.5601,-2.5601,-2.5601,-2.5601,-2.5589,-2.5547,-2.5504,-2.5505,-2.5505,-2.5511,-2.5456,-2.5376,-2.5274,-2.5235,-2.5432,-2.5863,-2.6801,-2.7395,-2.7789,-2.8762,-2.8948,-2.8646,-2.8572,-2.867,-2.8832,-2.8646,-2.8597,-2.859,0.0,-2.0391,0.0,0.0,0.0,0.0,0.0,0.0,0.0,0.0,0.0,0.0,0.0,0.0,0.0,0.0,0.0,-2.4424,-2.421,0.0,-2.4019,-2.3816,-2.3795,-2.3795,0.0,0.0,0.0,0.0,0.0,0.0,0.0,0.0,0.0,0.0,0.0,-2.4154,-2.4229,-2.4355,-2.4572,-2.4804,-2.4734,-2.4832,-2.501,0.0,-2.501,-2.501,-2.501,-2.4861,-2.4707,-2.4707,-2.4578,-2.4442,-2.4642,-2.4578,-2.4493,0.0,0.0,0.0,-2.495,-2.501,-2.501,-2.501,-2.501,-2.501,-2.501,0.0,-2.501,0.0,0.0,0.0,0.0,0.0,0.0,0.0,0.0,0.0,0.0,-2.5274,-2.5348,-2.5484,-2.5506,-2.5526,-2.5598,-2.5601,-2.5601,-2.5601,-2.5601,-2.5601,-2.5601,-2.5601,-2.5601,-2.5601,-2.5537,-2.5504,-2.5504,-2.549,-2.5492,-2.5511,-2.5367,-2.5274,-2.5205,-2.5075,-2.4947,-2.4927,-2.619,-2.6725,-2.6833,-2.8046,-2.8518,-2.8492,-2.8273,-2.8209,-2.8237,-2.83,-2.8353,-2.838,0.0,0.0,0.0,0.0,0.0,0.0,0.0,-2.3517,0.0,0.0,0.0,0.0,0.0,-2.4096,-2.4135,0.0,0.0,-2.4154,-2.4135,-2.4019,0.0,0.0,0.0,-2.3795,0.0,0.0,0.0,0.0,0.0,0.0,0.0,0.0,0.0,0.0,0.0,-2.4116,0.0,0.0,0.0,0.0,0.0,-2.4626,-2.4817,-2.495,-2.4922,-2.4802,-2.4802,-2.4673,-2.451,-2.451,-2.4355,-2.4229,-2.4442,-2.4441,-2.4441,-2.4723,-2.4846,-2.4922,-2.4977,-2.501,-2.501,-2.501,-2.501,-2.4964,-2.4889,-2.495,-2.4964,0.0,0.0,0.0,0.0,0.0,0.0,0.0,0.0,0.0,0.0,-2.5192,-2.5244,-2.5293,-2.5421,-2.5505,-2.5525,-2.5531,-2.5531,-2.5531,-2.5531,-2.5531,-2.5531,-2.5531,-2.5531,-2.5531,-2.5505,-2.549,-2.549,-2.5507,-2.5448,-2.5367,-2.533,-2.5215,-2.5075,-2.5019,-2.4818,-2.4564,-2.6042,-2.6562,-2.6427,-2.7875,-2.8432,-2.8273,-2.8237,-2.8182,-2.8182,-2.7979,-2.7904,-2.7904,-2.323,0.0,0.0,0.0,0.0,0.0,0.0,0.0,0.0,0.0,-2.4016,0.0,-2.3976,0.0,-2.4016,0.0,-2.3998,-2.3978,-2.3999,-2.3919,0.0,-2.3795,-2.3795,0.0,0.0,0.0,0.0,0.0,0.0,-2.3795,0.0,0.0,0.0,0.0,0.0,0.0,-2.4001,0.0,-2.4229,0.0,0.0,-2.4476,0.0,-2.4738,-2.4753,-2.4692,-2.4626,-2.4459,-2.4284,-2.4284,-2.4211,-2.4117,-2.4247,-2.4337,-2.4442,-2.4561,-2.4738,-2.4889,-2.4889,-2.495,-2.4996,-2.495,-2.4936,-2.4903,-2.4827,-2.4861,-2.4875,-2.4808,-2.4827,0.0,0.0,0.0,0.0,0.0,0.0,0.0,0.0,-2.508,-2.5145,-2.516,-2.5322,-2.544,-2.544,-2.5476,-2.5511,-2.5511,-2.5511,-2.5511,-2.5511,-2.5511,-2.5511,-2.5511,-2.5511,-2.5511,-2.5511,-2.5432,-2.535,-2.5265,-2.5175,-2.5041,-2.4893,-2.479,-2.457,-2.4358,-2.5825,-2.6344,-2.6231,-2.7759,-2.8318,-2.8182,-2.8182,-2.8126,-2.7996,-2.7789,-2.7624,-2.7491,0.0,0.0,0.0,0.0,-2.3896,0.0,0.0,0.0,-2.4036,0.0,-2.3974,-2.403,-2.3971,-2.4046,-2.4085,-2.4024,-2.4005,-2.3985,-2.3904,-2.3868,0.0,0.0,-2.3813,-2.3795,-2.3795,0.0,0.0,0.0,0.0,0.0,0.0,0.0,0.0,0.0,-2.3795,0.0,-2.3795,-2.3795,-2.3919,-2.4098,-2.4301,-2.4372,-2.4389,-2.4372,-2.4493,-2.466,-2.4441,-2.4247,-2.4097,-2.4097,-2.4097,-2.4097,-2.4097,-2.4229,-2.4389,-2.4389,-2.4526,-2.4692,-2.4692,-2.4832,-2.495,-2.4813,-2.4779,-2.4779,-2.4779,-2.4719,-2.4723,-2.4783,-2.4692,-2.4547,-2.4353,0.0,0.0,0.0,0.0,0.0,0.0,0.0,-2.4987,-2.5049,-2.5194,0.0,0.0,-2.5412,-2.5484,-2.5484,-2.5511,-2.5511,-2.5511,-2.5511,-2.5511,-2.5511,-2.5511,-2.5511,-2.5484,-2.5293,-2.5205,-2.5194,-2.4924,-2.4766,-2.4682,-2.4422,-2.4284,-2.4301,-2.5556,-2.6117,-2.6261,-2.762,-2.8182,-2.8182,-2.8182,-2.795,-2.7654,-2.7654,-2.743,-2.7149,-2.3518,-2.3624,-2.3732,0.0,-2.3816,-2.3837,0.0,0.0,0.0,0.0,-2.4444,-2.4826,-2.4787,-2.531,-2.5633,-2.5611,-2.5611,0.0,0.0,0.0,0.0,-2.4683,-2.4121,-2.3795,-2.3795,-2.3795,0.0,-2.3795,0.0,0.0,-2.3795,0.0,0.0,0.0,0.0,0.0,-2.3795,-2.3795,-2.3837,-2.3878,-2.3921,-2.404,-2.4155,-2.4001,-2.4079,-2.4248,-2.4211,-2.404,-2.3878,-2.3878,-2.3878,-2.3878,-2.3878,-2.4019,-2.4174,-2.4174,-2.4319,-2.4476,-2.4476,-2.451,-2.4524,-2.4439,-2.4422,-2.4422,-2.4422,-2.4474,-2.4561,-2.4629,-2.466,-2.466,-2.461,-2.4596,-2.458,0.0,0.0,0.0,0.0,0.0,0.0,-2.4636,-2.4771,-2.4955,-2.5194,-2.5303,-2.5339,-2.5339,-2.5448,-2.5511,-2.5511,-2.5511,-2.5511,-2.5511,-2.5511,-2.5448,-2.5348,-2.5245,-2.5152,-2.505,-2.4877,-2.4659,-2.4405,-2.4317,-2.4448,-2.4777,-2.5695,-2.6357,-2.6841,-2.7799,-2.8053,-2.7836,-2.7836,-2.7474,-2.6939,-2.6939,-2.6725,-2.6468,-2.3685,0.0,0.0,-2.3795,0.0,0.0,-2.3795,-2.3876,0.0,-2.4348,-2.478,0.0,-2.5542,-2.5955,-2.6204,-2.6204,-2.6204,0.0,-2.6204,0.0,0.0,-2.5027,-2.4574,-2.4157,-2.3795,-2.3795,0.0,-2.3685,0.0,0.0,-2.3495,0.0,0.0,0.0,0.0,-2.3795,0.0,-2.3795,-2.3795,-2.3795,-2.3795,-2.3878,0.0,-2.3837,-2.3878,-2.3979,-2.3979,-2.3899,-2.3795,-2.3795,-2.3795,-2.3795,-2.3795,-2.3878,-2.3979,-2.3978,-2.4097,-2.4229,-2.4229,-2.4265,-2.4301,-2.4229,-2.4211,-2.4211,-2.4211,-2.4248,-2.4302,-2.4374,-2.4392,-2.4355,-2.4284,-2.4302,-2.4339,0.0,0.0,0.0,0.0,0.0,0.0,0.0,-2.442,-2.4561,-2.4738,-2.5083,-2.5274,-2.5215,-2.534,-2.5395,-2.5369,-2.536,-2.536,-2.536,-2.5341,-2.5293,-2.5215,-2.5065,-2.4917,-2.479,-2.4617,-2.4405,-2.4174,-2.408,-2.4358,-2.4928,-2.565,-2.6365,-2.7049,-2.7715,-2.7864,-2.7672,-2.7382,-2.7036,-2.6657,-2.6315,-2.6189,-2.6168,-2.3531,0.0,0.0,0.0,0.0,0.0,0.0,-2.4,0.0,-2.5063,0.0,-2.5588,-2.6276,-2.6457,-2.6512,-2.6512,0.0,-2.6512,-2.6512,-2.6421,-2.6059,-2.5335,-2.5117,-2.4664,-2.3958,-2.385,-2.371,0.0,0.0,0.0,0.0,0.0,0.0,0.0,0.0,0.0,0.0,-2.3795,-2.3795,-2.3795,-2.3795,-2.3795,-2.3795,-2.3795,-2.3795,-2.3795,-2.3795,-2.3795,-2.3795,-2.3795,-2.3795,-2.3795,-2.3795,-2.3795,-2.3795,-2.3807,-2.3876,-2.3961,-2.3958,-2.404,-2.4118,-2.404,-2.4039,-2.4039,-2.4058,-2.3999,-2.3978,-2.4058,-2.4037,-2.3955,-2.3774,-2.3896,-2.3996,0.0,0.0,0.0,0.0,0.0,0.0,0.0,0.0,0.0,-2.4137,-2.4769,-2.5124,-2.5018,-2.5124,-2.5186,-2.5171,-2.5141,-2.5141,-2.5182,-2.5126,-2.5072,-2.5061,-2.4795,-2.462,-2.4472,-2.4284,-2.4096,-2.3955,-2.3883,-2.4284,-2.5049,-2.5647,-2.6356,-2.7112,-2.7478,-2.7612,-2.7504,-2.6791,-2.6539,-2.647,-2.5689,-2.5684,-2.597,0.0,0.0,0.0,0.0,0.0,-2.4791,-2.4791,-2.4791,-2.5081,-2.5896,-2.6584,-2.7037,-2.7182,-2.7773,-2.8196,-2.8196,-2.8196,0.0,0.0,0.0,0.0,-2.7001,-2.5715,-2.4936,-2.4791,-2.4139,-2.3774,0.0,0.0,0.0,0.0,0.0,0.0,0.0,0.0,0.0,-2.3553,-2.3732,0.0,-2.3795,-2.3795,-2.3795,-2.3795,-2.3795,-2.3795,-2.3795,-2.3795,-2.3795,-2.3795,-2.3795,-2.3795,-2.3795,-2.3795,-2.3795,-2.3795,-2.3807,-2.3807,-2.3828,-2.3765,-2.3768,-2.3768,-2.37,-2.3678,-2.3703,-2.3774,-2.3756,-2.3795,-2.3978,-2.4016,-2.3996,-2.3937,-2.3976,-2.3996,-2.3996,-2.3996,0.0,0.0,0.0,0.0,0.0,0.0,-2.3901,-2.3801,-2.4244,-2.4545,-2.4514,-2.4599,-2.4742,-2.4937,-2.4847,-2.4886,-2.5107,-2.5056,-2.4962,-2.4845,-2.4629,-2.4472,-2.4317,-2.4135,-2.3937,-2.3771,-2.4396,-2.5039,-2.5665,-2.6144,-2.6827,-2.7566,-2.7361,-2.71,-2.6808,-2.6016,-2.5726,-2.5652,-2.516,-2.5059,-2.5114,0.0,0.0,0.0,0.0,0.0,0.0,-2.6186,-2.624,-2.6385,-2.6783,-2.7164,-2.7556,-2.7997,-2.8352,-2.8587,-2.8587,-2.8587,-2.8587,-2.8587,-2.8225,-2.7852,-2.7435,-2.6675,-2.586,-2.5027,-2.461,-2.4169,-2.3624,0.0,0.0,0.0,0.0,0.0,0.0,0.0,-2.3664,0.0,0.0,-2.3795,-2.3795,-2.3795,-2.3795,-2.3795,-2.3795,-2.3795,-2.3795,-2.3795,-2.3795,-2.3795,-2.3795,-2.3813,-2.381,-2.3795,-2.3792,-2.3747,-2.3743,-2.3718,-2.3674,-2.3611,-2.3607,-2.3607,-2.3562,-2.3539,-2.3562,-2.3594,-2.3616,-2.362,-2.3725,-2.3725,-2.3725,-2.3725,-2.3725,-2.3725,-2.3725,-2.3725,-2.3725,0.0,0.0,-2.3616,0.0,0.0,0.0,0.0,-2.3798,-2.4042,-2.4335,-2.4398,-2.4545,-2.4785,-2.4659,-2.4689,-2.4888,-2.4723,-2.4598,-2.4551,-2.4336,-2.4174,-2.4002,-2.3881,-2.3689,-2.3412,-2.4195,-2.4827,-2.5374,-2.5976,-2.67,-2.7413,-2.7085,-2.6573,-2.5997,-2.5594,-2.5313,-2.5028,-2.4623,-2.4477,-2.4502,0.0,-2.4806,0.0,0.0,-2.6207,-2.6675,-2.7308,-2.7707,-2.7852,-2.7689,-2.7671,-2.7881,-2.8515,-2.8587,-2.8587,-2.8587,-2.8587,-2.8587,-2.8587,-2.8587,-2.8316,-2.7664,-2.7508,-2.6819,-2.5534,-2.5172,-2.4613,0.0,-2.3598,-2.3394,-2.3206,0.0,0.0,0.0,0.0,-2.3774,-2.3732,-2.3774,-2.3795,-2.3795,-2.3795,-2.3795,-2.3795,-2.3795,-2.3795,-2.3795,-2.3795,-2.3795,-2.3795,-2.3795,-2.3792,-2.3807,-2.3792,-2.3768,-2.3721,-2.3678,-2.3652,-2.3603,-2.3517,-2.3494,-2.3494,-2.3494,-2.3494,-2.3494,-2.3494,-2.3494,-2.3494,-2.3494,-2.3494,-2.3494,-2.3494,-2.3494,-2.3494,-2.3494,-2.3494,-2.3494,-2.3494,0.0,0.0,0.0,0.0,0.0,-2.3407,-2.3471,-2.3642,-2.3967,-2.4174,-2.4335,-2.451,-2.4425,-2.4461,-2.4578,-2.4355,-2.4229,-2.4229,-2.4039,-2.3876,-2.3692,-2.3606,-2.3489,-2.334,-2.3885,-2.4406,-2.4925,-2.545,-2.599,-2.6478,-2.6134,-2.557,-2.4933,-2.4766,-2.4444,-2.4091,-2.3677,-2.3527,-2.3542,0.0,0.0,0.0,0.0,-2.6796,-2.7327,-2.7399,-2.863,-2.93,-2.8569,-2.8478,-2.8515,-2.8587,-2.8587,-2.8587,-2.8587,-2.8587,-2.8587,-2.8587,-2.8587,-2.8569,-2.8478,-2.7797,-2.7345,-2.7182,-2.5751,-2.4954,-2.486,-2.3957,-2.3481,-2.3463,0.0,0.0,-2.3504,-2.371,-2.3689,-2.3531,-2.371,-2.3795,-2.3795,-2.3795,-2.3795,-2.3795,-2.3795,-2.3795,-2.3795,-2.3795,-2.3795,-2.3795,-2.3795,-2.3795,-2.3813,-2.3807,-2.3804,-2.3761,-2.3652,-2.3607,-2.3603,-2.3517,-2.3494,-2.3494,-2.3494,-2.3494,-2.3494,-2.3494,-2.3494,-2.3494,-2.3494,-2.3494,-2.3494,-2.3494,-2.3494,-2.3494,-2.3494,-2.3494,-2.3494,-2.3494,-2.3494,-2.3494,-2.3494,0.0,0.0,-2.3168,-2.336,-2.3371,-2.3052,-2.3504,-2.3819,-2.3978,-2.4018,-2.4077,-2.4136,-2.4077,-2.4036,-2.4036,-2.3837,-2.3714,-2.3692,-2.3348,-2.3495,-2.4086,-2.3927,-2.4223,-2.4907,-2.4722,-2.45,-2.4248,-2.3798,-2.3592,-2.3417,-2.2652,-2.2286,-2.2208,-2.1804,-2.1643,-2.1732,-2.6347,-2.6565,-2.6817,-2.7259,-2.8167,-2.883,-2.883,-2.9789,-3.0387,-3.0079,-3.0043,-3.0043,-3.0043,-2.9608,-2.9318,-2.9318,-2.8884,-2.8587,-2.8587,-2.8587,-2.8587,-2.8587,-2.8279,-2.7881,-2.7417,-2.6783,-2.5968,-2.5009,-2.4441,-2.3932,-2.3504,-2.3504,-2.3553,-2.3667,-2.3753,-2.3753,-2.3685,-2.3774,-2.3795,-2.3795,-2.3795,-2.3795,-2.3795,-2.3795,-2.3795,-2.3795,-2.381,-2.3789,-2.3789,-2.3747,-2.3747,-2.3747,-2.3804,-2.3718,-2.3629,-2.3607,-2.3562,-2.3539,-2.3517,-2.3494,-2.3494,-2.3494,-2.3494,-2.3494,-2.3494,-2.3494,-2.3494,-2.3494,-2.3494,-2.3494,-2.3494,-2.3494,-2.3494,-2.3494,-2.3494,-2.3494,-2.3494,-2.3494,0.0,-2.3494,0.0,-2.3383,-2.3144,-2.3336,-2.3295,-2.2824,-2.3283,-2.362,-2.3714,-2.3795,-2.3878,-2.4037,-2.3917,-2.3735,-2.3566,-2.3422,-2.3259,-2.3098,-2.3328,-2.33,-2.3045,-2.3813,-2.4232,-2.4351,-2.4257,-2.3951,-2.3585,-2.3398,-2.2945,-2.2359,-2.2034,-2.1738,-2.1535,-2.1801,-2.1865,-2.1968,-2.7303,-2.7825,-2.8335,-2.8847,-2.9629,-3.0133,-3.0133,-3.0822,-3.1347,-3.1347,-3.1546,-3.1528,-3.1039,-3.0477,-3.0133,-3.0133,-2.9409,-2.8956,-2.8956,-2.8739,-2.8587,-2.8587,-2.8587,-2.8316,-2.7779,-2.7526,-2.6856,-2.5715,-2.5283,-2.4669,-2.3957,-2.3705,-2.3646,-2.3795,-2.3795,-2.3795,-2.3795,-2.3795,-2.3795,-2.3795,-2.3795,-2.3795,-2.3795,-2.3813,-2.3732,-2.3649,-2.366,-2.3594,-2.3508,-2.3445,-2.3422,-2.3463,-2.3678,-2.3652,-2.3539,-2.3562,-2.3539,-2.3494,-2.3494,-2.3494,-2.3494,-2.3494,-2.3448,-2.3383,-2.3383,-2.3336,-2.3247,-2.3247,-2.3247,-2.3247,-2.3247,-2.3247,-2.3247,-2.3247,-2.3247,-2.3247,-2.3247,-2.3247,0.0,-2.3247,-2.3247,-2.3151,-2.2859,-2.3102,-2.3035,-2.2473,-2.296,-2.3277,-2.3341,-2.35,-2.3588,-2.3624,-2.3495,-2.3318,-2.3129,-2.3017,-2.2884,-2.2703,-2.3069,-2.2999,-2.2564,-2.3526,-2.3679,-2.3194,-2.3161,-2.2916,-2.2479,-2.234,-2.1828,-2.1205,-2.1261,-2.1129,-2.0936,-2.1593,-2.1841,-2.1929,-2.9319,-3.0178,-3.0948,-3.0948,-3.0966,-3.0985,-3.0985,-3.1673,-3.218,-3.218,-3.2886,-3.2777,-3.1166,-3.0985,-3.0985,-3.0985,-3.0242,-2.9771,-2.9771,-2.9047,-2.8587,-2.8587,-2.8587,-2.8587,-2.8587,-2.7815,-2.7399,-2.7381,-2.6584,-2.5769,-2.4972,-2.4176,-2.3795,-2.3795,-2.3795,-2.3795,-2.3795,-2.3795,-2.3795,-2.3795,-2.3795,-2.3795,-2.3795,-2.3807,-2.358,-2.33,-2.3307,-2.308,-2.2822,-2.2822,-2.2772,-2.2815,-2.3412,-2.3585,-2.3603,-2.3517,-2.3494,-2.3494,-2.3494,-2.3494,-2.3494,-2.3494,-2.3289,-2.3102,-2.3102,-2.2884,-2.2703,-2.2703,-2.2703,-2.2703,-2.2703,-2.2703,-2.2703,-2.2703,-2.2703,-2.2703,-2.2703,-2.2703,-2.2703,-2.2703,-2.2703,-2.2581,-2.2248,-2.251,-2.2446,-2.184,-2.2364,-2.2703,-2.2703,-2.3105,-2.3111,-2.273,-2.2712,-2.2703,-2.2703,-2.2703,-2.2686,-2.2703,-2.2375,-2.2581,-2.3279,-2.3029,-2.2324,-2.1341,-2.1182,-2.0942,-2.0579,-2.005,-1.9854,-1.9843,-2.0035,-2.0117,-2.019,-2.0785,-2.1003,-2.1048,-2.9739,-3.0213,-3.0664,-3.0664,-3.1297,-3.1818,-3.1818,-3.2506,-3.3013,-3.3013,-3.3248,-3.3194,-3.2687,-3.2144,-3.1818,-3.1818,-3.1075,-3.0604,-3.0604,-2.9862,-2.9409,-2.9409,-2.8902,-2.8587,-2.8587,-2.8334,-2.7936,-2.7417,-2.6957,-2.6325,-2.5554,-2.5084,-2.4935,-2.504,-2.504,-2.5015,-2.4967,-2.4967,-2.5106,-2.5306,-2.5306,-2.5306,-2.5306,-2.5301,-2.5099,-2.4799,-2.4759,-2.4182,-2.3475,-2.3421,-2.311,-2.2721,-2.2935,-2.3126,-2.3289,-2.3453,-2.3494,-2.3494,-2.3494,-2.3494,-2.3494,-2.3494,-2.3289,-2.3095,-2.3095,-2.2884,-2.2703,-2.2703,-2.2703,-2.2703,-2.2703,-2.2703,-2.2703,-2.2703,-2.2703,-2.2703,-2.2703,-2.2703,-2.2703,-2.2703,-2.2703,-2.2581,-2.222,-2.251,-2.2446,-2.1857,-2.2364,-2.2607,-2.2375,-2.2695,-2.2824,-2.2686,-2.2703,-2.2581,-2.2375,-2.2375,-2.2265,-2.2101,-2.2488,-2.2673,-2.2667,-2.197,-2.1344,-2.0828,-2.0731,-2.0465,-2.0035,-1.9859,-1.9893,-2.0015,-2.0094,-2.0163,-2.0302,-2.0926,-2.092,-2.0647,-3.0174,-3.0733,-3.1186,-3.1186,-3.1747,-3.224,-3.224,-3.2652,-3.3037,-3.3147,-3.3178,-3.3208,-3.3364,-3.2805,-3.2498,-3.2651,-3.1908,-3.1437,-3.1437,-3.0695,-3.0071,-2.9638,-2.9248,-2.8851,-2.8422,-2.8422,-2.8188,-2.7666,-2.7059,-2.6463,-2.5932,-2.5462,-2.5295,-2.5367,-2.5367,-2.5358,-2.5304,-2.5304,-2.5438,-2.563,-2.5758,-2.5808,-2.5825,-2.5918,-2.5707,-2.5304,-2.524,-2.462,-2.3879,-2.382,-2.3532,-2.3215,-2.33,-2.3467,-2.3553,-2.34,-2.3336,-2.3336,-2.3336,-2.3289,-2.3199,-2.3199,-2.2985,-2.2756,-2.2634,-2.2473,-2.2364,-2.2364,-2.2364,-2.2364,-2.2364,-2.2364,-2.2364,-2.2364,-2.2364,-2.2364,-2.2364,-2.2364,-2.2364,-2.2364,-2.2364,-2.2281,-2.2068,-2.2254,-2.2215,-2.1827,-2.2141,-2.2281,-2.2068,-2.2347,-2.2473,-2.2364,-2.2364,-2.2254,-2.2039,-2.2039,-2.1969,-2.1797,-2.2092,-2.21,-2.1859,-2.1183,-2.0698,-2.033,-2.0277,-2.0,-1.9654,-1.9834,-1.9979,-2.0146,-2.0625,-2.088,-2.0983,-2.1414,-2.1338,-2.1068,-3.068,-3.1498,-3.2283,-3.2317,-3.2317,-3.2351,-3.2385,-3.2385,-3.2486,-3.2795,-3.2827,-3.2988,-3.3364,-3.3068,-3.2988,-3.3364,-3.2676,-3.2213,-3.2213,-3.1454,-3.0512,-2.9405,-2.9584,-2.9215,-2.8093,-2.8075,-2.8075,-2.8057,-2.6922,-2.6312,-2.6271,-2.5484,-2.5126,-2.5126,-2.5126,-2.5126,-2.5126,-2.5126,-2.5126,-2.5184,-2.5489,-2.5623,-2.5667,-2.591,-2.5632,-2.5098,-2.5045,-2.4625,-2.4083,-2.4083,-2.405,-2.4049,-2.4303,-2.4397,-2.4215,-2.338,-2.314,-2.3122,-2.307,-2.2884,-2.2703,-2.2703,-2.2456,-2.2124,-2.1869,-2.1797,-2.1797,-2.1797,-2.1797,-2.1797,-2.1797,-2.1797,-2.1797,-2.1797,-2.1797,-2.1797,-2.1797,-2.1797,-2.1797,-2.1797,-2.1797,-2.1797,-2.1797,-2.1797,-2.1797,-2.1797,-2.1797,-2.1797,-2.1781,-2.201,-2.2039,-2.1811,-2.1797,-2.1797,-2.1797,-2.1797,-2.1781,-2.1751,-2.1275,-2.1007,-2.0926,-2.0614,-2.0227,-1.9864,-1.9773,-1.9581,-1.9382,-1.988,-2.0146,-2.0349,-2.1483,-2.1975,-2.1945,-2.2066,-2.2077,-2.1888,-3.1057,-3.1462,-3.1932,-3.2248,-3.2502,-3.2781,-3.3086,-3.3147,-3.3165,-3.3256,-3.3256,-3.3286,-3.3393,-3.3334,-3.3286,-3.3393,-3.2702,-3.2287,-3.2287,-3.1529,-3.072,-2.9863,-2.9324,-2.8653,-2.7818,-2.78,-2.7736,-2.7643,-2.7047,-2.6885,-2.7118,-2.6664,-2.6439,-2.636,-2.636,-2.6345,-2.6313,-2.6313,-2.6441,-2.6692,-2.6784,-2.6814,-2.6814,-2.6874,-2.6661,-2.6313,-2.6298,-2.5647,-2.4845,-2.4845,-2.4481,-2.4,-2.4081,-2.4225,-2.4286,-2.3708,-2.3542,-2.3465,-2.292,-2.2756,-2.2703,-2.2703,-2.2456,-2.2124,-2.1869,-2.1797,-2.1797,-2.1797,-2.1797,-2.1797,-2.1797,-2.1797,-2.1797,-2.1797,-2.1797,-2.1797,-2.1797,-2.1797,-2.1797,-2.1797,-2.1797,-2.1797,-2.1797,-2.1797,-2.1797,-2.1797,-2.1797,-2.1797,-2.1724,-2.1781,-2.1811,-2.1797,-2.1738,-2.1738,-2.1797,-2.1738,-2.157,-2.1275,-2.0829,-2.0483,-2.0177,-2.0019,-1.9752,-1.942,-1.931,-1.9491,-1.9909,-2.0045,-2.0669,-2.1526,-2.144,-2.1465,-2.1525,-2.1148,-2.0696,-2.0346,-3.119,-3.1368,-3.1524,-3.1768,-3.1932,-3.2144,-3.2369,-3.2403,-3.2504,-3.2848,-3.2912,-3.3024,-3.3364,-3.3086,-3.2975,-3.3099,-3.2943,-3.2798,-3.2798,-3.2375,-3.1742,-3.0787,-3.0296,-2.9444,-2.8137,-2.7917,-2.7555,-2.6952,-2.674,-2.6691,-2.6841,-2.6691,-2.6556,-2.6521,-2.6521,-2.6521,-2.6486,-2.6486,-2.6589,-2.6742,-2.6923,-2.6989,-2.6989,-2.7149,-2.6989,-2.6691,-2.6691,-2.6218,-2.5607,-2.5607,-2.5342,-2.5011,-2.5011,-2.5096,-2.5096,-2.4515,-2.4194,-2.3869,-2.3147,-2.2875,-2.2722,-2.2366,-2.2141,-2.1969,-2.184,-2.1797,-2.1797,-2.1797,-2.1797,-2.1797,-2.1797,-2.1797,-2.1797,-2.1797,-2.1797,-2.1797,-2.1797,-2.1797,-2.1797,-2.1797,-2.1768,-2.1768,-2.1768,-2.1724,-2.1724,-2.1724,-2.1724,-2.1617,-2.1386,-2.137,-2.1479,-2.1708,-2.1479,-2.1401,-2.1415,-2.1245,-2.1007,-2.0732,-2.0364,-2.007,-1.9788,-1.9588,-1.9384,-1.9242,-1.9473,-1.9623,-1.9784,-2.0355,-2.0869,-2.1271,-2.131,-2.1321,-2.1321,-2.0795,-2.0409,-2.0195,-3.119,-3.119,-3.123,-3.1269,-3.1291,-3.1291,-3.1368,-3.1368,-3.16,-3.2214,-3.2317,-3.2519,-3.3147,-3.2651,-3.2368,-3.2666,-3.3006,-3.3196,-3.3226,-3.3196,-3.2665,-3.1551,-3.1434,-3.0586,-2.8816,-2.8269,-2.7504,-2.6462,-2.6345,-2.6258,-2.622,-2.622,-2.622,-2.622,-2.622,-2.622,-2.622,-2.622,-2.622,-2.6203,-2.6521,-2.6624,-2.6674,-2.6923,-2.6858,-2.6624,-2.6624,-2.6452,-2.622,-2.622,-2.622,-2.622,-2.622,-2.622,-2.6087,-2.5458,-2.4963,-2.4486,-2.3641,-2.3173,-2.2742,-2.2112,-2.1864,-2.1797,-2.1797,-2.1797,-2.1797,-2.1797,-2.1797,-2.1797,-2.1797,-2.1797,-2.1797,-2.1797,-2.1797,-2.1797,-2.1797,-2.1797,-2.1781,-2.1781,-2.1678,-2.1587,-2.1587,-2.1495,-2.145,-2.145,-2.145,-2.1261,-2.0926,-2.0894,-2.1039,-2.1371,-2.1087,-2.0894,-2.0894,-2.0565,-2.033,-2.0212,-1.9844,-1.966,-1.9617,-1.925,-1.9107,-1.9161,-1.9724,-1.976,-1.9573,-2.0648,-2.0864,-2.0617,-2.1083,-2.1272,-2.1224,-2.0696,-2.0524,-2.0616,-3.119,-3.119,-3.1291,-3.1582,-3.162,-3.1731,-3.2074,-3.2144,-3.2179,-3.2283,-3.2317,-3.2299,-3.2316,-3.2213,-3.2109,-3.2127,-3.2162,-3.2248,-3.2386,-3.2283,-3.1881,-3.1043,-3.1008,-3.0555,-2.9632,-2.8544,-2.7757,-2.7228,-2.6557,-2.6203,-2.622,-2.622,-2.622,-2.622,-2.622,-2.622,-2.622,-2.622,-2.622,-2.6203,-2.6239,-2.6274,-2.6258,-2.6345,-2.6329,-2.6274,-2.6274,-2.6239,-2.622,-2.622,-2.622,-2.622,-2.622,-2.622,-2.6187,-2.6071,-2.599,-2.5627,-2.4248,-2.3403,-2.2857,-2.2758,-2.2245,-2.1797,-2.1797,-2.1797,-2.1797,-2.1797,-2.1797,-2.1797,-2.1797,-2.1797,-2.1797,-2.1797,-2.1797,-2.1797,-2.1797,-2.1738,-2.1724,-2.1724,-2.1339,-2.1103,-2.1103,-2.0845,-2.0681,-2.0681,-2.0681,-2.0599,-2.0416,-2.0416,-2.0431,-2.0413,-2.0431,-2.0416,-2.0416,-2.0089,-1.9894,-1.9859,-1.9406,-1.9199,-1.9213,-1.9139,-1.9147,-1.9288,-1.9387,-1.9724,-2.0229,-2.0452,-2.0832,-2.1199,-2.0868,-2.0709,-2.0646,-2.0105,-2.0269,-2.0699,-3.119,-3.119,-3.1269,-3.1389,-3.1428,-3.1487,-3.1674,-3.1711,-3.1768,-3.1967,-3.1967,-3.2021,-3.2109,-3.1933,-3.1878,-3.2003,-3.175,-3.1714,-3.1967,-3.1986,-3.1917,-3.1706,-3.134,-3.0617,-2.961,-2.8679,-2.8106,-2.7935,-2.7582,-2.7181,-2.6783,-2.6783,-2.6584,-2.622,-2.622,-2.622,-2.622,-2.622,-2.622,-2.622,-2.622,-2.622,-2.622,-2.622,-2.622,-2.622,-2.622,-2.622,-2.622,-2.622,-2.622,-2.622,-2.622,-2.622,-2.622,-2.622,-2.5938,-2.5475,-2.4779,-2.405,-2.3487,-2.3487,-2.3238,-2.2874,-2.2477,-2.2377,-2.2278,-2.1864,-2.1797,-2.1797,-2.1797,-2.1768,-2.1738,-2.1738,-2.1724,-2.1694,-2.1694,-2.1664,-2.165,-2.165,-2.1386,-2.1134,-2.0942,-2.0763,-2.0563,-2.0345,-2.0345,-2.0243,-2.0,-1.9965,-1.9859,-1.9624,-1.9859,-1.9859,-1.9681,-1.9515,-1.9406,-1.9406,-1.9199,-1.9101,-1.9116,-1.9165,-1.9242,-1.9335,-1.9735,-1.994,-2.0059,-2.0364,-2.0509,-2.0484,-2.0258,-2.0156,-2.0195,-2.0254,-2.0439,-2.0806,-3.1444,-3.1309,-3.119,-3.119,-3.119,-3.119,-3.1151,-3.1151,-3.1252,-3.147,-3.1507,-3.1565,-3.1752,-3.1548,-3.1452,-3.164,-3.1317,-3.1278,-3.1605,-3.166,-3.1842,-3.2214,-3.1677,-3.0891,-2.9826,-2.9126,-2.8721,-2.8622,-2.8495,-2.813,-2.7566,-2.7566,-2.723,-2.6717,-2.6717,-2.6617,-2.6468,-2.6468,-2.6369,-2.622,-2.622,-2.622,-2.622,-2.622,-2.622,-2.622,-2.622,-2.622,-2.622,-2.622,-2.622,-2.622,-2.622,-2.622,-2.622,-2.622,-2.5806,-2.5359,-2.5359,-2.4829,-2.4216,-2.4149,-2.3984,-2.3671,-2.2998,-2.2867,-2.2703,-2.2146,-2.1853,-2.1738,-2.1738,-2.1562,-2.1417,-2.1417,-2.1371,-2.134,-2.134,-2.1309,-2.1309,-2.1309,-2.1119,-2.0893,-2.0663,-2.0496,-2.0258,-1.9965,-1.9929,-1.9839,-1.9566,-1.9581,-1.9435,-1.9101,-1.9398,-1.9398,-1.9101,-1.9101,-1.9101,-1.9101,-1.9101,-1.9098,-1.9142,-1.9244,-1.9322,-1.9429,-2.0003,-2.0051,-1.9752,-2.0228,-2.0156,-1.9798,-1.9798,-1.9886,-2.0062,-2.0555,-2.0882,-2.1167,-3.2205,-3.1664,-3.119,-3.119,-3.119,-3.1151,-3.1015,-3.1015,-3.1015,-3.0975,-3.0935,-3.0935,-3.0797,-3.0757,-3.0716,-3.0634,-3.0593,-3.074,-3.1123,-3.0821,-3.0965,-3.1714,-3.1677,-3.1473,-3.0999,-3.0273,-2.9693,-2.9334,-2.8688,-2.8395,-2.8345,-2.8345,-2.8312,-2.8262,-2.8262,-2.7881,-2.7234,-2.7234,-2.6816,-2.622,-2.622,-2.622,-2.622,-2.622,-2.622,-2.622,-2.622,-2.622,-2.622,-2.622,-2.622,-2.622,-2.622,-2.622,-2.622,-2.622,-2.617,-2.6137,-2.6137,-2.559,-2.4908,-2.456,-2.3967,-2.3326,-2.2825,-2.2722,-2.2706,-2.2659,-2.2083,-2.1607,-2.1607,-2.1054,-2.0581,-2.0581,-2.0581,-2.0581,-2.0581,-2.0465,-2.0382,-2.0382,-2.007,-1.9818,-1.9782,-1.9457,-1.9199,-1.9161,-1.9176,-1.9176,-1.9139,-1.9139,-1.9139,-1.9101,-1.9139,-1.9139,-1.9101,-1.9101,-1.9101,-1.9101,-1.9101,-1.9176,-1.9277,-1.9319,-1.9451,-1.9677,-1.9721,-1.9767,-1.9799,-1.9837,-1.985,-1.9798,-1.9798,-2.0125,-2.0655,-2.0706,-2.1317,-2.2081,-3.2883,-3.2622,-3.242,-3.2337,-3.1984,-3.1681,-3.164,-3.1237,-3.0952,-3.0912,-3.0912,-3.0871,-3.0692,-3.0692,-3.0651,-3.051,-3.0526,-3.0551,-3.0699,-3.0593,-3.0634,-3.0925,-3.0965,-3.0885,-3.074,-3.0456,-3.0242,-3.0096,-2.9847,-2.9466,-2.9019,-2.9019,-2.8787,-2.8412,-2.8412,-2.8262,-2.7997,-2.7997,-2.781,-2.7512,-2.7065,-2.6866,-2.6816,-2.6369,-2.622,-2.622,-2.622,-2.622,-2.622,-2.622,-2.622,-2.622,-2.622,-2.622,-2.622,-2.622,-2.622,-2.622,-2.622,-2.6005,-2.5667,-2.5241,-2.492,-2.445,-2.3581,-2.3374,-2.3227,-2.2729,-2.2431,-2.217,-2.2098,-2.1807,-2.1616,-2.1616,-2.1528,-2.1476,-2.1476,-2.1439,-2.1403,-2.1403,-2.1271,-2.0933,-2.0318,-2.0139,-1.9788,-1.913,-1.9101,-1.9101,-1.9101,-1.9101,-1.9101,-1.9101,-1.9101,-1.9101,-1.9101,-1.9101,-1.9101,-1.9101,-1.9169,-1.9244,-1.9335,-1.9483,-1.9608,-1.969,-1.9733,-1.9763,-1.9798,-1.9798,-2.0012,-2.0338,-2.0338,-2.0623,-2.0983,-2.0897,-2.11,-2.132,-3.3547,-3.3345,-3.3177,-3.3031,-3.2629,-3.2328,-3.2285,-3.1667,-3.1182,-3.1141,-3.0924,-3.0733,-3.0651,-3.0651,-3.0609,-3.0526,-3.0526,-3.0526,-3.0526,-3.0526,-3.0526,-3.0526,-3.0526,-3.0526,-3.0526,-3.0526,-3.0526,-3.0526,-3.0526,-3.0261,-2.9764,-2.9764,-2.9499,-2.9052,-2.9052,-2.892,-2.8704,-2.8704,-2.8572,-2.8379,-2.7864,-2.7665,-2.7599,-2.7081,-2.675,-2.6551,-2.6551,-2.6402,-2.622,-2.622,-2.622,-2.622,-2.622,-2.6096,-2.5954,-2.5844,-2.5807,-2.5807,-2.5807,-2.5807,-2.5717,-2.5406,-2.5198,-2.4839,-2.3896,-2.3668,-2.3504,-2.2924,-2.2639,-2.2447,-2.2354,-2.2109,-2.1894,-2.1894,-2.1801,-2.1762,-2.1762,-2.1762,-2.1762,-2.1762,-2.1581,-2.1218,-2.0516,-2.0256,-1.9832,-1.913,-1.9101,-1.9101,-1.9101,-1.9101,-1.9101,-1.9101,-1.8988,-1.8999,-1.9161,-1.8999,-1.8999,-1.9161,-1.9137,-1.921,-1.9423,-1.9628,-1.9707,-1.9718,-1.9978,-2.0075,-2.0087,-2.0263,-2.0564,-2.0874,-2.063,-2.0785,-2.1071,-2.0687,-2.0679,-2.0692,-3.4264,-3.3688,-3.3194,-3.3048,-3.3004,-3.2961,-3.2923,-3.229,-3.1765,-3.1636,-3.0948,-3.0526,-3.0526,-3.0526,-3.0526,-3.0526,-3.0526,-3.0526,-3.0526,-3.0526,-3.0526,-3.0526,-3.0526,-3.0526,-3.0526,-3.0526,-3.0526,-3.0526,-3.0526,-3.0526,-3.0526,-3.0526,-3.0526,-3.0526,-3.0526,-3.0112,-2.9417,-2.9417,-2.9019,-2.8445,-2.839,-2.839,-2.839,-2.8412,-2.7964,-2.7317,-2.7317,-2.6816,-2.622,-2.622,-2.622,-2.622,-2.622,-2.5848,-2.5427,-2.502,-2.4902,-2.4902,-2.4902,-2.4902,-2.4902,-2.4902,-2.4502,-2.3994,-2.3596,-2.3407,-2.3319,-2.3319,-2.2745,-2.2191,-2.2191,-2.1551,-2.1003,-2.1003,-2.1003,-2.1003,-2.1003,-2.1003,-2.1003,-2.1003,-2.048,-2.0117,-2.0103,-1.9508,-1.9116,-1.9101,-1.9101,-1.9101,-1.9101,-1.9101,-1.9101,-1.9101,-1.8707,-1.877,-1.9293,-1.877,-1.8784,-1.9307,-1.8905,-1.9052,-1.9712,-1.9725,-1.9731,-1.9849,-2.0426,-2.0718,-2.0769,-2.1267,-2.145,-2.1225,-2.0481,-2.0441,-2.0731,-1.9963,-2.0091,-2.0462,-3.4864,-3.4681,-3.4468,-3.4376,-3.3898,-3.3549,-3.352,-3.289,-3.2409,-3.2365,-3.1735,-3.1246,-3.1246,-3.0782,-3.0526,-3.0526,-3.0526,-3.0526,-3.0526,-3.0526,-3.0526,-3.0526,-3.0526,-3.0526,-3.0526,-3.0526,-3.0526,-3.0526,-3.0526,-3.0526,-3.0526,-3.0526,-3.0526,-3.0526,-3.0526,-3.0394,-3.0195,-3.0195,-3.0079,-2.9831,-2.9317,-2.9102,-2.9052,-2.8572,-2.8279,-2.808,-2.808,-2.7616,-2.6949,-2.6949,-2.6617,-2.6132,-2.5811,-2.5631,-2.5427,-2.502,-2.4902,-2.4902,-2.4902,-2.4639,-2.4354,-2.4354,-2.423,-2.3952,-2.3494,-2.3319,-2.3275,-2.3157,-2.2981,-2.2805,-2.2702,-2.2497,-2.2308,-2.2308,-2.2308,-2.2308,-2.2308,-2.2308,-2.2193,-2.1743,-2.154,-2.1075,-2.019,-1.9928,-1.9609,-1.9145,-1.9101,-1.9101,-1.9101,-1.9101,-1.9101,-1.9101,-1.908,-1.9151,-1.9293,-1.8865,-1.8919,-1.9421,-1.9408,-1.9514,-1.9738,-2.0207,-2.0408,-2.0439,-2.0882,-2.1063,-2.1076,-2.1138,-2.108,-2.0926,-2.0736,-2.0557,-2.0366,-1.9663,-1.9435,-1.9365,-3.5041,-3.5041,-3.5041,-3.4947,-3.4535,-3.4237,-3.4237,-3.3607,-3.3127,-3.3127,-3.2481,-3.1934,-3.1609,-3.1179,-3.0841,-3.0543,-3.0526,-3.0526,-3.0526,-3.0526,-3.0526,-3.0526,-3.0526,-3.0526,-3.0526,-3.0526,-3.0526,-3.0526,-3.0526,-3.0526,-3.0526,-3.0526,-3.0526,-3.0526,-3.0526,-3.0526,-3.0526,-3.0526,-3.0526,-3.0435,-3.0029,-2.9847,-2.9798,-2.9383,-2.9052,-2.8787,-2.8787,-2.8323,-2.7699,-2.7417,-2.671,-2.5864,-2.5406,-2.5121,-2.4887,-2.4502,-2.4379,-2.4354,-2.4354,-2.4105,-2.3839,-2.3739,-2.3696,-2.3625,-2.3275,-2.3201,-2.3112,-2.3037,-2.3037,-2.2992,-2.2902,-2.2888,-2.2888,-2.2888,-2.2888,-2.2888,-2.2888,-2.2671,-2.2425,-2.2033,-2.1554,-2.0944,-2.0175,-1.9856,-1.9537,-1.913,-1.9101,-1.9101,-1.9101,-1.9348,-1.9416,-1.9194,-1.9335,-1.9429,-1.9459,-1.903,-1.908,-1.9561,-1.9668,-1.9872,-2.0129,-2.0737,-2.0978,-2.0907,-2.1343,-2.1522,-2.142,-2.1267,-2.1188,-2.0973,-2.0393,-2.0004,-1.9683,-1.9044,-1.8721,-1.8529,-3.4947,-3.4994,-3.5041,-3.4899,-3.4899,-3.4899,-3.4899,-3.4319,-3.3889,-3.3889,-3.3243,-3.2531,-3.1885,-3.1769,-3.1378,-3.0675,-3.0559,-3.0526,-3.0526,-3.0526,-3.0526,-3.0526,-3.0526,-3.0526,-3.0526,-3.0526,-3.0526,-3.0526,-3.0526,-3.0526,-3.0526,-3.0526,-3.0526,-3.0526,-3.0526,-3.0526,-3.0526,-3.0526,-3.0526,-3.0485,-3.0426,-3.0426,-3.0426,-3.0384,-2.9972,-2.9378,-2.9378,-2.8933,-2.8262,-2.7453,-2.6449,-2.5432,-2.4958,-2.4477,-2.4036,-2.3681,-2.3523,-2.3466,-2.3466,-2.3466,-2.3422,-2.3171,-2.3082,-2.3082,-2.3082,-2.2992,-2.2888,-2.2888,-2.2888,-2.2888,-2.2888,-2.2888,-2.2888,-2.2888,-2.2888,-2.2873,-2.2815,-2.2367,-2.196,-2.1844,-2.0799,-2.0074,-2.0016,-1.9426,-1.9093,-1.9098,-1.906,-1.9089,-1.9147,-1.9724,-1.9826,-1.9335,-1.9505,-1.9627,-1.9664,-1.9306,-1.9357,-1.9772,-1.9839,-2.0175,-2.0752,-2.1305,-2.1444,-2.1287,-2.1857,-2.1987,-2.1762,-2.1614,-2.1439,-2.106,-1.9759,-1.911,-1.8844,-1.8202,-1.8008,-1.8008,-3.4899,-3.4947,-3.4947,-3.4899,-3.4899,-3.4899,-3.4899,-3.475,-3.4651,-3.4651,-3.4005,-3.3491,-3.3342,-3.2812,-3.2166,-3.1454,-3.0858,-3.0526,-3.0526,-3.0526,-3.0526,-3.0526,-3.0526,-3.0526,-3.0526,-3.0526,-3.0526,-3.0526,-3.0526,-3.0526,-3.0526,-3.0526,-3.0526,-3.0526,-3.0526,-3.0526,-3.0526,-3.0526,-3.0526,-3.0485,-3.0113,-2.9941,-2.9897,-2.9528,-2.9297,-2.917,-2.917,-2.8706,-2.7881,-2.6621,-2.5957,-2.5501,-2.455,-2.4147,-2.3852,-2.348,-2.3348,-2.3319,-2.3319,-2.329,-2.3171,-2.3127,-2.3037,-2.2947,-2.2947,-2.2947,-2.2888,-2.2888,-2.2888,-2.2888,-2.2888,-2.2888,-2.2888,-2.2888,-2.2888,-2.2714,-2.2265,-2.2077,-2.1627,-2.0625,-2.0262,-1.9885,-1.9362,-1.8908,-1.8789,-1.923,-1.8975,-1.8975,-1.9414,-1.9565,-1.959,-1.9459,-1.9588,-1.963,-1.952,-1.99,-2.0129,-2.0235,-2.0241,-2.0536,-2.1095,-2.1527,-2.1786,-2.194,-2.2187,-2.1981,-2.1487,-2.1279,-2.0537,-1.9497,-1.9177,-1.8721,-1.8202,-1.8076,-1.8008,-1.8008,-3.4899,-3.4899,-3.4899,-3.4899,-3.4899,-3.4899,-3.4899,-3.4899,-3.4899,-3.4899,-3.4551,-3.4187,-3.3822,-3.3442,-3.2928,-3.2199,-3.1769,-3.1553,-3.1553,-3.1553,-3.1553,-3.1553,-3.1553,-3.1388,-3.1014,-3.104,-3.0874,-3.0526,-3.0526,-3.0526,-3.0526,-3.0526,-3.0526,-3.0526,-3.0526,-3.0526,-3.0485,-3.0241,-3.0156,-3.0113,-2.9661,-2.9483,-2.9438,-2.9166,-2.9074,-2.9074,-2.9074,-2.8586,-2.7787,-2.6961,-2.6084,-2.5222,-2.4643,-2.4023,-2.348,-2.3363,-2.3231,-2.3201,-2.3201,-2.3157,-2.3082,-2.3037,-2.2947,-2.2888,-2.2888,-2.2888,-2.2888,-2.2888,-2.2888,-2.2843,-2.2615,-2.2555,-2.2463,-2.2203,-2.1978,-2.1682,-2.1403,-2.0838,-2.0218,-1.9569,-1.9404,-1.9284,-1.9187,-1.9298,-1.9363,-1.9374,-1.9187,-1.9192,-1.9503,-1.9773,-1.9873,-1.9824,-2.0221,-2.0361,-2.0227,-2.0536,-2.0791,-2.0994,-2.105,-2.1186,-2.1482,-2.1989,-2.2055,-2.1753,-2.1906,-2.1514,-2.0741,-2.0291,-1.9628,-1.8977,-1.8654,-1.8337,-1.8008,-1.8008,-1.8008,-1.8008,-3.4899,-3.4899,-3.4899,-3.4899,-3.4899,-3.4899,-3.4899,-3.4899,-3.4899,-3.4899,-3.4899,-3.4667,-3.4038,-3.3872,-3.3541,-3.2928,-3.2762,-3.268,-3.268,-3.268,-3.268,-3.268,-3.268,-3.2348,-3.1593,-3.1576,-3.1212,-3.0526,-3.0526,-3.0526,-3.0526,-3.0526,-3.0526,-3.0526,-3.0526,-3.0468,-3.0342,-2.9984,-2.975,-2.9617,-2.9166,-2.8982,-2.8935,-2.8889,-2.8842,-2.8842,-2.8842,-2.8389,-2.7705,-2.7473,-2.6367,-2.5048,-2.4822,-2.4045,-2.3228,-2.3231,-2.3157,-2.3082,-2.3082,-2.3082,-2.3037,-2.2947,-2.2888,-2.2888,-2.2797,-2.2843,-2.2888,-2.2888,-2.2843,-2.2661,-2.2278,-2.2137,-2.1921,-2.1465,-2.1023,-2.0683,-2.0588,-1.9704,-1.9067,-1.9056,-1.8891,-1.8941,-1.928,-1.9766,-1.9877,-1.9664,-1.9541,-1.9542,-1.9741,-2.0253,-2.0437,-2.036,-2.0898,-2.1113,-2.0974,-2.1072,-2.1226,-2.1571,-2.1762,-2.1858,-2.193,-2.2274,-2.2037,-2.1388,-2.1262,-2.0677,-1.9835,-1.9243,-1.8911,-1.8787,-1.8202,-1.8057,-1.8125,-1.8203,-1.8232,-1.8232,-3.4899,-3.4899,-3.4899,-3.4899,-3.4899,-3.4899,-3.4899,-3.4899,-3.4899,-3.4899,-3.4899,-3.4866,-3.475,-3.417,-3.3756,-3.3657,-3.3061,-3.268,-3.268,-3.268,-3.268,-3.268,-3.268,-3.2348,-3.1593,-3.1576,-3.1212,-3.0526,-3.0526,-3.0526,-3.0526,-3.0526,-3.0526,-3.0526,-3.0526,-3.0284,-2.9897,-2.9853,-2.9572,-2.9166,-2.8638,-2.8384,-2.8352,-2.7944,-2.781,-2.781,-2.781,-2.7665,-2.7365,-2.6747,-2.6224,-2.5688,-2.457,-2.4019,-2.3705,-2.3107,-2.2933,-2.2947,-2.2947,-2.2947,-2.2947,-2.2888,-2.2888,-2.2797,-2.237,-2.2615,-2.2888,-2.2888,-2.2555,-2.2278,-2.2231,-2.1827,-2.1465,-2.1417,-2.1349,-2.1084,-2.0522,-2.0305,-2.0157,-2.0102,-2.0062,-1.9906,-1.9527,-1.9104,-1.9183,-2.0023,-1.9687,-1.9803,-2.0759,-2.0871,-2.089,-2.0921,-2.0995,-2.0957,-2.0827,-2.1277,-2.1498,-2.1404,-2.1922,-2.22,-2.2311,-2.1604,-2.1325,-2.1388,-2.0613,-1.9835,-1.911,-1.9044,-1.8654,-1.8144,-1.8008,-1.8232,-1.8594,-1.8975,-1.9111,-1.9111,-3.4899,-3.4899,-3.4899,-3.4899,-3.4899,-3.4899,-3.4899,-3.4899,-3.4899,-3.4899,-3.4899,-3.4899,-3.4899,-3.4601,-3.4308,-3.4005,-3.3663,-3.3323,-3.2983,-3.2983,-3.3145,-3.3483,-3.3483,-3.3156,-3.239,-3.2027,-3.1303,-3.0209,-3.0396,-3.0526,-3.0526,-3.0526,-3.0342,-3.0113,-3.0113,-2.9853,-2.9393,-2.9104,-2.881,-2.8591,-2.8125,-2.7894,-2.7894,-2.766,-2.7625,-2.7575,-2.7423,-2.7335,-2.724,-2.6755,-2.6316,-2.5791,-2.5238,-2.4505,-2.3833,-2.3557,-2.3163,-2.2888,-2.2888,-2.2888,-2.2843,-2.2555,-2.2509,-2.237,-2.1874,-2.1908,-2.2049,-2.2049,-2.1921,-2.167,-2.1348,-2.1091,-2.0845,-2.0534,-2.0237,-1.995,-1.9655,-1.9344,-1.935,-1.9773,-2.0127,-2.0306,-2.0234,-2.0409,-2.0553,-2.0636,-2.0415,-2.0471,-2.0949,-2.0974,-2.1121,-2.1311,-2.1323,-2.1411,-2.1608,-2.1838,-2.1898,-2.1849,-2.2089,-2.1987,-2.1639,-2.1262,-2.073,-2.002,-1.9639,-1.9121,-1.8462,-1.8462,-1.8408,-1.8359,-1.8359,-1.8623,-1.9023,-1.9219,-1.9287,-1.9287]},{"header":{"parameterUnit":"m.s-1","parameterCategory":1,"la1":30.6,"la2":28.766,"lo1":-90.7593,"lo2":-88.6598,"dy":0.0162,"dx":0.0183,"nx":116,"ny":114,"refTime":"2023-07-25T06:00:00:Z","depth":0,"parameterNumber":3,"parameterNumberName":"V-component_of_WINDS"},"data":[0.0,0.0,0.0,0.0,0.0,0.0,0.0,0.0,0.0,0.0,0.0,0.0,0.0,0.0,0.0,0.0,0.0,0.0,0.0,0.0,0.0,0.0,0.0,0.0,0.0,0.0,0.0,0.0,0.0,0.0,0.0,0.0,0.0,0.0,0.0,0.0,0.0,0.0,0.0,0.0,0.0,0.0,0.0,0.0,0.0,0.0,0.0,0.0,0.0,0.0,0.0,0.0,0.0,0.0,0.0,0.0,0.0,0.0,0.0,0.0,0.0,0.0,0.0,0.0,0.0,0.0,0.0,0.0,0.0,0.0,0.0,0.0,0.0,0.0,0.0,0.0,0.0,0.0,0.0,0.0,0.0,0.0,0.0,0.0,0.0,0.0,0.0,0.0,0.0,0.0,0.0,0.0,0.0,0.0,0.0,0.0,0.0,0.0,0.0,0.0,0.0,0.0,0.0,0.0,0.0,0.0,0.0,0.0,0.0,0.0,0.0,0.0,0.0,0.0,0.0,0.0,0.0,0.0,0.0,0.0,0.0,0.0,0.0,0.0,0.0,0.0,0.0,0.0,0.0,0.0,0.0,0.0,0.0,0.0,0.0,0.0,0.0,0.0,0.0,0.0,0.0,0.0,0.0,0.0,0.0,0.0,0.0,0.0,0.0,0.0,0.0,0.0,0.0,0.0,0.0,0.0,0.0,0.0,0.0,0.0,0.0,0.0,0.0,0.0,0.0,0.0,0.0,0.0,0.0,0.0,0.0,0.0,0.0,0.0,0.0,0.0,0.0,0.0,0.0,0.0,0.0,0.0,0.0,0.0,0.0,0.0,0.0,0.0,0.0,0.0,0.0,0.0,0.0,0.0,0.0,0.0,0.0,0.0,0.0,0.0,0.0,0.0,0.0,0.0,0.0,0.0,0.0,0.0,0.0,0.0,0.0,0.0,0.0,0.0,0.0,0.0,0.0,0.0,0.0,0.0,0.0,0.0,0.0,0.0,0.0,0.0,0.0,0.0,0.0,0.0,0.0,0.0,0.0,0.0,0.0,0.0,0.0,0.0,0.0,0.0,0.0,0.0,0.0,0.0,0.0,0.0,0.0,0.0,0.0,0.0,0.0,0.0,0.0,0.0,0.0,0.0,0.0,0.0,0.0,0.0,0.0,0.0,0.0,0.0,0.0,0.0,0.0,0.0,0.0,0.0,0.0,0.0,0.0,0.0,0.0,0.0,0.0,0.0,0.0,0.0,0.0,0.0,0.0,0.0,0.0,0.0,0.0,0.0,0.0,0.0,0.0,0.0,0.0,0.0,0.0,0.0,0.0,0.0,0.0,0.0,0.0,0.0,0.0,0.0,0.0,0.0,0.0,0.0,0.0,0.0,0.0,0.0,0.0,0.0,0.0,0.0,0.0,0.0,0.0,0.0,0.0,0.0,0.0,0.0,0.0,0.0,0.0,0.0,0.0,0.0,0.0,0.0,0.0,0.0,0.0,0.0,0.0,0.0,0.0,0.0,0.0,0.0,0.0,0.0,0.0,0.0,0.0,0.0,0.0,0.0,0.0,0.0,0.0,0.0,0.0,0.0,0.0,0.0,0.0,0.0,0.0,0.0,0.0,0.0,0.0,0.0,0.0,0.0,0.0,0.0,0.0,0.0,0.0,0.0,0.0,0.0,0.0,0.0,0.0,0.0,0.0,0.0,0.0,0.0,0.0,0.0,0.0,0.0,0.0,0.0,0.0,0.0,0.0,0.0,0.0,0.0,0.0,0.0,0.0,0.0,0.0,0.0,0.0,0.0,0.0,0.0,0.0,0.0,0.0,0.0,0.0,0.0,0.0,0.0,0.0,0.0,0.0,0.0,0.0,0.0,0.0,0.0,0.0,0.0,0.0,0.0,0.0,0.0,0.0,0.0,0.0,0.0,0.0,0.0,0.0,0.0,0.0,0.0,0.0,0.0,0.0,0.0,0.0,0.0,0.0,0.0,0.0,0.0,0.0,0.0,0.0,0.0,0.0,0.0,0.0,0.0,0.0,0.0,0.0,0.0,0.0,0.0,0.0,0.0,0.0,0.0,0.0,0.0,0.0,0.0,0.0,0.0,0.0,0.0,0.0,0.0,0.0,0.0,0.0,0.0,0.0,0.0,0.0,0.0,0.0,0.0,0.0,0.0,0.0,0.0,0.0,0.0,0.0,0.0,0.0,0.0,0.0,0.0,0.0,0.0,0.0,0.0,0.0,0.0,0.0,0.0,0.0,0.0,0.0,0.0,0.0,0.0,0.0,0.0,0.0,0.0,0.0,0.0,0.0,0.0,0.0,0.0,0.0,0.0,0.0,0.0,0.0,0.0,0.0,0.0,0.0,0.0,0.0,0.0,0.0,0.0,0.0,0.0,0.0,0.0,0.0,0.0,0.0,0.0,0.0,0.0,0.0,0.0,0.0,0.0,0.0,0.0,0.0,0.0,0.0,0.0,0.0,0.0,0.0,0.0,0.0,0.0,0.0,0.0,0.0,0.0,0.0,0.0,0.0,0.0,0.0,0.0,0.0,0.0,0.0,0.0,0.0,0.0,0.0,0.0,0.0,0.0,0.0,0.0,0.0,0.0,0.0,0.0,0.0,0.0,0.0,0.0,0.0,0.0,0.0,0.0,0.0,0.0,0.0,0.0,0.0,0.0,0.0,0.0,0.0,0.0,0.0,0.0,0.0,0.0,0.0,0.0,0.0,0.0,0.0,0.0,0.0,0.0,0.0,0.0,0.0,0.0,0.0,0.0,0.0,0.0,0.0,0.0,0.0,0.0,0.0,0.0,0.0,0.0,0.0,0.0,0.0,0.0,0.0,0.0,0.0,0.0,0.0,0.0,0.0,0.0,0.0,0.0,0.0,0.0,0.0,0.0,0.0,0.0,0.0,0.0,0.0,0.0,0.0,0.0,0.0,0.0,0.0,0.0,0.0,0.0,0.0,0.0,0.0,0.0,0.0,0.0,0.0,0.0,0.0,0.0,0.0,0.0,0.0,0.0,0.0,0.0,0.0,0.0,0.0,0.0,0.0,0.0,0.0,0.0,0.0,0.0,0.0,0.0,0.0,0.0,0.0,0.0,0.0,0.0,0.0,0.0,0.0,0.0,0.0,0.0,0.0,0.0,0.0,0.0,0.0,0.0,0.0,0.0,0.0,0.0,0.0,0.0,0.0,0.0,0.0,0.0,0.0,0.0,0.0,0.0,0.0,0.0,0.0,0.0,0.0,0.0,0.0,0.0,0.0,0.0,0.0,0.0,0.0,0.0,0.0,0.0,0.0,0.0,0.0,0.0,0.0,0.0,0.0,0.0,0.0,0.0,0.0,0.0,0.0,0.0,0.0,0.0,0.0,0.0,0.0,0.0,0.0,0.0,0.0,0.0,0.0,0.0,0.0,0.0,0.0,0.0,0.0,0.0,0.0,0.0,0.0,0.0,0.0,0.0,0.0,0.0,0.0,0.0,0.0,0.0,0.0,0.0,0.0,0.0,0.0,0.0,0.0,0.0,0.0,0.0,0.0,0.0,0.0,0.0,0.0,0.0,0.0,0.0,0.0,0.0,0.0,0.0,0.0,0.0,0.0,0.0,0.0,0.0,0.0,0.0,0.0,0.0,0.0,0.0,0.0,0.0,0.0,0.0,0.0,0.0,0.0,0.0,0.0,0.0,0.0,0.0,0.0,0.0,0.0,0.0,0.0,0.0,0.0,0.0,0.0,0.0,0.0,0.0,0.0,0.0,0.0,0.0,0.0,0.0,0.0,0.0,0.0,0.0,0.0,0.0,0.0,0.0,0.0,0.0,0.0,0.0,0.0,0.0,0.0,0.0,0.0,0.0,0.0,0.0,0.0,0.0,0.0,0.0,0.0,0.0,0.0,0.0,0.0,0.0,0.0,0.0,0.0,0.0,0.0,0.0,0.0,0.0,0.0,0.0,0.0,0.0,0.0,0.0,0.0,0.0,0.0,0.0,0.0,0.0,0.0,0.0,0.0,0.0,0.0,0.0,0.0,0.0,0.0,0.0,0.0,0.0,0.0,0.0,0.0,0.0,0.0,0.0,0.0,0.0,0.0,0.0,0.0,0.0,0.0,0.0,0.0,0.0,0.0,0.0,0.0,0.0,0.0,0.0,0.0,0.0,0.0,0.0,0.0,0.0,0.0,0.0,0.0,0.0,0.0,0.0,0.0,0.0,0.0,0.0,0.0,0.0,0.0,0.0,0.0,0.0,0.0,0.0,0.0,0.0,0.0,0.0,0.0,0.0,0.0,0.0,0.0,0.0,0.0,0.0,0.0,0.0,0.0,0.0,0.0,0.0,0.0,0.0,0.0,0.0,0.0,0.0,0.0,0.0,0.0,0.0,0.0,0.0,0.0,0.0,0.0,0.0,0.0,0.0,0.0,0.0,0.0,0.0,0.0,0.0,0.0,0.0,0.0,0.0,0.0,0.0,0.0,0.0,0.0,0.0,0.0,0.0,0.0,0.0,0.0,0.0,0.0,0.0,0.0,0.0,0.0,0.0,0.0,0.0,0.0,0.0,0.0,0.0,0.0,0.0,0.0,0.0,0.0,0.0,0.0,0.0,0.0,0.0,0.0,0.0,0.0,0.0,0.0,0.0,0.0,0.0,0.0,0.0,0.0,0.0,0.0,0.0,0.0,0.0,0.0,0.0,0.0,0.0,0.0,0.0,0.0,0.0,0.0,0.0,0.0,0.0,0.0,0.0,0.0,0.0,0.0,0.0,0.0,0.0,0.0,0.0,0.0,0.0,0.0,0.0,0.0,0.0,0.0,0.0,0.0,0.0,0.0,0.0,0.0,0.0,0.0,0.0,0.0,0.0,0.0,0.0,0.0,0.0,0.0,0.0,0.0,0.0,0.0,0.0,0.0,0.0,0.0,0.0,0.0,0.0,0.0,0.0,0.0,0.0,0.0,0.0,0.0,0.0,0.0,0.0,0.0,0.0,0.0,0.0,0.0,0.0,0.0,0.0,0.0,0.0,0.0,0.0,0.0,0.0,0.0,0.0,0.0,0.0,0.0,0.0,0.0,0.0,0.0,0.0,0.0,0.0,0.0,0.0,0.0,0.0,0.0,0.0,0.0,0.0,0.0,0.0,0.0,0.0,0.0,0.0,0.0,0.0,0.0,0.0,0.0,0.0,0.0,0.0,0.0,0.0,0.0,0.0,0.0,0.0,0.0,0.0,0.0,0.0,0.0,0.0,0.0,0.0,0.0,0.0,0.0,0.0,0.0,0.0,0.0,0.0,0.0,0.0,0.0,0.0,0.0,0.0,0.0,0.0,0.0,0.0,0.0,0.0,0.0,0.0,0.0,0.0,0.0,0.0,0.0,0.0,0.0,0.0,0.0,0.0,0.0,0.0,0.0,0.0,0.0,0.0,0.0,0.0,0.0,0.0,0.0,0.0,0.0,0.0,0.0,0.0,0.0,0.0,0.0,0.0,0.0,0.0,0.0,0.0,0.0,0.0,0.0,0.0,0.0,0.0,0.0,0.0,0.0,0.0,0.0,0.0,0.0,0.0,0.0,0.0,0.0,0.0,0.0,0.0,0.0,0.0,0.0,0.0,0.0,0.0,0.0,0.0,0.0,0.0,0.0,0.0,0.0,0.0,0.0,0.0,0.0,0.0,0.0,0.0,0.0,0.0,0.0,0.0,0.0,0.0,0.0,0.0,0.0,0.0,0.0,0.0,0.0,0.0,0.0,0.0,0.0,0.0,0.0,0.0,0.0,0.0,0.0,0.0,0.0,0.0,0.0,0.0,0.0,0.0,0.0,0.0,0.0,0.0,0.0,0.0,0.0,0.0,0.0,0.0,0.0,0.0,0.0,0.0,0.0,0.0,0.0,0.0,0.0,0.0,0.0,0.0,0.0,0.0,0.0,0.0,0.0,0.0,0.0,0.0,0.0,0.0,0.0,0.0,0.0,0.0,0.0,0.0,0.0,0.0,0.0,0.0,0.0,0.0,0.0,0.0,0.0,0.0,0.0,0.0,0.0,0.0,0.0,0.0,0.0,0.0,0.0,0.0,0.0,0.0,0.0,0.0,0.0,0.0,0.0,0.0,0.0,0.0,0.0,0.0,0.0,0.0,-1.932,-1.9277,0.0,0.0,0.0,0.0,0.0,0.0,0.0,0.0,0.0,0.0,0.0,0.0,0.0,0.0,0.0,0.0,0.0,0.0,0.0,0.0,0.0,0.0,0.0,0.0,0.0,0.0,0.0,0.0,0.0,0.0,0.0,0.0,0.0,0.0,0.0,0.0,0.0,0.0,0.0,0.0,0.0,0.0,0.0,0.0,0.0,0.0,0.0,0.0,0.0,0.0,0.0,0.0,0.0,0.0,0.0,0.0,0.0,0.0,0.0,0.0,0.0,0.0,0.0,0.0,0.0,0.0,0.0,0.0,0.0,0.0,0.0,0.0,0.0,0.0,0.0,0.0,0.0,0.0,0.0,0.0,0.0,0.0,0.0,0.0,0.0,0.0,0.0,0.0,0.0,0.0,0.0,0.0,0.0,0.0,0.0,0.0,0.0,0.0,0.0,0.0,0.0,0.0,0.0,0.0,0.0,0.0,0.0,0.0,0.0,0.0,0.0,0.0,0.0,0.0,-1.9309,-1.9001,0.0,0.0,0.0,0.0,0.0,0.0,0.0,0.0,0.0,0.0,0.0,0.0,0.0,0.0,0.0,0.0,0.0,0.0,0.0,0.0,0.0,0.0,0.0,0.0,0.0,0.0,0.0,0.0,0.0,0.0,0.0,0.0,0.0,0.0,0.0,0.0,0.0,0.0,0.0,0.0,0.0,0.0,0.0,0.0,0.0,0.0,0.0,0.0,0.0,0.0,0.0,0.0,0.0,0.0,0.0,0.0,0.0,0.0,0.0,0.0,0.0,0.0,0.0,0.0,0.0,0.0,0.0,0.0,0.0,0.0,0.0,0.0,0.0,0.0,0.0,0.0,0.0,0.0,0.0,0.0,0.0,0.0,0.0,0.0,0.0,0.0,0.0,0.0,0.0,0.0,0.0,0.0,0.0,0.0,0.0,0.0,0.0,0.0,0.0,0.0,0.0,0.0,0.0,0.0,0.0,0.0,0.0,0.0,-2.1744,-2.1413,-2.0943,-2.0878,-2.0583,-2.0043,-1.9106,-1.8625,-1.8578,-1.9026,0.0,0.0,0.0,0.0,0.0,0.0,0.0,0.0,0.0,0.0,0.0,0.0,0.0,0.0,0.0,0.0,0.0,0.0,0.0,0.0,0.0,0.0,0.0,0.0,0.0,0.0,0.0,0.0,0.0,0.0,0.0,0.0,0.0,0.0,0.0,0.0,0.0,0.0,-2.1781,-2.1495,-2.1371,-2.1388,-2.134,0.0,0.0,0.0,0.0,0.0,0.0,0.0,0.0,0.0,0.0,0.0,0.0,0.0,0.0,0.0,0.0,0.0,0.0,0.0,0.0,0.0,0.0,0.0,0.0,0.0,0.0,0.0,0.0,0.0,0.0,0.0,0.0,0.0,0.0,0.0,0.0,0.0,0.0,0.0,0.0,0.0,0.0,0.0,-1.9875,-2.0167,0.0,0.0,0.0,0.0,0.0,0.0,0.0,0.0,0.0,0.0,0.0,0.0,0.0,-2.0799,-2.0687,-2.0536,-2.0583,-2.0797,-2.055,-2.0398,-2.0296,-2.0015,-1.9854,-1.9747,-1.9265,0.0,-1.91,-1.9165,0.0,0.0,0.0,0.0,0.0,0.0,0.0,0.0,0.0,0.0,0.0,0.0,0.0,0.0,0.0,0.0,0.0,0.0,0.0,0.0,0.0,0.0,0.0,0.0,0.0,0.0,0.0,0.0,0.0,0.0,0.0,0.0,0.0,0.0,0.0,0.0,-2.1526,-2.1417,-2.123,-2.1087,-2.1023,-2.1023,-2.0763,-2.0763,-2.0861,-2.0763,0.0,0.0,0.0,0.0,0.0,0.0,0.0,0.0,0.0,0.0,0.0,0.0,0.0,0.0,0.0,0.0,0.0,0.0,0.0,0.0,0.0,0.0,0.0,0.0,0.0,0.0,0.0,0.0,0.0,0.0,0.0,0.0,0.0,0.0,0.0,0.0,0.0,0.0,0.0,-2.0207,-2.0401,-2.081,-2.0933,-2.1033,0.0,0.0,0.0,0.0,0.0,0.0,0.0,0.0,0.0,-2.1145,-2.1089,-2.1155,-2.1425,-2.1332,-2.1332,-2.1425,-2.1332,-2.1164,-2.0993,-2.0843,-2.0629,-2.0436,-2.024,-2.0006,-1.9685,-1.9562,-1.9299,-1.9027,0.0,0.0,0.0,0.0,-1.9397,-1.9247,0.0,0.0,0.0,0.0,0.0,0.0,0.0,0.0,0.0,0.0,0.0,0.0,0.0,0.0,0.0,-2.06,0.0,0.0,0.0,0.0,0.0,0.0,0.0,0.0,0.0,0.0,0.0,0.0,-2.1328,-2.1262,-2.1047,-2.1135,-2.1145,-2.1145,-2.0747,-2.0547,-2.0462,-2.0376,-2.0308,0.0,0.0,0.0,0.0,0.0,0.0,0.0,0.0,0.0,0.0,0.0,0.0,0.0,0.0,0.0,0.0,0.0,0.0,0.0,0.0,0.0,0.0,0.0,0.0,0.0,0.0,0.0,0.0,0.0,0.0,0.0,0.0,0.0,0.0,0.0,0.0,0.0,0.0,-2.0619,-2.077,-2.1321,-2.1324,-2.1355,0.0,0.0,0.0,0.0,0.0,0.0,-2.0782,-2.092,-2.1089,-2.1279,-2.1294,-2.1485,-2.1825,-2.184,-2.1762,-2.1629,-2.1629,-2.1446,-2.1041,-2.1041,-2.0876,-2.0599,-2.0469,-2.0155,-1.9752,-1.978,-1.9693,-1.9566,-1.9808,-1.9844,-1.9773,-1.9758,-1.9687,-1.9579,0.0,0.0,0.0,0.0,0.0,0.0,0.0,0.0,0.0,0.0,0.0,0.0,0.0,0.0,-1.9876,-2.0621,-2.1334,-2.1748,0.0,0.0,0.0,0.0,0.0,0.0,0.0,0.0,0.0,-2.0827,-2.141,-2.1676,-2.1657,-2.2003,-2.214,-2.2102,-2.1771,-2.1077,-2.01,-2.0061,-1.994,-1.9859,0.0,0.0,0.0,0.0,0.0,0.0,0.0,0.0,0.0,0.0,0.0,0.0,0.0,0.0,0.0,0.0,0.0,0.0,0.0,0.0,0.0,0.0,0.0,0.0,0.0,0.0,0.0,0.0,0.0,0.0,0.0,0.0,0.0,0.0,0.0,0.0,0.0,0.0,0.0,-2.1355,-2.0797,0.0,0.0,0.0,0.0,-2.0548,-2.093,-2.1193,-2.125,-2.1741,-2.1865,-2.159,-2.159,-2.1406,-2.107,-2.107,-2.0837,-2.0387,-2.0387,-2.01,-1.9605,-1.9605,-1.9591,-1.9534,-1.9051,-1.8793,-1.885,-1.9712,-1.9706,-1.9139,-1.9066,-1.8878,-1.8577,-1.8496,-1.8238,-1.7988,0.0,0.0,0.0,0.0,0.0,0.0,0.0,0.0,0.0,0.0,0.0,0.0,0.0,-1.9435,-2.0108,-2.1284,-2.1453,-2.1587,-2.1797,0.0,0.0,0.0,0.0,0.0,0.0,0.0,-2.0733,-2.1047,-2.1279,-2.1476,-2.169,-2.1834,-2.1877,-2.1877,-2.1734,-2.144,-2.0923,-2.0513,-2.0005,-1.9457,-1.9244,-1.9221,0.0,0.0,0.0,0.0,0.0,0.0,0.0,0.0,0.0,0.0,0.0,0.0,0.0,0.0,0.0,0.0,0.0,0.0,0.0,0.0,0.0,0.0,0.0,0.0,0.0,0.0,0.0,0.0,0.0,0.0,0.0,0.0,0.0,0.0,0.0,0.0,0.0,-2.0665,-2.0874,0.0,-2.117,-2.1203,-2.1189,-2.122,-2.1102,-2.108,-2.1119,-2.1287,-2.1547,-2.1838,-2.1852,-2.2205,-2.2846,-2.2483,-2.239,-2.2628,-2.2242,-2.1934,-2.1722,-2.138,-2.1218,-2.1226,-2.0677,-2.0202,-1.9777,-1.9804,-1.9183,-1.8266,-1.8238,-1.8567,-1.9009,-1.8285,-1.8342,-1.8753,0.0,0.0,0.0,0.0,0.0,0.0,0.0,0.0,0.0,0.0,0.0,-1.8038,-1.9452,-1.9601,-2.018,-2.1665,-2.1495,-2.1433,-2.1797,0.0,0.0,0.0,0.0,0.0,0.0,-2.0612,-2.0707,-2.102,-2.1477,-2.1834,-2.2024,-2.2248,-2.2338,-2.2338,-2.2338,-2.2096,-2.1683,-2.1292,-2.0519,-1.9564,-1.9243,-1.9022,-1.886,0.0,0.0,0.0,0.0,0.0,0.0,0.0,0.0,0.0,0.0,0.0,0.0,0.0,0.0,0.0,0.0,0.0,0.0,0.0,0.0,0.0,0.0,0.0,0.0,0.0,0.0,0.0,0.0,0.0,0.0,0.0,0.0,0.0,0.0,0.0,-2.0461,-2.0582,-2.0987,-2.1288,-2.1377,-2.1428,-2.1461,-2.1395,-2.1372,-2.1423,-2.1641,-2.1859,-2.228,-2.2933,-2.2962,-2.3276,-2.388,-2.3491,-2.3325,-2.3368,-2.295,-2.2684,-2.2457,-2.2128,-2.1943,-2.1917,-2.1387,-2.0805,-2.0175,-1.9608,-1.8803,-1.7893,-1.7676,-1.8031,-1.8536,-1.7691,-1.7825,-1.8384,0.0,0.0,0.0,0.0,0.0,0.0,0.0,0.0,0.0,0.0,-1.6877,-1.8038,-1.9452,-1.9601,-2.018,-2.1665,-2.1495,-2.1433,-2.1751,-2.1166,0.0,0.0,0.0,0.0,-1.9777,-2.067,-2.1051,-2.0782,-2.2054,-2.2724,-2.2727,-2.3325,-2.3595,-2.3595,-2.3595,-2.3122,-2.2346,-2.2289,-2.1459,-2.0107,-2.0078,-1.9462,-1.8542,0.0,0.0,0.0,0.0,0.0,0.0,0.0,0.0,0.0,0.0,0.0,0.0,0.0,0.0,0.0,0.0,0.0,0.0,0.0,0.0,0.0,0.0,0.0,0.0,0.0,0.0,0.0,0.0,0.0,0.0,0.0,0.0,0.0,-2.0227,-2.0442,-2.0768,-2.1155,-2.1119,-2.1196,-2.1615,-2.1322,-2.109,-2.1119,-2.1714,-2.2352,-2.2917,-2.3586,-2.4196,-2.4757,-2.4814,-2.4554,-2.3895,-2.3881,-2.3344,-2.2372,-2.2304,-2.203,-2.1543,-2.1518,-2.1506,-2.1481,-2.0983,-2.0376,-1.9811,-1.9296,-1.8756,-1.8188,-1.7467,-1.7238,-1.7196,-1.6705,-1.6522,-1.664,0.0,0.0,0.0,0.0,0.0,0.0,0.0,0.0,0.0,0.0,-1.7004,-1.8038,-1.9452,-1.9601,-2.018,-2.1665,-2.1261,-2.1087,-2.1433,0.0,0.0,0.0,0.0,0.0,-2.0788,-2.0834,-2.1272,-2.2143,-2.2503,-2.2906,-2.3355,-2.352,-2.3595,-2.3595,-2.3595,-2.3375,-2.301,-2.2628,-2.1842,-2.0826,-1.9919,-1.9209,-1.859,0.0,0.0,0.0,0.0,0.0,0.0,0.0,0.0,0.0,0.0,0.0,0.0,0.0,0.0,0.0,0.0,0.0,0.0,0.0,0.0,0.0,0.0,0.0,0.0,0.0,0.0,0.0,0.0,0.0,0.0,0.0,0.0,-2.0789,-2.0542,-2.0715,-2.0929,-2.1049,-2.1432,-2.1945,-2.2484,-2.2862,-2.3281,-2.3746,-2.3949,-2.4076,-2.425,-2.4423,-2.4437,-2.417,-2.4198,-2.4105,-2.3972,-2.3554,-2.3395,-2.3602,-2.3083,-2.2804,-2.2673,-2.2272,-2.2083,-2.2058,-2.1506,-2.1179,-2.0978,-2.0439,-1.9874,-1.9221,-1.7865,-1.7823,-1.8336,-1.6985,-1.6522,-1.6534,0.0,0.0,0.0,0.0,0.0,0.0,0.0,0.0,0.0,0.0,-1.701,-1.7765,-1.9005,-1.9306,-1.9909,-2.1029,-2.0942,-2.0958,-2.1277,0.0,0.0,0.0,0.0,-2.0552,-2.0983,-2.1347,-2.1919,-2.2724,-2.2936,-2.3165,-2.329,-2.329,-2.3201,-2.295,-2.295,-2.2875,-2.2678,-2.2342,-2.1699,-2.0866,-2.0147,-1.9244,-1.8342,-1.7967,-1.7604,-1.7256,-1.7199,-1.7352,-1.7598,-1.7868,0.0,0.0,0.0,0.0,0.0,0.0,0.0,0.0,0.0,0.0,0.0,0.0,0.0,0.0,0.0,0.0,0.0,0.0,0.0,0.0,0.0,0.0,0.0,0.0,-2.1386,-2.1365,-2.122,-2.1322,-2.1511,-2.1772,-2.2396,-2.3049,-2.3688,-2.3813,-2.4172,-2.4757,-2.4575,-2.4526,-2.4848,-2.4862,-2.4708,-2.4374,-2.4374,-2.4231,-2.4059,-2.3677,-2.3573,-2.3662,-2.3305,-2.3078,-2.3065,-2.2811,-2.2661,-2.2636,-2.2322,-2.2046,-2.1807,-2.1493,-2.0891,-2.0024,0.0,0.0,0.0,0.0,-1.6722,-1.6559,0.0,0.0,0.0,0.0,0.0,0.0,0.0,0.0,0.0,0.0,0.0,-1.7419,-1.8359,-1.8936,-1.9516,-2.0159,-2.0575,-2.0893,0.0,0.0,0.0,-1.9782,-2.0655,-2.1029,-2.0827,-2.2039,-2.2753,-2.2787,-2.3325,-2.3377,-2.2889,-2.2889,-2.2603,-2.2081,-2.2081,-2.2002,-2.1793,-2.1746,-2.1299,-2.0557,-2.042,-1.943,-1.8143,-1.8478,-1.7764,-1.6653,-1.7015,-1.7115,-1.7115,-1.7199,0.0,0.0,0.0,0.0,0.0,0.0,0.0,0.0,0.0,0.0,0.0,0.0,0.0,0.0,0.0,0.0,0.0,0.0,0.0,0.0,0.0,0.0,0.0,0.0,-2.1585,-2.2012,-2.2016,-2.2076,-2.2334,-2.2942,-2.3504,-2.4096,-2.4823,-2.4311,-2.416,-2.4776,-2.4346,-2.4263,-2.4889,-2.4917,0.0,0.0,0.0,-2.4624,-2.4015,-2.4015,-2.3721,-2.3078,-2.3078,-2.3078,-2.3078,-2.3078,-2.3078,-2.3078,-2.3078,-2.2802,-2.2351,-2.2351,-2.17,-2.0639,-1.9434,-1.8632,-1.8094,-1.7606,-1.7105,-1.6729,0.0,0.0,0.0,0.0,0.0,0.0,0.0,0.0,0.0,-1.7027,-1.7248,-1.7617,-1.8127,-1.8979,-1.9728,-2.0248,-2.0607,-2.0679,0.0,0.0,-2.003,-2.0104,-2.054,-2.1023,-2.15,-2.2278,-2.2921,-2.343,-2.3535,-2.3377,-2.2889,-2.2889,-2.2603,-2.2081,-2.2081,-2.2002,-2.1746,-2.1348,-2.0944,-2.0547,-2.0079,-1.9458,-1.8738,-1.8312,-1.7777,-1.7149,-1.6771,-1.665,-1.668,-1.7073,-1.724,-1.7352,-1.772,0.0,0.0,0.0,0.0,0.0,0.0,0.0,0.0,0.0,0.0,0.0,0.0,0.0,0.0,0.0,0.0,0.0,0.0,0.0,0.0,-2.1313,-2.176,-2.215,-2.216,-2.2551,-2.3027,-2.3653,-2.3363,-2.363,-2.4803,-2.4321,-2.4259,-2.4902,-2.4833,-2.4819,-2.4997,-2.5011,-2.4786,-2.4292,-2.4292,-2.3943,-2.3305,-2.3305,-2.3245,-2.3078,-2.3078,0.0,-2.3078,-2.3078,-2.3078,-2.3078,-2.3078,-2.2955,-2.2807,-2.2807,-2.2043,-2.0779,-1.9405,-1.8425,-1.7846,-1.7747,-1.7636,-1.7488,0.0,0.0,0.0,0.0,0.0,0.0,0.0,0.0,0.0,0.0,-1.7034,-1.718,-1.752,-1.8524,-1.9244,-1.9482,-2.0305,0.0,0.0,-1.9945,-1.9945,-1.9945,-2.076,-2.1365,-2.168,-2.2637,-2.3295,-2.3595,-2.3377,-2.3009,-2.2512,-2.2249,-2.1874,-2.1396,-2.1348,-2.1202,-2.097,-2.066,-2.0359,-2.0156,-1.9901,-1.9497,-1.8932,-1.8325,-1.7796,-1.73,-1.6722,-1.6522,-1.6522,-1.6778,-1.6863,-1.6892,-1.7102,-1.7297,-1.7528,0.0,0.0,0.0,0.0,0.0,0.0,0.0,0.0,0.0,0.0,0.0,0.0,0.0,0.0,-2.0968,0.0,0.0,-2.1464,-2.1762,-2.2011,-2.2315,-2.2618,-2.2896,-2.3285,-2.3873,-2.3661,-2.3906,-2.4832,-2.4405,-2.4303,-2.4937,-2.4738,-2.4567,-2.4567,-2.4567,-2.4292,-2.3603,-2.3603,-2.3424,-2.3078,-2.3078,-2.3078,-2.3078,-2.3078,-2.3078,-2.3078,-2.3078,-2.3078,-2.3017,-2.3017,-2.2702,-2.2237,-2.1971,-2.1284,-2.0282,-1.9329,-1.8648,-1.8216,-1.8216,-1.8044,-1.7773,0.0,0.0,0.0,0.0,0.0,0.0,0.0,0.0,0.0,0.0,-1.6815,-1.6763,-1.6968,-1.7967,-1.8627,0.0,0.0,0.0,0.0,-1.9945,-1.998,-1.9711,-2.0857,-2.156,-2.1695,-2.2832,-2.3475,-2.3595,-2.3201,-2.2785,-2.2221,-2.1779,-2.1264,-2.0785,-2.0612,-2.0347,-2.0131,-2.0042,-1.9926,-1.9798,-1.9698,-1.9397,-1.8908,-1.8292,-1.7765,-1.73,-1.6722,-1.6522,-1.6522,-1.6522,-1.6522,-1.6522,-1.6522,-1.6854,-1.7333,-1.7756,-1.7886,0.0,0.0,0.0,0.0,0.0,0.0,0.0,0.0,0.0,-2.0157,-2.0523,-2.0625,-2.0736,-2.1287,-2.135,-2.1452,-2.199,-2.2177,-2.2379,-2.2855,-2.3031,-2.3267,-2.3748,-2.3803,-2.4102,-2.4741,-2.4292,-2.4118,-2.461,-2.4176,-2.3897,-2.3897,-2.3897,-2.3662,-2.3138,-2.3078,-2.3078,-2.3078,-2.3078,-2.3078,-2.3078,-2.3078,-2.3078,-2.3078,-2.3078,-2.2896,-2.2653,-2.2457,-2.2013,-2.133,-2.0862,-2.022,-1.9538,-1.9172,-1.8733,-1.835,-1.835,-1.8123,-1.7848,0.0,0.0,0.0,0.0,0.0,0.0,0.0,0.0,0.0,0.0,0.0,0.0,0.0,0.0,0.0,0.0,0.0,0.0,-1.9711,-1.9762,-1.9762,-1.969,-2.0423,-2.1096,-2.168,-2.2398,-2.3041,-2.3595,-2.3551,-2.329,-2.2799,-2.2282,-2.1704,-2.114,-2.0686,-2.0309,-2.0042,-1.999,-1.9926,-1.9761,-1.9296,-1.9033,-1.892,-1.7865,-1.7438,-1.73,-1.6722,-1.6522,-1.6522,-1.6522,-1.6522,-1.6522,-1.6522,-1.6917,-1.739,-1.7453,0.0,-1.8181,-1.8308,-1.8596,-1.8787,-1.8508,-1.943,-2.03,0.0,0.0,-2.1226,-2.1274,-2.0939,-2.0767,-2.1328,-2.1068,-2.0955,-2.1513,-2.1964,-2.2331,-2.2412,-2.2795,-2.3157,-2.3217,-2.3217,-2.3467,-2.4118,-2.3603,-2.3245,-2.3305,-2.3245,-2.3185,-2.3185,-2.3185,-2.3198,-2.3078,-2.3078,-2.3078,-2.3078,-2.3078,-2.3078,-2.3078,-2.3078,-2.3017,-2.2909,-2.2909,-2.2519,-2.1678,-2.091,-2.0526,-2.0451,-2.0224,-1.961,-1.8797,-1.8753,-1.8173,-1.7346,-1.7346,-1.7641,-1.7917,0.0,0.0,0.0,0.0,0.0,0.0,0.0,0.0,0.0,0.0,0.0,0.0,0.0,0.0,0.0,0.0,0.0,0.0,-1.9696,-1.969,-1.969,-1.969,-2.0348,-2.0842,-2.1111,-2.1769,-2.2413,-2.3056,-2.2786,-2.2703,-2.2889,-2.1988,-2.1417,-2.1175,-2.0536,-2.0144,-1.9965,-1.9598,-1.9409,-1.9309,-1.8769,-1.8355,-1.8016,-1.7551,-1.7174,-1.6886,-1.6986,-1.7024,0.0,0.0,-1.7237,-1.7438,-1.7124,-1.74,-1.7928,-1.8242,-1.8279,0.0,-1.8951,-1.9464,-1.9807,0.0,-2.0074,-2.039,-1.9898,-2.0128,-2.0484,-2.0484,-2.0295,-2.0335,-2.091,-2.0813,-2.0953,0.0,-2.2159,-2.2422,-2.2749,-2.2987,-2.3078,-2.3078,-2.3078,-2.3185,-2.3484,-2.3245,-2.3078,-2.3078,-2.3078,-2.3078,-2.3078,-2.3078,-2.3078,-2.3078,-2.3078,-2.3078,-2.3078,-2.3078,-2.3078,-2.2969,-2.2969,-2.2702,-2.2125,-2.2125,-2.1678,-2.0782,-1.9944,-1.9552,-1.9562,-1.9497,-1.8902,-1.8078,-1.8139,-1.7546,-1.6698,-1.709,-1.7368,-1.7501,0.0,0.0,0.0,0.0,0.0,0.0,0.0,0.0,0.0,0.0,0.0,0.0,0.0,0.0,0.0,0.0,0.0,0.0,0.0,-1.9585,-1.969,-1.969,-2.0168,-2.0513,-2.0722,-2.1186,-2.1739,-2.2398,-2.2052,-2.2046,-2.2367,-2.1393,-2.0833,-2.0643,-1.9907,-1.9585,-1.9459,-1.897,-1.8794,-1.8756,-1.8204,-1.7739,-1.7363,-1.72,-1.6886,-1.6597,-1.7174,-1.7388,0.0,0.0,-1.7877,-1.8141,-1.7739,-1.799,-1.8505,-1.892,-1.8844,-1.8828,-1.9587,0.0,0.0,-2.0359,-2.0359,-2.0258,-1.9901,-1.9798,-1.9798,-1.9798,-1.9798,-1.9974,-2.0618,-2.0718,-2.1029,-2.2133,-2.2309,-2.2498,-2.3002,-2.3078,-2.3078,-2.3078,-2.3078,-2.3078,-2.3078,-2.3078,-2.3078,-2.3078,-2.3078,-2.3078,-2.3078,-2.3078,-2.3078,-2.3078,-2.3078,-2.3017,-2.3017,-2.3017,-2.2836,-2.2519,-2.2519,-2.2063,-2.1227,-2.0974,-2.0526,-1.9879,-1.911,-1.8721,-1.8721,-1.8721,-1.8192,-1.7336,-1.7471,-1.69,-1.6083,-1.6528,-1.681,-1.6922,0.0,0.0,0.0,0.0,0.0,0.0,0.0,0.0,0.0,0.0,0.0,0.0,0.0,0.0,0.0,0.0,0.0,0.0,0.0,-1.9331,-1.969,-1.969,-1.9705,-2.0034,-2.0707,-2.0737,-2.1066,-2.1724,-2.1724,-2.1524,-2.1143,-2.0571,-1.9968,-1.936,-1.8864,-1.8503,-1.8254,-1.8242,-1.8229,-1.8179,-1.7626,-1.74,-1.7325,-1.676,-1.6534,-1.6597,-1.7174,0.0,0.0,0.0,-1.8191,-1.8204,-1.8191,-1.8555,0.0,-1.902,-1.9371,0.0,0.0,0.0,-1.9798,-1.9798,-1.9798,-1.9798,-1.9798,-1.9798,-1.9798,-1.9798,-1.9798,-1.9974,-2.0618,-2.0718,-2.1029,-2.2133,-2.2309,-2.2498,-2.3002,-2.3078,-2.3078,-2.3078,-2.3078,-2.3078,0.0,-2.3078,-2.3078,-2.3078,-2.3078,-2.3078,-2.3078,-2.3078,-2.3078,-2.3078,-2.2969,-2.2909,-2.2909,-2.28,-2.2347,-2.1616,-2.1616,-2.1164,-2.0333,-1.9497,-1.9044,-1.8977,-1.8327,-1.8008,-1.8008,-1.8008,-1.75,-1.6728,-1.6728,-1.6191,-1.541,-1.5468,-1.5806,-1.6255,0.0,0.0,0.0,0.0,0.0,0.0,0.0,0.0,0.0,0.0,0.0,0.0,0.0,0.0,0.0,0.0,0.0,0.0,0.0,-1.8912,-1.9226,-1.966,-1.969,-1.9794,-2.0034,-2.0034,-2.0236,-2.0631,-2.0631,-2.0622,-2.0557,-1.9956,-1.9458,-1.9131,-1.8601,-1.8298,-1.8179,-1.7815,-1.7664,-1.7614,-1.7036,-1.681,-1.6785,-1.6597,-1.6522,-1.6597,0.0,0.0,0.0,0.0,0.0,0.0,-1.8697,-1.8958,0.0,-1.9394,-1.957,-1.9798,-1.9798,0.0,-1.9798,-1.9798,-2.0087,-2.0275,-1.9886,-2.01,-2.0263,-1.9874,-1.9798,-1.9974,-2.0618,-2.0718,-2.0903,-2.1644,-2.2071,-2.2372,-2.256,-2.2912,-2.3078,-2.3078,-2.3078,0.0,0.0,0.0,0.0,-2.3078,-2.3078,-2.3078,-2.3078,-2.3017,-2.2969,-2.2969,-2.286,-2.2531,-2.2063,-2.2013,-2.1565,-2.0719,-2.0139,-1.9748,-1.942,-1.8654,-1.8327,-1.8327,-1.8076,-1.8008,-1.8008,-1.8008,-1.751,-1.6665,-1.6665,-1.6191,-1.541,-1.541,-1.5517,-1.569,0.0,0.0,0.0,0.0,0.0,0.0,0.0,0.0,0.0,0.0,0.0,0.0,0.0,0.0,0.0,0.0,0.0,0.0,0.0,0.0,-1.8862,-1.9316,-1.9555,-1.969,-1.969,-1.9705,-1.9768,-1.9918,-1.9865,-1.9742,-1.9489,-1.9068,-1.8652,-1.8226,-1.7816,-1.766,-1.7576,-1.7225,-1.7074,-1.7036,-1.6672,-1.6522,-1.6522,-1.6522,-1.6522,0.0,0.0,0.0,0.0,0.0,0.0,0.0,-1.9043,-1.9228,-1.9565,-1.9617,-1.9656,-1.9759,-1.9798,-1.9949,-2.0112,-2.0112,-2.0388,-2.0618,-2.02,-2.0238,-2.025,-1.9874,-1.9798,-1.9911,-2.0288,-2.0351,-2.0539,-2.1104,-2.1656,-2.2083,-2.2284,-2.2786,-2.3078,-2.3078,-2.3078,-2.3078,0.0,0.0,0.0,-2.3078,-2.3078,-2.3017,-2.3017,-2.2909,-2.2726,-2.2457,-2.2543,-2.2223,-2.1565,-2.1439,-2.0921,-1.9814,-1.9034,-1.8654,-1.8654,-1.8202,-1.8008,-1.8008,-1.8008,-1.8008,-1.8008,-1.8008,-1.751,-1.6665,-1.6665,-1.6191,-1.541,-1.541,-1.541,-1.541,0.0,0.0,0.0,0.0,0.0,0.0,0.0,0.0,0.0,0.0,0.0,0.0,0.0,0.0,0.0,0.0,0.0,0.0,0.0,0.0,0.0,-1.8623,-1.9286,-1.963,-1.963,-1.9617,-1.9574,-1.9574,-1.9413,-1.8921,-1.8066,-1.8066,-1.7571,-1.6675,-1.6675,-1.662,-1.6522,-1.6522,-1.6522,-1.6522,-1.6522,-1.6522,-1.6522,-1.6522,0.0,0.0,0.0,0.0,0.0,0.0,0.0,0.0,0.0,-1.9396,-1.942,-1.9565,-1.9617,-1.9668,-1.9784,-2.025,-2.0718,-2.0718,-2.0743,-2.0743,-2.0693,-2.0213,-1.9836,-1.9811,-1.9798,-1.9798,0.0,0.0,-1.9987,-2.0539,-2.1091,-2.1644,-2.2184,-2.2689,-2.304,0.0,0.0,0.0,0.0,0.0,0.0,-2.2982,-2.2909,-2.2848,-2.2848,-2.2678,-2.2285,-2.1553,-2.2025,-2.1975,-2.1262,-2.106,-2.0279,-1.8911,-1.8269,-1.8008,-1.8008,-1.8008,-1.8008,-1.8008,-1.8008,-1.8008,-1.8008,-1.7988,-1.749,-1.6665,-1.6709,-1.6172,-1.541,-1.541,-1.541,-1.541,0.0,0.0,0.0,0.0,0.0,0.0,0.0,0.0,0.0,0.0,0.0,0.0,0.0,0.0,0.0,0.0,0.0,0.0,0.0,0.0,0.0,0.0,0.0,0.0,0.0,0.0,0.0,0.0,0.0,-1.8344,-1.7666,-1.7352,-1.6976,-1.6565,-1.6565,-1.6522,-1.6522,-1.6522,-1.6522,-1.6522,0.0,-1.6522,-1.6522,0.0,0.0,0.0,0.0,0.0,0.0,0.0,0.0,0.0,0.0,-1.914,-1.9565,-1.9617,-1.9656,-1.9847,-2.0326,-2.0605,-2.0718,-2.0718,-2.0978,-2.1054,-2.0213,-2.0238,-2.0326,-1.9886,-1.9708,-1.9656,0.0,0.0,0.0,-1.9855,-2.0448,0.0,-2.1462,-2.201,0.0,-2.275,0.0,-2.2604,-2.2063,-2.1939,0.0,0.0,-2.1827,-2.1939,-2.1939,-2.1302,-2.0858,-2.0655,-2.0666,-2.0355,-1.9628,-1.9044,-1.8596,-1.8269,-1.8076,-1.8008,-1.8008,-1.8008,-1.8008,-1.8008,-1.8008,-1.8008,-1.7988,-1.7676,-1.7227,-1.6699,-1.6367,-1.5898,-1.541,-1.541,-1.541,-1.541,0.0,0.0,0.0,0.0,0.0,0.0,0.0,0.0,0.0,0.0,0.0,0.0,0.0,0.0,0.0,0.0,0.0,0.0,0.0,0.0,0.0,0.0,0.0,0.0,0.0,0.0,0.0,0.0,0.0,0.0,0.0,-1.7323,-1.6947,-1.682,-1.6607,-1.6522,-1.6522,-1.6522,0.0,0.0,0.0,0.0,0.0,0.0,0.0,0.0,0.0,0.0,0.0,0.0,0.0,-1.8092,-1.8335,-1.8666,-1.9049,-1.9347,0.0,-1.9688,-2.03,-2.0677,-2.0852,-2.0852,-2.1088,-2.1131,-2.0163,-2.0079,-2.0095,-1.9731,-1.9565,0.0,0.0,0.0,0.0,0.0,0.0,0.0,-2.1082,-2.1638,-2.2063,0.0,-2.2223,0.0,-2.1475,-2.1369,-2.1379,0.0,-2.1316,-2.1396,-2.1613,-2.0896,-2.0325,-2.0071,-2.0074,-1.977,-1.8977,-1.8654,-1.8269,-1.8008,-1.8008,-1.8008,-1.8008,-1.8008,-1.8008,-1.8008,-1.8008,-1.8008,-1.7978,-1.7559,-1.7129,-1.6689,-1.624,-1.5791,-1.541,-1.5303,-1.5118,-1.4874,0.0,0.0,0.0,0.0,0.0,0.0,0.0,0.0,0.0,0.0,0.0,0.0,0.0,0.0,0.0,0.0,0.0,0.0,0.0,0.0,0.0,0.0,0.0,0.0,0.0,0.0,0.0,0.0,0.0,0.0,0.0,0.0,0.0,0.0,0.0,0.0,0.0,0.0,0.0,0.0,0.0,0.0,0.0,0.0,0.0,0.0,0.0,0.0,0.0,0.0,-1.6566,-1.74,-1.7929,-1.8196,-1.8365,-1.9064,-1.917,-1.9291,-2.0116,-2.0569,-2.0831,-2.0949,-2.1026,-2.0884,-2.0244,-1.9805,-1.9512,-1.9303,0.0,-1.9093,-1.8578,-1.8417,-1.8363,-1.8471,0.0,-1.9518,-2.0621,-2.1168,-2.1464,-2.1463,-2.1381,-2.1273,-2.0975,-2.0885,-2.0924,-2.1252,-2.104,-2.0997,-2.1413,-2.0838,-2.0191,-1.9599,-1.9751,-1.9507,-1.8844,-1.8844,-1.8596,-1.8008,-1.8008,-1.8008,-1.8008,-1.8008,-1.794,-1.7872,-1.7872,-1.7794,-1.7687,-1.7216,-1.6737,-1.6354,-1.5856,-1.5504,-1.5177,-1.4961,-1.4588,-1.4145,0.0,0.0,0.0,0.0,0.0,0.0,0.0,0.0,0.0,0.0,0.0,0.0,0.0,0.0,0.0,0.0,0.0,0.0,0.0,0.0,0.0,0.0,0.0,0.0,0.0,0.0,0.0,0.0,0.0,0.0,0.0,0.0,0.0,0.0,0.0,0.0,0.0,0.0,0.0,0.0,0.0,0.0,0.0,0.0,0.0,0.0,0.0,0.0,0.0,0.0,-1.6336,-1.6987,-1.7509,-1.8093,-1.8619,-1.9209,-1.9028,-1.8964,-2.0446,-2.029,-1.9909,-2.0807,-2.0699,-2.0219,-1.9679,-1.9482,0.0,0.0,-1.859,-1.8441,-1.8321,-1.7941,0.0,-1.8267,0.0,0.0,0.0,0.0,-1.9701,0.0,0.0,0.0,0.0,0.0,0.0,0.0,-1.9962,-2.0212,-2.0481,-1.991,-1.928,-1.8783,-1.8487,-1.8269,-1.8134,-1.8134,-1.8144,-1.8008,-1.8008,-1.8008,-1.8008,-1.8008,-1.7657,-1.7079,-1.7079,-1.6724,-1.6044,-1.5277,-1.488,-1.4685,-1.3862,-1.3847,-1.4145,-1.3614,-1.3674,-1.3965,0.0,0.0,0.0,0.0,0.0,0.0,0.0,0.0,0.0,0.0,0.0,0.0,0.0,0.0,0.0,0.0,0.0,0.0,0.0,0.0,0.0,0.0,0.0,0.0,0.0,0.0,0.0,0.0,0.0,0.0,0.0,0.0,0.0,0.0,0.0,0.0,0.0,0.0,0.0,0.0,0.0,0.0,0.0,0.0,0.0,0.0,0.0,0.0,0.0,0.0,-1.5633,-1.6007,-1.6539,-1.7108,-1.763,-1.8203,-1.81,-1.8132,-1.9521,-1.9319,-1.8794,-1.9321,-1.9307,-1.906,-1.8762,0.0,0.0,0.0,-1.8267,-1.7984,-1.7368,0.0,0.0,0.0,0.0,0.0,0.0,0.0,0.0,0.0,0.0,0.0,0.0,0.0,-1.9252,-1.9561,-1.9805,-2.0062,-2.0456,-1.9742,-1.9082,-1.8582,-1.8223,-1.8008,-1.8008,-1.8008,-1.8008,-1.8008,-1.8008,-1.8008,-1.8008,-1.7579,-1.7226,-1.6862,-1.6376,-1.5844,-1.5265,-1.458,-1.4113,-1.3944,-1.3285,-1.3191,-1.3425,-1.307,-1.2879,-1.281,0.0,0.0,0.0,0.0,0.0,0.0,0.0,0.0,0.0,0.0,0.0,0.0,0.0,0.0,0.0,0.0,0.0,0.0,0.0,0.0,0.0,0.0,0.0,0.0,0.0,0.0,0.0,0.0,0.0,0.0,0.0,0.0,0.0,0.0,0.0,0.0,0.0,0.0,0.0,0.0,0.0,0.0,0.0,0.0,0.0,0.0,0.0,0.0,0.0,0.0,-1.5108,-1.5131,-1.5332,-1.5864,-1.6491,-1.7105,-1.7167,-1.7255,-1.8419,-1.8191,-1.7665,-1.7948,-1.8019,-1.7956,-1.791,-1.7995,0.0,0.0,-1.7699,-1.7424,-1.6472,0.0,0.0,0.0,0.0,0.0,0.0,0.0,0.0,0.0,0.0,0.0,0.0,0.0,0.0,-1.959,-1.9727,-1.9971,-2.04,-1.9707,-1.9082,-1.8582,-1.8223,-1.8008,-1.8008,-1.8008,-1.8008,-1.8008,-1.7862,-1.7725,-1.7657,-1.6941,-1.6507,-1.6228,-1.5525,-1.4903,-1.4396,-1.3838,-1.3411,-1.306,-1.2655,-1.2581,-1.2642,-1.2397,-1.2089,-1.1717,0.0,0.0,0.0,0.0,0.0,0.0,0.0,0.0,0.0,0.0,0.0,0.0,0.0,0.0,0.0,0.0,0.0,0.0,0.0,0.0,0.0,0.0,0.0,0.0,0.0,0.0,0.0,0.0,0.0,0.0,0.0,0.0,0.0,0.0,0.0,0.0,0.0,0.0,0.0,0.0,0.0,0.0,0.0,0.0,0.0,0.0,0.0,0.0,0.0,0.0,0.0,-1.4926,-1.4089,-1.4767,-1.5983,-1.6519,0.0,0.0,-1.7781,-1.7309,-1.6696,-1.7745,-1.7641,-1.7312,-1.7268,0.0,0.0,-1.6585,-1.6472,-1.6415,-1.6312,-1.5864,0.0,0.0,0.0,0.0,0.0,0.0,0.0,0.0,0.0,0.0,0.0,0.0,-1.8601,-1.8679,-1.9121,-1.9531,-1.9951,-1.9541,-1.9082,-1.8582,-1.8223,-1.8008,-1.8008,-1.8008,-1.8008,-1.8008,-1.7295,-1.6872,-1.6673,-1.5956,-1.5108,-1.425,-1.4186,-1.3573,-1.2692,-1.2164,-1.1787,-1.1486,-1.0987,-1.1178,-1.1545,-1.0996,-1.1115,-1.1421,0.0,0.0,0.0,0.0,0.0,0.0,0.0,0.0,0.0,0.0,0.0,0.0,0.0,0.0,0.0,0.0,0.0,0.0,0.0,0.0,0.0,0.0,0.0,0.0,0.0,0.0,0.0,0.0,0.0,0.0,0.0,0.0,0.0,0.0,0.0,0.0,0.0,0.0,0.0,0.0,0.0,0.0,0.0,0.0,0.0,0.0,0.0,0.0,0.0,0.0,0.0,0.0,-1.3035,-1.3511,0.0,0.0,-1.5339,-1.5568,-1.6406,-1.6182,-1.5846,-1.6297,-1.6273,-1.6197,-1.6585,0.0,-1.6585,-1.6368,-1.6312,-1.6197,-1.5806,-1.5575,-1.5468,0.0,0.0,0.0,0.0,0.0,0.0,0.0,0.0,0.0,0.0,0.0,-1.8359,-1.8553,-1.9043,-1.902,-1.8486,-1.8335,-1.8165,-1.7924,-1.7092,-1.6594,-1.6594,-1.6524,-1.6524,-1.6524,-1.6088,-1.5807,-1.5737,-1.4966,-1.4394,-1.3962,-1.3265,-1.2579,-1.1999,-1.1492,-1.1127,-1.085,-1.0665,-1.0744,-1.0933,-1.0688,-1.0744,-1.0933,0.0,0.0,0.0,0.0,0.0,0.0,0.0,0.0,0.0,0.0,0.0,0.0,0.0,0.0,0.0,0.0,0.0,0.0,0.0,0.0,0.0,0.0,0.0,0.0,0.0,0.0,0.0,-1.5313,-1.5056,-1.4825,0.0,0.0,-1.3881,0.0,0.0,0.0,0.0,0.0,0.0,0.0,0.0,0.0,0.0,0.0,0.0,0.0,0.0,0.0,0.0,0.0,0.0,0.0,0.0,0.0,0.0,0.0,-1.4314,-1.4897,-1.532,-1.5419,-1.541,-1.541,-1.541,-1.5526,0.0,0.0,-1.6026,-1.6026,-1.6026,-1.5911,-1.5468,-1.541,-1.541,0.0,0.0,0.0,0.0,0.0,0.0,0.0,0.0,0.0,0.0,-1.8008,-1.8135,-1.8428,-1.8518,-1.818,-1.725,-1.6804,-1.666,-1.6947,-1.6104,-1.5675,-1.5675,-1.5463,-1.5384,-1.5384,-1.5029,-1.4807,-1.4736,-1.3962,-1.3535,-1.3448,-1.2492,-1.1914,-1.1608,-1.1182,-1.0822,-1.0624,-1.0624,-1.0624,-1.0624,-1.0624,-1.0624,-1.0624,0.0,0.0,0.0,0.0,0.0,0.0,0.0,0.0,0.0,0.0,0.0,0.0,0.0,0.0,0.0,0.0,0.0,0.0,0.0,0.0,0.0,0.0,0.0,0.0,0.0,0.0,0.0,-1.5313,-1.5313,-1.4887,-1.413,-1.456,-1.4351,-1.3514,0.0,0.0,0.0,0.0,0.0,0.0,0.0,0.0,0.0,0.0,0.0,0.0,0.0,0.0,0.0,0.0,0.0,0.0,0.0,0.0,0.0,0.0,-1.3727,-1.4785,-1.4785,-1.5098,-1.541,-1.541,-1.541,-1.541,0.0,0.0,-1.541,-1.541,-1.541,-1.541,-1.541,-1.541,-1.541,-1.541,0.0,0.0,0.0,0.0,0.0,0.0,0.0,0.0,-1.8008,-1.8008,-1.8008,-1.8018,-1.7304,-1.6802,-1.6645,-1.518,-1.4768,-1.5675,-1.5604,-1.5534,-1.5534,-1.5313,-1.5234,-1.5163,-1.4394,-1.3897,-1.3673,-1.2959,-1.2526,-1.2285,-1.1997,-1.1697,-1.1403,-1.1109,-1.0822,-1.0624,-1.0624,-1.0624,-1.0624,-1.0624,-1.0624,-1.0624,0.0,0.0,0.0,0.0,0.0,0.0,0.0,0.0,0.0,0.0,0.0,0.0,0.0,0.0,0.0,0.0,0.0,0.0,0.0,0.0,0.0,0.0,0.0,0.0,0.0,0.0,0.0,-1.5551,-1.5536,-1.5285,-1.4842,-1.442,-1.4098,-1.3835,-1.3399,0.0,0.0,0.0,0.0,0.0,0.0,0.0,0.0,0.0,0.0,0.0,0.0,0.0,0.0,0.0,0.0,0.0,0.0,0.0,0.0,0.0,0.0,0.0,-1.3706,-1.4371,-1.5049,-1.5342,-1.541,-1.541,-1.541,-1.541,-1.541,-1.541,-1.541,-1.541,-1.541,-1.541,-1.541,-1.541,-1.541,0.0,0.0,0.0,0.0,0.0,0.0,0.0,0.0,0.0,-1.7226,-1.7226,-1.6446,-1.5675,-1.5037,-1.4402,-1.4258,-1.4537,-1.4042,-1.3753,-1.3753,-1.3535,-1.3455,-1.3455,-1.3025,-1.2806,-1.2732,-1.2519,-1.2264,-1.1991,-1.1697,-1.1396,-1.1109,-1.0815,-1.0705,-1.0624,-1.0624,-1.0624,-1.0624,-1.0624,-1.0624,-1.0561,0.0,0.0,0.0,0.0,0.0,0.0,0.0,0.0,0.0,0.0,0.0,0.0,0.0,0.0,0.0,0.0,0.0,0.0,0.0,0.0,0.0,0.0,0.0,0.0,0.0,0.0,-1.5492,-1.5448,-1.5256,-1.5029,-1.4686,-1.4227,-1.3967,-1.3868,-1.3433,0.0,0.0,0.0,0.0,0.0,0.0,0.0,-1.2981,0.0,0.0,0.0,0.0,0.0,0.0,0.0,0.0,0.0,0.0,0.0,0.0,0.0,-1.084,0.0,0.0,-1.3433,-1.4156,-1.4399,-1.476,0.0,0.0,-1.5235,-1.541,-1.541,-1.541,-1.541,-1.541,-1.541,-1.541,-1.541,-1.541,0.0,0.0,0.0,0.0,0.0,0.0,0.0,0.0,-1.6977,-1.6645,-1.6298,-1.5455,-1.4681,-1.4114,-1.368,-1.3462,-1.339,-1.2966,-1.2826,-1.2826,-1.2599,-1.2526,-1.2526,-1.2378,-1.2305,-1.2305,-1.2305,-1.2144,-1.1857,-1.1557,-1.1263,0.0,-1.0681,-1.0624,-1.0624,-1.0624,-1.0428,-1.0168,-1.0168,-1.004,-0.9716,0.0,0.0,0.0,0.0,0.0,0.0,0.0,0.0,0.0,0.0,0.0,0.0,0.0,0.0,0.0,0.0,0.0,0.0,0.0,0.0,0.0,0.0,0.0,0.0,0.0,-1.5565,-1.5163,-1.5043,-1.4721,-1.4374,-1.3967,-1.3967,-1.3868,-1.3715,-1.3769,-1.3735,-1.3581,-1.2943,-1.2627,-1.2473,-1.209,-1.2102,0.0,0.0,0.0,0.0,0.0,0.0,0.0,0.0,0.0,0.0,0.0,0.0,0.0,0.0,0.0,0.0,0.0,0.0,0.0,0.0,0.0,0.0,0.0,-1.4824,0.0,-1.5294,-1.5294,-1.5294,-1.5294,-1.5352,-1.5352,-1.5235,0.0,0.0,0.0,0.0,0.0,0.0,0.0,0.0,-1.6008,-1.6204,-1.607,-1.5163,-1.4394,-1.3825,-1.36,-1.2959,-1.2526,-1.2305,-1.2452,-1.2599,-1.2599,-1.2378,-1.2305,-1.2305,-1.2305,-1.2305,-1.2305,-1.2278,-1.2111,-1.1824,-1.1523,-1.1229,-1.0942,-1.0675,-1.0561,-1.0491,-1.0491,-1.0104,-0.9454,-0.9454,-0.9005,-0.849,0.0,0.0,0.0,0.0,0.0,0.0,0.0,0.0,0.0,0.0,0.0,0.0,0.0,0.0,0.0,0.0,0.0,0.0,0.0,0.0,0.0,0.0,0.0,0.0,0.0,-1.5595,-1.5418,-1.5389,-1.5255,-1.5027,-1.4655,-1.4032,-1.3735,-1.3682,-1.3207,-1.2978,-1.2908,-1.265,-1.2544,-1.2461,-1.2246,-1.1982,0.0,0.0,0.0,0.0,-1.1562,-1.1297,0.0,0.0,0.0,0.0,0.0,0.0,0.0,0.0,-0.9263,-0.9427,-0.9761,0.0,-1.1982,-1.2562,-1.2889,-1.3092,0.0,0.0,0.0,0.0,0.0,0.0,0.0,0.0,0.0,0.0,0.0,0.0,0.0,0.0,0.0,0.0,-1.542,-1.5367,-1.6369,-1.5325,-1.453,-1.4322,-1.3462,-1.2893,-1.2886,-1.2526,-1.2378,-1.2305,-1.2378,-1.2378,-1.2378,-1.2298,-1.2305,-1.2305,-1.2305,-1.2305,-1.2291,-1.2071,-1.181,-1.1516,-1.1223,-1.0929,-1.0719,-1.0651,-1.0301,-0.9779,-0.9779,-0.9326,-0.8748,-0.8748,-0.8619,-0.8425,0.0,0.0,0.0,0.0,0.0,0.0,0.0,0.0,0.0,0.0,0.0,0.0,0.0,0.0,0.0,0.0,0.0,0.0,0.0,0.0,0.0,0.0,0.0,0.0,0.0,-1.5551,-1.5344,-1.5193,-1.4996,-1.4811,-1.462,-1.3835,-1.3535,-1.3682,-1.3138,-1.2791,-1.2591,-1.252,-1.2318,-1.209,-1.1982,0.0,0.0,0.0,0.0,0.0,-1.0661,-1.0351,0.0,-1.0236,-0.9855,-0.9204,0.0,0.0,0.0,0.0,-0.8738,-0.9008,-0.9008,-0.9855,-1.0771,-1.1151,-1.1707,-1.2169,0.0,0.0,0.0,0.0,0.0,0.0,0.0,0.0,0.0,0.0,0.0,0.0,0.0,0.0,0.0,0.0,-1.4439,-1.4438,0.0,-1.4292,-1.3673,-1.3244,-1.2739,-1.2452,-1.2452,-1.2378,-1.2305,-1.2305,-1.2305,-1.2305,-1.2305,-1.2305,-1.2305,-1.2305,-1.2305,-1.2231,-1.2098,-1.1944,-1.1637,-1.1223,-1.1062,-1.0627,-1.0104,-1.0104,-0.9652,-0.9069,-0.9069,-0.8619,-0.8037,-0.8037,-0.7847,-0.7456,0.0,0.0,0.0,0.0,0.0,0.0,0.0,0.0,0.0,0.0,0.0,0.0,0.0,0.0,0.0,0.0,0.0,0.0,0.0,0.0,0.0,0.0,0.0,0.0,-1.5976,-1.5551,-1.5178,-1.4871,-1.4588,-1.4429,-1.4365,-1.3669,-1.3467,-1.3602,-1.3195,-1.2814,-1.2473,-1.2401,-1.2102,-1.1689,-1.1605,0.0,0.0,0.0,0.0,0.0,0.0,0.0,0.0,-0.9173,-0.8959,-0.8586,-0.8037,0.0,0.0,0.0,0.0,0.0,-0.8646,-0.9032,-0.9446,-0.9611,-1.045,-1.1277,0.0,0.0,0.0,0.0,0.0,0.0,0.0,0.0,0.0,0.0,0.0,0.0,0.0,0.0,0.0,-1.3316,-1.3574,0.0,-1.3234,-1.3373,-1.3164,-1.2372,-1.2305,-1.2305,-1.2305,-1.2305,-1.2305,-1.2305,-1.2305,-1.2305,-1.2305,-1.2305,-1.2305,-1.2305,-1.2305,-1.2151,-1.187,-1.1824,-1.1503,-1.0857,-1.0811,-1.0257,-0.9326,-0.9326,-0.8935,-0.8361,-0.8361,-0.7907,-0.733,-0.7326,-0.6937,-0.635,0.0,0.0,0.0,0.0,0.0,0.0,0.0,0.0,0.0,0.0,0.0,0.0,0.0,0.0,0.0,0.0,0.0,0.0,0.0,0.0,0.0,0.0,0.0,-1.597,-1.5913,-1.5639,-1.5344,-1.5147,-1.5086,-1.4963,-1.47,-1.4319,-1.3815,-1.316,-1.2779,-1.2544,-1.2413,-1.2282,-1.2162,-1.2054,-1.17,0.0,0.0,0.0,0.0,0.0,0.0,0.0,0.0,-0.9099,-0.8684,-0.8037,-0.7925,0.0,0.0,0.0,0.0,0.0,-0.7931,-0.8115,-0.8369,-0.9117,-0.9417,-0.9726,0.0,0.0,0.0,0.0,0.0,0.0,0.0,0.0,0.0,0.0,0.0,0.0,0.0,0.0,-1.2374,-1.3088,0.0,-1.2462,-1.3539,-1.2924,-1.2445,-1.2305,-1.2305,-1.2305,-1.2305,-1.2305,-1.2305,-1.2305,-1.2305,-1.2305,-1.2305,-1.2305,-1.2305,-1.2305,-1.2305,-1.2151,-1.1864,-1.161,-1.0963,-1.011,-0.9876,-0.9297,-0.8678,-0.8678,-0.8231,-0.7652,-0.7652,-0.7199,-0.6548,-0.6412,-0.6342,-0.6214,0.0,0.0,0.0,0.0,0.0,0.0,0.0,0.0,0.0,0.0,0.0,0.0,0.0,0.0,0.0,0.0,0.0,0.0,0.0,0.0,0.0,0.0,-1.5551,-1.5668,-1.5668,-1.5477,-1.5298,-1.5192,-1.5056,-1.4932,-1.4808,-1.4189,-1.3501,-1.2743,-1.2234,-1.1982,-1.1957,-1.1616,-1.1234,-1.0799,0.0,0.0,0.0,0.0,0.0,0.0,0.0,0.0,0.0,0.0,-0.7383,-0.7268,-0.6865,0.0,0.0,0.0,0.0,0.0,-0.7402,-0.745,-0.7639,-0.8304,-0.8838,-0.9256,0.0,0.0,0.0,0.0,0.0,0.0,0.0,0.0,0.0,0.0,0.0,-1.1108,-1.087,-1.1052,-1.1397,0.0,0.0,-1.1867,-1.2663,-1.2497,-1.2305,-1.2305,-1.2305,-1.2305,-1.2305,-1.2305,-1.2305,-1.2305,-1.2305,-1.2305,-1.2305,-1.1773,-1.1695,-1.2064,-1.2064,-1.1688,-1.0904,-1.0702,-1.0086,-0.9171,-0.9051,-0.8554,-0.7972,-0.7837,-0.7381,-0.6802,-0.6675,-0.6412,-0.6152,-0.6086,-0.6017,-0.5951,0.0,0.0,0.0,0.0,0.0,0.0,0.0,0.0,0.0,0.0,0.0,0.0,0.0,0.0,0.0,0.0,0.0,0.0,0.0,0.0,-1.6733,-1.5163,-1.5433,-1.5565,-1.5507,-1.5254,-1.5102,-1.5041,-1.4749,-1.456,-1.4465,-1.3835,-1.3195,-1.2544,-1.1872,-1.1579,-1.1542,-1.0981,-1.0321,-0.9737,0.0,0.0,0.0,0.0,0.0,0.0,0.0,0.0,0.0,0.0,0.0,0.0,0.0,0.0,0.0,-0.5719,-0.6046,-0.6593,-0.6756,-0.681,-0.6972,-0.7551,0.0,-0.8932,-0.9163,0.0,0.0,0.0,0.0,0.0,0.0,0.0,0.0,0.0,-1.0624,-1.0624,-1.0624,-1.0624,-1.0668,-1.0955,-1.1189,-1.1443,-1.1737,-1.2031,-1.2204,-1.2204,-1.2265,-1.2305,-1.2305,-1.2305,-1.2305,-1.2305,-1.2084,-1.1972,-1.1972,-1.0887,-1.0789,-1.165,-1.1365,-1.0723,-0.9716,-0.9644,-0.9107,-0.8096,-0.8096,-0.7777,-0.7129,-0.6789,-0.633,-0.5811,-0.5484,-0.5488,-0.5624,-0.5756,-0.569,-0.5422,0.0,0.0,0.0,0.0,0.0,0.0,0.0,0.0,0.0,0.0,0.0,0.0,0.0,0.0,0.0,0.0,0.0,0.0,0.0,0.0,-1.6961,-1.4904,-1.5505,-1.5747,-1.5507,-1.5165,-1.4876,-1.4627,-1.4187,-1.3795,-1.3509,-1.3387,-1.3126,-1.2733,-1.1945,-1.1579,-1.1431,-1.0608,-1.0186,-1.0001,-0.9226,0.0,0.0,0.0,0.0,0.0,0.0,0.0,0.0,0.0,0.0,0.0,0.0,0.0,-0.4952,-0.434,-0.456,-0.5171,-0.5719,-0.5996,-0.6218,-0.6799,0.0,0.0,-0.9007,0.0,0.0,0.0,0.0,0.0,0.0,0.0,0.0,0.0,-1.0624,-1.0624,-1.0624,0.0,-1.0668,-1.0955,-1.1009,-1.1136,-1.143,-1.1724,-1.1904,-1.1904,-1.2151,-1.2305,-1.2305,-1.2305,-1.2305,-1.2305,-1.1373,-1.0947,-1.0947,-0.976,-0.9755,-1.0844,-0.982,-0.9087,-0.8778,-0.8633,-0.7969,-0.699,-0.699,-0.6605,-0.5954,-0.5282,-0.4945,-0.4815,-0.4146,-0.4217,-0.4758,-0.5418,-0.5084,-0.442,0.0,0.0,0.0,0.0,0.0,0.0,0.0,0.0,0.0,0.0,0.0,0.0,0.0,0.0,0.0,0.0,0.0,0.0,0.0,0.0,-1.6397,-1.5096,-1.4687,-1.4142,-1.3474,-1.4114,-1.4392,-1.4347,-1.3861,-1.3153,-1.2354,-1.2236,-1.1698,-1.0833,-1.0244,-0.9953,-0.9914,-0.9244,-0.8763,-0.848,-0.8244,-0.7833,0.0,0.0,0.0,0.0,0.0,0.0,0.0,0.0,-0.3786,-0.3766,0.0,-0.3674,-0.3785,-0.3846,-0.4122,-0.4508,-0.5175,-0.5399,-0.5618,-0.6312,0.0,0.0,0.0,0.0,0.0,0.0,0.0,0.0,0.0,0.0,0.0,-1.0624,-1.0624,-1.0624,-1.0624,-1.0624,-1.0665,-1.0715,-1.0882,-1.1035,-1.1142,-1.1423,-1.159,-1.159,-1.1697,-1.1757,-1.1757,-1.1757,-1.1539,-1.1108,-1.0655,-1.0178,-0.9749,-0.8602,-0.8255,-0.8682,-0.8663,-0.8305,-0.7565,-0.7494,-0.7061,-0.628,-0.628,-0.6148,-0.5822,-0.5024,-0.4688,-0.4622,-0.3749,-0.3549,-0.3751,-0.4018,-0.3882,-0.3551,0.0,0.0,0.0,0.0,0.0,0.0,0.0,0.0,0.0,0.0,0.0,0.0,0.0,0.0,0.0,0.0,0.0,0.0,0.0,0.0,-1.5664,-1.4679,-1.416,-1.3347,-1.213,-1.2898,-1.3331,-1.3419,-1.297,-1.2177,-1.1063,-1.1042,-1.0527,0.0,-0.9204,-0.8884,-0.8666,-0.8039,-0.746,-0.6965,-0.7098,-0.6719,0.0,0.0,0.0,0.0,0.0,0.0,0.0,0.0,-0.2515,0.0,0.0,0.0,0.0,-0.3125,-0.3347,-0.3732,-0.4457,-0.468,-0.4897,0.0,0.0,0.0,0.0,0.0,0.0,0.0,0.0,0.0,0.0,0.0,0.0,0.0,-1.0624,-1.0624,-1.0624,-1.0624,-1.0624,-1.0624,-1.0735,-1.0855,-1.0855,-1.1122,-1.1289,-1.1289,-1.1376,-1.1423,-1.1423,-1.1149,-1.0798,-1.0309,-0.9604,-0.9013,-0.8597,-0.7423,-0.6852,-0.6852,-0.7252,-0.7114,-0.647,-0.647,-0.6145,-0.5756,-0.5488,-0.5422,-0.5289,-0.422,-0.3687,-0.342,-0.3015,-0.2882,-0.2882,-0.3082,-0.3082,-0.2748,0.0,0.0,0.0,0.0,0.0,0.0,0.0,0.0,0.0,0.0,0.0,0.0,0.0,0.0,0.0,0.0,0.0,0.0,0.0,-1.5706,-1.4863,-1.345,-1.4065,-1.3653,-1.1905,-1.1592,-1.153,-1.1687,-1.1454,-1.0757,-0.9573,-0.9867,0.0,0.0,0.0,-0.8626,-0.8011,-0.7148,-0.6404,-0.5808,-0.5782,-0.5486,-0.5053,0.0,0.0,0.0,0.0,0.0,0.0,0.0,-0.2367,-0.2295,0.0,0.0,0.0,0.0,-0.2235,-0.2847,-0.3458,-0.3788,0.0,0.0,0.0,0.0,0.0,0.0,0.0,0.0,0.0,0.0,0.0,0.0,0.0,-1.0498,-1.0624,-1.0624,-1.0624,-1.0624,-1.0624,-1.0624,-1.0561,-1.0561,-1.0561,-1.0822,-1.0989,-1.0989,-1.1256,-1.1348,-1.1348,-1.0585,-1.0095,-1.0095,-0.8338,-0.7414,-0.7414,-0.6226,-0.5617,-0.5617,-0.5491,-0.5491,-0.5617,-0.5491,-0.5428,-0.5359,-0.4622,-0.4287,-0.4154,-0.2681,-0.1678,-0.1143,-0.1812,-0.2079,-0.2146,-0.2882,-0.2748,-0.2079,0.0,0.0,0.0,0.0,0.0,0.0,0.0,0.0,0.0,0.0,0.0,0.0,0.0,0.0,0.0,0.0,0.0,0.0,0.0,-1.4905,-1.3967,-1.2892,-1.2315,-1.1198,-0.9409,-0.8958,-0.9068,-0.9723,-0.9664,-0.9125,-0.8197,0.0,0.0,-0.7675,0.0,-0.6875,-0.6561,-0.5899,-0.548,-0.5308,-0.5265,-0.5135,-0.4966,0.0,0.0,0.0,0.0,0.0,0.0,0.0,0.0,0.0,0.0,0.0,0.0,-0.1734,-0.1902,-0.2293,-0.3461,-0.3793,0.0,0.0,0.0,0.0,0.0,0.0,0.0,0.0,0.0,0.0,-0.8414,0.0,0.0,-0.9779,-1.0231,-1.0624,-1.0624,-1.0624,-1.0624,-1.0624,-1.0168,-0.9843,-0.9843,-0.9461,-0.9244,-0.9244,-0.9313,-0.9288,-0.9162,-0.8887,-0.8485,-0.7893,-0.7233,-0.6672,-0.6148,-0.5708,-0.5491,-0.5491,-0.5428,-0.5428,-0.5491,-0.5428,-0.5093,-0.4622,-0.442,-0.402,-0.3485,-0.248,-0.1678,-0.1143,-0.1344,-0.1411,-0.1411,-0.1612,-0.1611,-0.1411,0.0,0.0,0.0,0.0,0.0,0.0,0.0,0.0,0.0,0.0,0.0,0.0,0.0,0.0,0.0,0.0,0.0,0.0,0.0,0.0,-1.2241,-1.1166,-1.0119,-0.8841,-0.7203,-0.642,-0.6469,-0.7341,-0.7873,-0.7595,0.0,0.0,-0.6506,-0.5808,0.0,-0.5206,-0.5077,-0.4691,-0.4526,-0.4535,-0.4661,-0.4482,-0.4172,0.0,0.0,0.0,0.0,0.0,0.0,0.0,0.0,0.0,0.0,0.0,0.0,-0.1064,-0.1287,-0.168,-0.2738,0.0,0.0,0.0,0.0,0.0,0.0,0.0,0.0,0.0,0.0,-0.7293,-0.7691,-0.8329,0.0,-0.9069,-0.946,-0.9779,-0.9779,-0.9779,-0.9779,-0.9779,-0.939,-0.9134,-0.9134,-0.8748,-0.849,-0.849,-0.842,-0.8355,-0.8236,-0.7827,-0.7367,-0.6854,-0.64,-0.5943,-0.5554,-0.5425,-0.5428,-0.5428,-0.5093,-0.4957,-0.4957,-0.4957,-0.4556,-0.3818,-0.3551,-0.3015,-0.2347,-0.1879,-0.1478,-0.1076,-0.1076,-0.1076,-0.1076,-0.1076,-0.0941,-0.0806,0.0,0.0,0.0,0.0,0.0,0.0,0.0,0.0,0.0,0.0,0.0,0.0,0.0,0.0,0.0,0.0,0.0,0.0,0.0,0.0,-0.9763,-0.8514,-0.7534,-0.6441,-0.5298,-0.4156,-0.3974,-0.4739,-0.6029,0.0,0.0,0.0,-0.4535,-0.414,0.0,-0.3763,-0.3683,-0.3591,-0.3561,-0.3578,-0.3965,-0.3605,-0.2854,-0.3296,0.0,0.0,0.0,0.0,0.0,0.0,0.0,0.0,-0.011,0.0,-0.0112,-0.0168,-0.0505,-0.0953,0.0,0.0,0.0,0.0,0.0,0.0,0.0,0.0,0.0,0.0,0.0,-0.6225,-0.7228,-0.7456,-0.7717,-0.8296,-0.849,-0.849,-0.849,-0.849,-0.849,-0.849,-0.8425,-0.8425,-0.8425,-0.8355,-0.8291,-0.8291,-0.8086,-0.7957,-0.7972,-0.7116,-0.6588,-0.6593,-0.5815,-0.5428,-0.5428,-0.5415,-0.5342,-0.5338,-0.4593,-0.4254,-0.4191,-0.4209,-0.3818,-0.3082,-0.2347,-0.1678,-0.1076,-0.1076,-0.1076,-0.1076,-0.1076,-0.1008,-0.1008,-0.0941,-0.0671,-0.0268,0.0,0.0,0.0,0.0,0.0,0.0,0.0,0.0,0.0,0.0,0.0,0.0,0.0,0.0,0.0,0.0,0.0,0.0,0.0,0.0,-0.6191,-0.5246,-0.4417,-0.3863,-0.3716,-0.2988,-0.2687,-0.2865,-0.4271,0.0,0.0,0.0,0.0,-0.3792,0.0,-0.3372,-0.3561,-0.2763,-0.2674,-0.3034,-0.2721,-0.2453,-0.2277,-0.2366,-0.1869,0.0,0.0,0.0,0.0,0.0,0.0,0.0,0.0332,0.0448,0.0559,-0.0056,-0.028,-0.0561,0.0,0.0,0.0,0.0,0.0,0.0,0.0,0.0,0.0,0.0,-0.6006,-0.6237,-0.6605,-0.7134,-0.7521,-0.7717,-0.8166,-0.849,-0.849,-0.849,-0.849,-0.849,-0.8037,-0.7717,-0.7717,-0.7125,-0.6666,-0.6666,-0.6539,-0.6342,-0.6141,-0.5943,-0.5811,-0.5686,-0.5491,-0.5428,-0.5428,-0.524,-0.5179,-0.5179,-0.4433,-0.3763,-0.3266,-0.3416,-0.3015,-0.228,-0.1612,-0.121,-0.1076,-0.1076,-0.1076,-0.1076,-0.0605,-0.047,-0.0403,0.0,0.0199,0.026,0.0,0.0,0.0,0.0,0.0,0.0,0.0,0.0,0.0,0.0,0.0,0.0,0.0,0.0,0.0,0.0,0.0,0.0,0.0,0.0,0.0,0.0,-0.1622,-0.1281,-0.1677,-0.1414,-0.1504,-0.1857,0.0,0.0,0.0,0.0,0.0,-0.2441,0.0,-0.2142,-0.2499,-0.1966,-0.2055,-0.2499,-0.2233,-0.199,-0.1798,-0.1566,-0.0992,-0.0245,0.0,0.0,0.0,0.0,0.0,0.0,0.0,0.0,0.1342,0.0839,0.0336,-0.0168,0.0,0.0,0.0,0.0,0.0,0.0,0.0,0.0,0.0,0.0,-0.566,-0.5951,-0.6152,-0.6478,-0.6741,-0.6741,-0.6999,-0.7256,-0.7256,-0.7256,-0.7256,-0.7256,-0.6933,-0.6741,-0.6741,-0.6346,-0.6086,-0.6086,-0.5885,-0.5686,-0.5617,-0.5554,-0.5488,-0.5428,-0.5428,-0.5428,-0.5428,-0.5281,-0.5045,-0.4714,-0.3945,-0.3055,-0.2036,-0.2099,-0.1935,-0.1549,-0.1227,-0.1033,-0.1033,-0.084,-0.0711,-0.0646,-0.0194,0.0065,0.0065,0.0323,0.0575,0.0756,0.0,0.0,0.0,0.0,0.0,0.0,0.0,0.0,0.0,0.0,0.0,0.0,0.0,0.0,0.0,0.0,0.0,0.0,0.0,0.0,0.0,0.0,0.058,0.0851,0.0312,0.0311,-0.0044,0.0,0.0,0.0,0.0,0.0,0.0,-0.0941,0.0,-0.0852,-0.1389,-0.1254,-0.1484,-0.1988,-0.1898,-0.1623,-0.1202,-0.0769,-0.0148,0.0509,0.1018,0.1377,0.1646,0.1696,0.0,0.0,0.0,0.0,0.2237,0.1845,0.1117,0.0335,0.0,0.0,0.0,0.0,0.0,0.0,0.0,0.0,0.0,-0.4622,-0.5206,-0.5643,-0.5847,-0.587,-0.5888,-0.5888,-0.5888,-0.5888,-0.5888,-0.5888,-0.5888,-0.5888,-0.5888,-0.5888,-0.5888,-0.5888,-0.5822,-0.5822,-0.5686,-0.555,-0.555,-0.5491,-0.5428,-0.5428,-0.5428,-0.5428,-0.5428,-0.5266,-0.4854,-0.4254,-0.3407,-0.2251,-0.098,-0.0975,-0.0979,-0.0988,-0.0988,-0.0927,-0.0865,-0.0432,-0.0247,-0.0123,0.037,0.0555,0.0555,0.0617,0.0922,0.1344,0.0,0.0,0.0,0.0,0.0,0.0,0.0,0.0,0.0,0.0,0.0,0.0,0.0,0.0,0.0,0.0,0.0,0.0,0.0465,0.0,0.0,0.1026,0.1564,0.1741,0.1561,0.2049,0.2268,0.0,0.0,0.0,0.0,0.0,0.0,-0.0314,0.0,0.0,-0.1344,-0.0673,-0.0824,-0.1559,-0.1137,-0.0678,-0.025,0.005,0.0563,0.1163,0.1742,0.2259,0.2758,0.2987,0.3542,0.0,0.0,0.0,0.335,0.2399,0.1786,0.0,0.0,0.0,0.0,0.0,0.0,0.0,0.0,0.0,0.0,0.0,-0.4758,-0.5485,-0.5672,-0.5791,-0.5888,-0.5888,-0.5888,-0.5888,-0.5888,-0.5888,-0.5888,-0.5888,-0.5888,-0.5888,-0.5888,-0.5752,-0.5617,-0.5617,-0.5488,-0.5428,-0.5428,-0.5428,-0.5428,-0.5428,-0.5428,-0.5428,-0.5428,-0.464,-0.4193,-0.4126,-0.2688,-0.1604,-0.0889,-0.0922,-0.0939,-0.0988,-0.0988,-0.0741,-0.037,-0.0309,-0.0062,0.037,0.0863,0.1108,0.117,0.1602,0.1818,0.1833,0.0,0.0,0.0,0.0,0.0,0.0,0.0,0.0,0.0,0.0,0.0,0.0,0.0,0.0,0.0,0.2208,0.1548,0.12,0.118,0.1439,0.1624,0.1743,0.2142,0.2408,0.2408,0.2674,0.2807,0.0,0.0,0.0,0.0,0.1517,0.0804,0.0,0.0,0.0,0.0,0.0,-0.0422,-0.0763,-0.0488,-0.0302,-0.0104,0.0572,0.1275,0.2024,0.2567,0.3252,0.3962,0.4122,0.4457,0.4677,0.4563,0.0,0.0,0.0,0.0,0.0,0.0,0.0,0.0,0.0,0.0,0.0,0.0,0.0,-0.2457,-0.3081,-0.3613,-0.4174,-0.468,-0.4807,-0.49,-0.4968,-0.497,-0.5156,-0.5557,-0.5627,-0.5627,-0.5627,-0.5627,-0.5627,-0.5627,-0.5557,-0.5491,-0.5491,-0.5425,-0.5428,-0.5428,-0.5428,-0.5428,-0.5428,-0.5428,-0.5226,-0.4758,-0.4432,-0.3783,-0.2957,-0.1883,-0.1219,-0.0884,-0.0929,-0.0928,-0.0937,-0.0644,-0.0351,0.0,0.0351,0.082,0.1345,0.1636,0.1869,0.2046,0.2281,0.2376,0.2347,0.0,0.0,0.0,0.0,0.0,0.0,0.0,0.0,0.0,0.0,0.0,0.0,0.0,0.0,0.0,0.0,0.1254,0.1432,0.1743,0.1903,0.2119,0.245,0.2893,0.3158,0.3249,0.351,0.0,0.0,0.0,0.0,0.3249,0.2586,0.1786,0.0,0.0716,0.0,0.0,0.0,0.0,0.0,0.0,0.0104,0.0,0.0,0.1969,0.2679,0.34,0.4125,0.4849,0.5011,0.512,0.523,0.523,0.5175,0.0,0.0,0.0,0.0,0.0,0.0,0.0,0.0,0.0,0.0,0.0,0.0,-0.1734,0.0,-0.2565,-0.2803,-0.3349,-0.3653,-0.3872,-0.3935,-0.3944,-0.4197,-0.4724,-0.4922,-0.5052,-0.5052,-0.5215,-0.5304,-0.5304,-0.5338,-0.5428,-0.5428,-0.5428,-0.5428,-0.5428,-0.5428,-0.5296,-0.5156,-0.5093,-0.4758,-0.4018,-0.3818,-0.3119,-0.1824,-0.1295,-0.0947,-0.0845,-0.0712,-0.0581,-0.0567,-0.0225,0.0168,0.067,0.112,0.1681,0.2183,0.2296,0.2465,0.2691,0.2691,0.2691,0.2695,0.0,0.0,0.0,0.0,0.0,0.0,0.0,0.0,0.0,0.0,0.0,0.0,0.0,0.6102,0.49,0.1569,0.1344,0.1786,0.2664,0.2193,0.2354,0.3362,0.3942,0.0,0.4212,0.5082,0.0,0.0,0.0,0.0,0.4208,0.329,0.2544,0.201,0.1566,0.0985,0.0404,0.0,0.0,0.0,0.0,0.0,0.0,0.0,0.0,0.0,0.0,0.0,0.0,0.0,0.0,0.0,0.0,0.5896,0.5508,0.0,0.0,0.0,0.0,0.0,0.0,0.0,0.0,0.0,0.0,0.0,-0.1121,-0.1734,-0.1849,-0.1852,-0.1911,-0.2606,-0.3147,-0.3147,-0.3151,-0.3153,-0.3215,-0.3707,-0.4078,-0.4078,-0.4681,-0.5142,-0.5142,-0.5277,-0.5428,-0.5428,-0.5428,-0.5428,-0.5428,-0.5428,-0.5093,-0.4353,-0.4353,-0.402,-0.3282,-0.2547,-0.1878,-0.114,-0.1046,-0.0903,-0.077,-0.0121,0.0235,0.0351,0.0227,0.0838,0.1902,0.1958,0.224,0.2691,0.2691,0.2691,0.2691,0.2691,0.2691,0.2703,0.0,0.0,0.0,0.0,0.0,0.0,0.0,0.0,0.0,0.0,0.0,0.0,0.0,0.6052,0.461,0.2857,0.2495,0.2497,0.2849,0.2944,0.3287,0.3986,0.4474,0.4913,0.526,0.5567,0.0,0.0,0.0,0.5216,0.5168,0.4252,0.3683,0.3463,0.2364,0.1588,0.1121,0.0972,0.0,0.0,0.0,0.0,0.0,0.0,0.0,0.0,0.0,0.0,0.0,0.0,0.0,0.0,0.6178,0.6123,0.5896,0.5504,0.0,0.0,0.0,0.0,0.0,0.0,0.0,0.0,0.0,-0.0224,-0.0617,-0.1121,-0.1232,-0.1232,-0.1232,-0.18,-0.2271,-0.2392,-0.2433,-0.2586,-0.3018,-0.3263,-0.3444,-0.3444,-0.3663,-0.381,-0.381,-0.3911,-0.4064,-0.4442,-0.4127,-0.4094,-0.4555,-0.417,-0.3878,-0.3616,-0.3616,-0.3215,-0.248,-0.1812,-0.1277,-0.0876,-0.0867,-0.0526,0.0129,0.0378,0.0975,0.1816,0.1737,0.1937,0.2347,0.2408,0.28,0.3249,0.3023,0.3079,0.3304,0.3304,0.3466,0.3702,0.0,0.0,0.0,0.0,0.0,0.0,0.0,0.0,0.0,0.0,0.0,0.0,0.0,0.0,0.4556,0.3413,0.3073,0.3073,0.3551,0.3774,0.4212,0.4947,0.547,0.5905,0.6204,0.6331,0.0,0.0,0.0,0.0,0.0,0.4739,0.4248,0.4081,0.3092,0.2316,0.0,0.0,0.0,0.1229,0.0,0.0,0.1736,0.0,0.0,0.0,0.0,0.0,0.0,0.0,0.0,0.0,0.0,0.6178,0.6123,0.5896,0.0,0.0,0.0,0.0,0.0,0.0,0.0,0.0,0.0,0.0,-0.0224,-0.0785,-0.0898,-0.0898,-0.0898,-0.1256,-0.1505,-0.162,-0.165,-0.1853,-0.2329,-0.2507,-0.2684,-0.2684,-0.2891,-0.303,-0.303,-0.306,-0.3261,-0.3691,-0.3322,-0.3288,-0.3728,-0.3353,-0.3079,-0.2839,-0.2579,-0.2261,-0.1745,-0.1277,-0.0943,-0.0809,-0.0472,0.0,0.0653,0.1163,0.1815,0.2741,0.2886,0.2936,0.285,0.2968,0.3249,0.3583,0.3519,0.363,0.3802,0.3968,0.4271,0.4555,0.0,0.0,0.0,0.0,0.0,0.0,0.0,0.0,0.0,0.0,0.0,0.0,0.0,0.0,0.0,0.3158,0.2984,0.3507,0.4851,0.46,0.4995,0.6246,0.6881,0.7133,0.7036,0.746,0.0,0.0,0.0,0.0,0.0,0.0,0.4194,0.3839,0.3849,0.3233,0.2251,0.0,0.2291,0.1767,0.0,0.2184,0.2792,0.0,0.0,0.0,0.5727,0.6059,0.0,0.6178,0.0,0.0,0.0,0.6178,0.6178,0.6178,0.0,0.0,0.0,0.0,0.0,0.0,0.0,0.0,0.1173,0.0,0.0056,-0.0672,-0.0842,-0.0898,-0.0898,-0.0898,-0.0898,-0.0898,-0.0898,-0.0898,-0.0898,-0.14,-0.179,-0.179,-0.2416,-0.2813,-0.2813,-0.2955,-0.307,-0.307,-0.307,-0.307,-0.3073,-0.3015,-0.2742,-0.2052,-0.1352,-0.1046,-0.1074,-0.0875,-0.0808,-0.0742,0.0135,0.0605,0.094,0.2219,0.2851,0.2948,0.3572,0.3749,0.3585,0.3585,0.3585,0.3638,0.407,0.4233,0.4288,0.4736,0.5065,0.5235,0.0,0.0,0.0,0.0,0.0,0.0,0.0,0.0,0.0,0.0,0.0,0.0,0.0,0.0,0.5594,0.5379,0.4778,0.4739,0.5427,0.5389,0.5647,0.6289,0.6556,0.6894,0.7273,0.7405,0.7489,0.0,0.0,0.0,0.0,0.0,0.0,0.0,0.4763,0.4314,0.3652,0.3362,0.0,0.0,0.2617,0.2571,0.0,0.0,0.0,0.0,0.0,0.5723,0.5496,0.0,0.6178,0.6178,0.0,0.0,0.0,0.0,0.0,0.0,0.5454,0.0,0.0,0.0,0.0,0.0,0.0,0.0,0.1286,0.0559,0.0112,-0.0168,-0.0336,-0.0673,-0.0898,-0.0898,-0.0898,-0.0898,-0.0898,-0.1065,-0.1177,-0.1177,-0.1355,-0.1476,-0.1476,-0.1489,-0.1668,-0.2128,-0.1727,-0.1687,-0.2141,-0.1705,-0.1363,-0.1187,-0.0813,-0.0634,-0.0653,-0.0588,-0.0264,0.0336,0.0605,0.1343,0.2547,0.2926,0.329,0.3625,0.3777,0.377,0.3585,0.3585,0.3747,0.407,0.4177,0.4398,0.4746,0.5035,0.5396,0.5764,0.0,0.0,0.0,0.0,0.0,0.0,0.0,0.0,0.0,0.0,0.0,0.0,0.0,0.0,0.0,0.6033,0.5567,0.548,0.591,0.6039,0.6295,0.6641,0.7027,0.7405,0.787,0.7704,0.7704,0.0,0.0,0.0,0.0,0.0,0.0,0.0,0.0,0.0,0.0,0.0,0.0,0.0,0.2573,0.0,0.0,0.368,0.3959,0.0,0.0,0.0,0.5609,0.6064,0.6178,0.0,0.0,0.0,0.0,0.0,0.0,0.0,0.0,0.0,0.0,0.0,0.0,0.0,0.2899,0.2456,0.2012,0.1229,0.0838,0.0615,0.0448,0.0,-0.0336,-0.0336,-0.0561,-0.0729,-0.0898,-0.0898,-0.0898,-0.0898,-0.0898,-0.0898,-0.0898,-0.0898,-0.1065,-0.14,-0.1121,-0.1074,-0.1382,-0.0999,-0.0777,-0.0787,-0.0606,-0.0492,-0.0507,-0.0444,0.0,0.0792,0.1188,0.1989,0.3215,0.3487,0.3798,0.4009,0.4009,0.4027,0.4079,0.4079,0.4122,0.4233,0.4622,0.4993,0.535,0.5629,0.6056,0.6464,0.0,0.0,0.0,0.0,0.0,0.0,0.0,0.0,0.0,0.0,0.0,0.0,0.0,0.0,0.0,0.0,0.582,0.6004,0.6422,0.6686,0.6999,0.7269,0.7827,0.8237,0.8468,0.8112,0.8071,0.0,0.0,0.0,0.0,0.0,0.0,0.0,0.0,0.0,0.0,0.0,0.0,0.2847,0.2242,0.2685,0.0,0.0,0.4787,0.5791,0.6064,0.6178,0.6178,0.6178,0.6178,0.0,0.0,0.0,0.0,0.0,0.6178,0.0,0.0,0.0,0.0,0.0,0.0,0.0,0.3398,0.2901,0.24,0.1676,0.1453,0.1397,0.1398,0.0896,0.0505,0.0505,0.0112,-0.0336,-0.0785,-0.0842,-0.0898,-0.0898,-0.0898,-0.0898,-0.0898,-0.0898,-0.0898,-0.0898,-0.0898,-0.0898,-0.0898,-0.0729,-0.0626,-0.0644,-0.0527,-0.0416,-0.0368,-0.0246,0.0249,0.1024,0.1791,0.2596,0.3336,0.401,0.4219,0.4179,0.4179,0.4424,0.4789,0.485,0.4693,0.4504,0.5345,0.578,0.6045,0.6418,0.6897,0.7284,1.2479,0.0,0.0,0.0,0.0,0.0,0.0,0.0,0.0,0.0,0.0,0.0,0.0,0.0,0.0,0.0,0.6663,0.6896,0.7257,0.7603,0.7842,0.7934,0.7874,0.8032,0.8335,0.8187,0.8276,0.0,0.0,0.0,0.0,0.0,0.0,0.0,0.0,0.0,0.0,0.0,0.0,0.4073,0.3516,0.0,0.4508,0.4673,0.4948,0.5332,0.595,0.6178,0.6178,0.6178,0.6178,0.6178,0.0,0.0,0.0,0.6178,0.0,0.0,0.0,0.0,0.0,0.0,0.0,0.0,0.4012,0.3685,0.3244,0.2852,0.2514,0.2178,0.1902,0.1454,0.1119,0.1119,0.1063,0.0615,-0.0336,-0.0617,-0.0729,-0.0729,-0.0842,-0.0898,-0.0898,-0.0898,-0.0898,-0.0898,-0.0785,-0.0729,-0.0729,-0.0449,-0.0281,-0.0283,-0.017,0.0115,0.0593,0.0652,0.1265,0.2482,0.2668,0.3151,0.3955,0.4086,0.433,0.4747,0.4747,0.4981,0.5389,0.5755,0.5899,0.5834,0.6011,0.6278,0.669,0.6974,0.7454,0.8048,1.1911,0.0,0.0,0.0,0.0,0.0,0.0,0.0,0.0,0.0,0.0,0.0,0.0,0.0,0.0,0.0,0.0,0.0,0.0,0.0,0.0,0.0,0.8286,0.841,0.8749,0.8509,0.0,0.0,0.0,0.0,0.0,0.0,0.0,0.0,0.0,0.0,0.0,0.0,0.4791,0.4959,0.407,0.0,0.4728,0.4948,0.5222,0.5609,0.6059,0.6391,0.6657,0.6657,0.6657,0.0,0.0,0.6445,0.6178,0.0,0.6178,0.6178,0.0,0.0,0.0,0.59,0.0,0.0,0.0,0.4405,0.3852,0.3683,0.335,0.3019,0.2854,0.2348,0.2011,0.2011,0.1733,0.1342,0.0784,0.0224,-0.0168,-0.0168,-0.0561,-0.0785,-0.0673,-0.0785,-0.0898,-0.0785,-0.0729,-0.0673,-0.0561,-0.0336,-0.0224,-0.0224,-0.0056,0.0283,0.0918,0.0918,0.1574,0.2885,0.2885,0.3299,0.4026,0.4026,0.4307,0.4871,0.4871,0.5378,0.614,0.6333,0.6836,0.7312,0.674,0.6731,0.7078,0.7551,0.797,0.8397,1.1094,0.0,0.0,0.0,0.0,0.0,0.0,0.0,0.0,0.0,0.0,0.0,0.0,0.0,0.0,0.0,0.0,0.0,0.0,0.0,0.0,0.0,0.8707,0.8889,0.9219,0.8835,0.0,0.0,0.0,0.0,0.0,0.0,0.0,0.0,0.0,0.0,0.0,0.0,0.0,0.5458,0.0,0.4512,0.4948,0.5167,0.5609,0.6059,0.6173,0.65,0.6923,0.6923,0.7031,0.7085,0.6977,0.6766,0.0,0.0,0.0,0.0,0.0,0.0,0.0,0.0,0.0,0.5622,0.0,0.0,0.0,0.4343,0.4021,0.3691,0.3691,0.3241,0.285,0.285,0.246,0.2125,0.2125,0.1399,0.0784,0.0672,-0.0056,-0.0449,-0.028,-0.0561,-0.0785,-0.0673,-0.0617,-0.0561,-0.0393,-0.0224,-0.0168,-0.0168,0.0056,0.0449,0.1065,0.1177,0.1873,0.3025,0.3025,0.3311,0.3901,0.3961,0.439,0.5021,0.5174,0.5898,0.6885,0.7116,0.7777,0.8581,0.7526,0.7316,0.7714,0.8278,0.8645,0.9005,1.0916,0.0,0.0,0.0,0.0,0.0,0.0,0.0,0.0,0.0,0.0,0.0,0.0,0.0,0.0,0.0,0.0,0.0,0.7729,0.0,0.0,0.0,0.0,0.0,0.935,0.0,0.0,0.0,0.0,0.0,0.0,0.0,0.0,0.0,0.809,0.0,0.0,0.0,0.5517,0.0,0.5618,0.5732,0.0,0.5837,0.6005,0.6178,0.6178,0.6232,0.6287,0.0,0.6657,0.7031,0.0,0.6977,0.7503,0.65,0.0,0.0,0.0,0.0,0.0,0.0,0.59,0.0,0.0,0.0,0.4842,0.4842,0.0,0.4125,0.4125,0.0,0.0,0.3471,0.3416,0.3416,0.3416,0.2852,0.2178,0.1566,0.0784,0.028,0.028,-0.0168,-0.0449,-0.0449,-0.0336,-0.0224,-0.0224,-0.0112,0.0,0.0,0.0505,0.1064,0.1679,0.2235,0.2856,0.3548,0.3548,0.3607,0.3834,0.4182,0.4726,0.5419,0.6316,0.7033,0.7651,0.8606,0.9075,0.9134,0.8564,0.8681,0.9285,0.9539,0.9875,1.0351,1.0566,0.0,0.0,0.0,0.0,0.0,0.0,0.0,0.0,0.0,0.0,0.0,0.0,0.0,0.0,0.0,0.0,0.8136,0.0,0.0,0.0,0.0,0.0,0.0,0.0,0.0,0.0,0.0,0.9614,0.0,0.0,0.0,0.0,0.0,0.7877,0.0,0.7133,0.0,0.5841,0.0,0.0,0.0,0.0,0.6064,0.6173,0.6178,0.6178,0.6445,0.6712,0.6712,0.7079,0.0,0.0,0.0,0.0,0.0,0.0,0.0,0.0,0.0,0.0,0.0,0.0,0.0,0.5955,0.0,0.5289,0.0,0.0,0.0,0.0,0.0,0.0,0.0,0.3747,0.3585,0.3585,0.3357,0.2963,0.2291,0.1566,0.1064,0.0952,0.0839,0.0783,0.0783,0.0839,0.0896,0.0952,0.1008,0.1064,0.1064,0.1287,0.1734,0.2291,0.2569,0.3019,0.3585,0.3585,0.3775,0.4044,0.421,0.4858,0.5956,0.6504,0.7394,0.8471,0.9035,0.9709,1.0268,1.0009,0.9888,0.9831,1.0332,1.0647,1.0905,0.0,0.0,0.0,0.0,0.0,0.0,0.0,0.0,0.0,0.0,0.0,0.0,0.8988,0.8745,0.0,0.0,0.8421,0.8474,0.0,0.0,0.9256,0.9562,0.9614,0.0,0.0,0.0,0.0,0.0,0.0,0.0,0.0,0.0,0.0,0.0,0.0,0.7563,0.7456,0.0,0.6376,0.6159,0.6273,0.6218,0.6059,0.6173,0.6178,0.6178,0.6178,0.6603,0.7085,0.7085,0.7456,0.7824,0.7241,0.7187,0.7187,0.0,0.0,0.0,0.6232,0.0,0.0,0.0,0.0,0.0,0.0,0.0,0.0,0.0,0.5454,0.0,0.0,0.0,0.0,0.0,0.0,0.3968,0.3968,0.3858,0.3577,0.3019,0.2347,0.1789,0.1454,0.1566,0.1677,0.1677,0.1677,0.1679,0.179,0.179,0.179,0.179,0.1958,0.2235,0.2681,0.285,0.3188,0.3585,0.3691,0.3962,0.4343,0.4563,0.529,0.6389,0.7056,0.7985,0.9029,0.9693,1.0465,1.1212,1.1399,1.1149,1.078,1.1212,1.1337,1.1406,0.0,1.0615,0.0,0.0,0.0,0.0,0.0,0.0,0.0,0.0,0.0,0.0,0.0,0.0,0.0,0.0,0.0,0.7818,0.8573,0.0,0.904,0.9562,0.9614,0.9614,0.0,0.0,0.0,0.0,0.0,0.0,0.0,0.0,0.0,0.0,0.0,0.8672,0.8521,0.8031,0.7337,0.6588,0.6918,0.6712,0.6178,0.0,0.6178,0.6178,0.6178,0.6603,0.7085,0.7085,0.7456,0.7824,0.7241,0.7456,0.7664,0.0,0.0,0.0,0.6337,0.6178,0.6178,0.6178,0.6178,0.6178,0.6178,0.0,0.6178,0.0,0.0,0.0,0.0,0.0,0.0,0.0,0.0,0.0,0.0,0.4457,0.4015,0.3638,0.3019,0.2458,0.1846,0.179,0.179,0.179,0.179,0.179,0.179,0.179,0.179,0.179,0.2347,0.2681,0.2681,0.3299,0.3583,0.3585,0.4018,0.4343,0.4728,0.5559,0.6105,0.6505,0.8258,0.9072,0.9239,1.0977,1.174,1.1802,1.2367,1.256,1.2498,1.2305,1.2182,1.212,0.0,0.0,0.0,0.0,0.0,0.0,0.0,0.9204,0.0,0.0,0.0,0.0,0.0,0.889,0.8725,0.0,0.0,0.8672,0.8725,0.904,0.0,0.0,0.0,0.9614,0.0,0.0,0.0,0.0,0.0,0.0,0.0,0.0,0.0,0.0,0.0,0.8778,0.0,0.0,0.0,0.0,0.0,0.7295,0.6766,0.6337,0.6445,0.682,0.682,0.7133,0.761,0.761,0.8031,0.8402,0.7824,0.7765,0.7765,0.7031,0.6657,0.6445,0.6228,0.6178,0.6178,0.6178,0.6178,0.6282,0.6495,0.6337,0.6282,0.0,0.0,0.0,0.0,0.0,0.0,0.0,0.0,0.0,0.0,0.4897,0.4622,0.446,0.3799,0.3188,0.3021,0.2965,0.2965,0.2965,0.2965,0.2965,0.2965,0.2965,0.2965,0.2965,0.3188,0.3299,0.3299,0.3471,0.3747,0.4018,0.4125,0.4673,0.5559,0.5891,0.6534,0.7568,0.865,0.9537,1.0343,1.1404,1.1996,1.2367,1.2498,1.2621,1.2621,1.2972,1.3086,1.3086,1.0956,0.0,0.0,0.0,0.0,0.0,0.0,0.0,0.0,0.0,0.9159,0.0,0.9263,0.0,0.9159,0.0,0.9152,0.9204,0.9093,0.9302,0.0,0.9614,0.9614,0.0,0.0,0.0,0.0,0.0,0.0,0.9614,0.0,0.0,0.0,0.0,0.0,0.0,0.9033,0.0,0.8402,0.0,0.0,0.7717,0.0,0.6977,0.6923,0.7139,0.7295,0.7771,0.8243,0.8243,0.8455,0.8718,0.8349,0.8084,0.7824,0.7509,0.6977,0.6495,0.6495,0.6337,0.6232,0.6337,0.6391,0.644,0.6652,0.6603,0.6549,0.6647,0.6652,0.0,0.0,0.0,0.0,0.0,0.0,0.0,0.0,0.5445,0.523,0.5062,0.4294,0.3802,0.3802,0.3694,0.3585,0.3585,0.3585,0.3585,0.3585,0.3585,0.3585,0.3585,0.3585,0.3585,0.3585,0.3858,0.4128,0.4398,0.478,0.5437,0.6322,0.6642,0.7278,0.8328,0.9336,1.0179,1.0932,1.1783,1.2313,1.2621,1.2621,1.2744,1.2981,1.3329,1.3623,1.3932,0.0,0.0,0.0,0.0,0.9413,0.0,0.0,0.0,0.9106,0.0,0.9323,0.9285,0.9382,0.9351,0.9306,0.9463,0.9456,0.9508,0.9658,0.9643,0.0,0.0,0.9621,0.9614,0.9614,0.0,0.0,0.0,0.0,0.0,0.0,0.0,0.0,0.0,0.9614,0.0,0.9614,0.9614,0.9302,0.8771,0.819,0.7978,0.7925,0.7978,0.7664,0.7246,0.7765,0.8349,0.883,0.883,0.883,0.883,0.883,0.8402,0.7925,0.7925,0.7557,0.7139,0.7139,0.6712,0.6337,0.6707,0.6756,0.6756,0.6756,0.6972,0.7031,0.6815,0.7139,0.7622,0.7972,0.0,0.0,0.0,0.0,0.0,0.0,0.0,0.5941,0.5496,0.4783,0.0,0.0,0.3855,0.3638,0.3638,0.3585,0.3585,0.3585,0.3585,0.3585,0.3585,0.3585,0.3585,0.3638,0.4346,0.4728,0.4783,0.5869,0.6578,0.6961,0.7759,0.8302,0.8785,1.0261,1.0952,1.1012,1.2153,1.2621,1.2621,1.2621,1.3033,1.3563,1.3563,1.4052,1.4588,1.0226,1.0028,0.9769,0.0,0.9562,0.951,0.0,0.0,0.0,0.0,0.9567,0.9717,0.9764,1.0034,1.0226,1.0282,1.0282,0.0,0.0,0.0,0.0,0.9972,0.9746,0.9614,0.9614,0.9614,0.0,0.9614,0.0,0.0,0.9614,0.0,0.0,0.0,0.0,0.0,0.9614,0.9614,0.951,0.9406,0.9242,0.8928,0.8613,0.9033,0.8823,0.8408,0.8514,0.8928,0.9406,0.9406,0.9406,0.9406,0.9406,0.904,0.856,0.856,0.8137,0.7717,0.7717,0.761,0.7498,0.7706,0.7759,0.7759,0.7759,0.7658,0.7509,0.7354,0.7246,0.7246,0.7348,0.7461,0.7515,0.0,0.0,0.0,0.0,0.0,0.0,0.7122,0.6406,0.5647,0.4783,0.4291,0.407,0.407,0.3747,0.3585,0.3585,0.3585,0.3585,0.3585,0.3585,0.3747,0.4015,0.4508,0.5003,0.5668,0.6145,0.6897,0.7812,0.8019,0.8778,0.9948,1.0643,1.1188,1.1741,1.2377,1.2858,1.3277,1.3277,1.3923,1.4932,1.4932,1.5352,1.5904,0.9932,0.0,0.0,0.9614,0.0,0.0,0.9614,0.9465,0.0,0.9652,0.9886,0.0,1.019,1.0421,1.0587,1.0587,1.0587,0.0,1.0587,0.0,0.0,1.0111,0.9929,0.976,0.9614,0.9614,0.0,0.9932,0.0,0.0,1.0277,0.0,0.0,0.0,0.0,0.9614,0.0,0.9614,0.9614,0.9614,0.9614,0.9406,0.0,0.951,0.9406,0.9145,0.9145,0.9354,0.9614,0.9614,0.9614,0.9614,0.9614,0.9406,0.9145,0.9204,0.883,0.8402,0.8461,0.8296,0.8131,0.8343,0.8396,0.8396,0.8396,0.8408,0.8309,0.8096,0.8043,0.809,0.8243,0.8249,0.8262,0.0,0.0,0.0,0.0,0.0,0.0,0.0,0.77,0.7101,0.6455,0.5046,0.4343,0.4673,0.4184,0.3965,0.4132,0.4187,0.4187,0.4187,0.4298,0.446,0.4673,0.5328,0.5982,0.6642,0.7117,0.7812,0.856,0.8764,0.9411,1.0453,1.0954,1.1464,1.2043,1.2704,1.3216,1.3571,1.4103,1.4756,1.5468,1.5968,1.6285,1.6431,1.0293,0.0,0.0,0.0,0.0,0.0,0.0,0.9575,0.0,1.0126,0.0,1.0338,1.0616,1.0689,1.0711,1.0711,0.0,1.0711,1.0711,1.0675,1.0528,1.0236,1.0148,0.9965,0.968,0.9636,0.9821,0.0,0.0,0.0,0.0,0.0,0.0,0.0,0.0,0.0,0.0,0.9614,0.9614,0.9614,0.9614,0.9614,0.9614,0.9614,0.9614,0.9614,0.9614,0.9614,0.9614,0.9614,0.9614,0.9614,0.9614,0.9614,0.9614,0.974,0.9465,0.9138,0.9256,0.8928,0.86,0.8928,0.8988,0.8988,0.8935,0.9093,0.9204,0.8935,0.9047,0.9316,0.9666,0.9413,0.9211,0.0,0.0,0.0,0.0,0.0,0.0,0.0,0.0,0.0,0.8488,0.6176,0.4941,0.5546,0.4941,0.4725,0.5007,0.5058,0.5058,0.4952,0.5226,0.5386,0.5441,0.647,0.7176,0.7599,0.8302,0.889,0.9316,0.971,1.0121,1.0568,1.1352,1.1872,1.2284,1.3254,1.3692,1.3863,1.5157,1.5633,1.5748,1.6922,1.7,1.6705,0.0,0.0,0.0,0.0,0.0,1.0016,1.0016,1.0016,1.0133,1.0463,1.0741,1.0924,1.0982,1.1291,1.1392,1.1392,1.1392,0.0,0.0,0.0,0.0,1.0909,1.0389,1.0075,1.0016,0.9753,0.9666,0.0,0.0,0.0,0.0,0.0,0.0,0.0,0.0,0.0,1.0241,0.9769,0.0,0.9614,0.9614,0.9614,0.9614,0.9614,0.9614,0.9614,0.9614,0.9614,0.9614,0.9614,0.9614,0.9614,0.9614,0.9614,0.9614,0.974,0.974,0.9688,0.9844,0.9784,0.9784,0.9999,1.0051,0.994,0.9666,0.9658,0.9614,0.9204,0.9159,0.9211,0.9309,0.9263,0.9211,0.9211,0.9211,0.0,0.0,0.0,0.0,0.0,0.0,0.9295,0.9496,0.8053,0.7154,0.7261,0.6822,0.6284,0.5814,0.6023,0.586,0.5222,0.5555,0.5878,0.6195,0.7004,0.7599,0.8019,0.8725,0.9309,0.9725,1.0105,1.0693,1.136,1.233,1.294,1.3296,1.4016,1.4638,1.5167,1.6415,1.6866,1.6978,1.7699,1.7875,1.7831,0.0,0.0,0.0,0.0,0.0,0.0,1.058,1.0602,1.066,1.0821,1.0975,1.1203,1.1311,1.1527,1.1622,1.1622,1.1622,1.1622,1.1622,1.1475,1.1253,1.1085,1.0777,1.0448,1.0111,0.9943,0.9888,1.0028,0.0,0.0,0.0,0.0,0.0,0.0,0.0,0.9984,0.0,0.0,0.9614,0.9614,0.9614,0.9614,0.9614,0.9614,0.9614,0.9614,0.9614,0.9614,0.9614,0.9614,0.9621,0.9681,0.9614,0.9673,0.9836,0.9895,1.0007,1.011,1.0205,1.0265,1.0265,1.0368,1.0419,1.0368,1.0198,1.0146,1.0087,0.9888,0.9888,0.9888,0.9888,0.9888,0.9888,0.9888,0.9888,0.9888,0.0,0.0,1.0146,0.0,0.0,0.0,0.0,0.9555,0.881,0.7966,0.7576,0.7154,0.6583,0.6897,0.6789,0.6263,0.674,0.7111,0.7272,0.8025,0.856,0.8974,0.9347,0.9873,1.0608,1.0963,1.1643,1.2444,1.3164,1.3678,1.4043,1.4706,1.5575,1.6482,1.7101,1.7479,1.7852,1.8471,1.8697,1.8632,0.0,1.1174,0.0,0.0,1.099,1.0777,1.1033,1.1194,1.1253,1.1187,1.118,1.1336,1.1593,1.1622,1.1622,1.1622,1.1622,1.1622,1.1622,1.1622,1.1512,1.1247,1.1114,1.0836,1.0316,1.017,1.0195,0.0,1.0383,1.06,1.1006,0.0,0.0,0.0,0.0,0.9666,0.9769,0.9666,0.9614,0.9614,0.9614,0.9614,0.9614,0.9614,0.9614,0.9614,0.9614,0.9614,0.9614,0.9614,0.9673,0.974,0.9673,0.9784,0.9947,1.0051,1.0162,1.0324,1.047,1.0522,1.0522,1.0522,1.0522,1.0522,1.0522,1.0522,1.0522,1.0522,1.0522,1.0522,1.0522,1.0522,1.0522,1.0522,1.0522,1.0522,1.0522,0.0,0.0,0.0,0.0,0.0,1.0667,1.0573,1.0035,0.8901,0.8383,0.7966,0.761,0.7877,0.783,0.7456,0.8031,0.8343,0.8343,0.8988,0.9465,0.9814,1.002,1.0581,1.1447,1.1844,1.2503,1.3322,1.3747,1.4185,1.4677,1.5241,1.6133,1.7136,1.7342,1.776,1.8236,1.8833,1.9052,1.9064,0.0,0.0,0.0,0.0,1.0894,1.1041,1.107,1.1567,1.1838,1.1615,1.1578,1.1593,1.1622,1.1622,1.1622,1.1622,1.1622,1.1622,1.1622,1.1622,1.1615,1.1578,1.1231,1.1048,1.0982,1.0404,1.0082,1.0107,1.0293,1.0454,1.0446,0.0,0.0,1.0403,0.9821,0.9873,1.0293,0.9821,0.9614,0.9614,0.9614,0.9614,0.9614,0.9614,0.9614,0.9614,0.9614,0.9614,0.9614,0.9614,0.9614,0.9621,0.974,0.9799,0.9903,1.0162,1.0265,1.0324,1.047,1.0522,1.0522,1.0522,1.0522,1.0522,1.0522,1.0522,1.0522,1.0522,1.0522,1.0522,1.0522,1.0522,1.0522,1.0522,1.0522,1.0522,1.0522,1.0522,1.0522,1.0522,0.0,0.0,1.1175,1.0769,1.0651,1.1057,1.0159,0.9503,0.9204,0.9099,0.8942,0.8666,0.8942,0.9106,0.9106,0.951,0.9762,0.9814,1.0702,1.1396,1.1878,1.2323,1.2812,1.3313,1.3774,1.436,1.5005,1.5603,1.5913,1.6169,1.7225,1.7727,1.7824,1.8377,1.8567,1.8643,1.1938,1.1689,1.1452,1.1711,1.1667,1.1648,1.1648,1.2036,1.2277,1.2153,1.2138,1.2138,1.2138,1.1963,1.1845,1.1845,1.167,1.1622,1.1622,1.1622,1.1622,1.1622,1.1497,1.1336,1.1077,1.0821,1.0492,1.0104,1.0501,1.0593,1.0403,1.0403,1.0241,0.9925,0.9718,0.9718,0.9932,0.9666,0.9614,0.9614,0.9614,0.9614,0.9614,0.9614,0.9614,0.9614,0.9681,0.9732,0.9732,0.9836,0.9836,0.9836,0.9799,1.0007,1.0213,1.0265,1.0368,1.0419,1.047,1.0522,1.0522,1.0522,1.0522,1.0522,1.0522,1.0522,1.0522,1.0522,1.0522,1.0522,1.0522,1.0522,1.0522,1.0522,1.0522,1.0522,1.0522,1.0522,0.0,1.0522,0.0,1.0718,1.1226,1.082,1.0863,1.1692,1.0795,1.0087,0.9762,0.9614,0.9406,0.9047,0.9361,0.971,1.0064,1.049,1.0846,1.1141,1.1822,1.2259,1.2447,1.32,1.3849,1.4344,1.4503,1.4966,1.5536,1.5782,1.6366,1.7157,1.7605,1.7999,1.8393,1.8951,1.9175,1.9265,1.2804,1.2461,1.2174,1.2468,1.2273,1.2175,1.2175,1.2453,1.2665,1.2665,1.2745,1.2738,1.2541,1.2314,1.2175,1.2175,1.1882,1.1699,1.1699,1.1611,1.1622,1.1622,1.1622,1.1512,1.1224,1.1121,1.085,1.0389,1.0667,1.0663,1.0293,1.0185,0.9976,0.9614,0.9614,0.9614,0.9614,0.9614,0.9614,0.9614,0.9614,0.9614,0.9614,0.9621,0.9769,0.9917,1.0043,1.0198,1.0344,1.0438,1.049,1.0446,1.0051,1.0162,1.0419,1.0368,1.0419,1.0522,1.0522,1.0522,1.0522,1.0522,1.0624,1.0718,1.0718,1.082,1.0964,1.0964,1.0964,1.0964,1.0964,1.0964,1.0964,1.0964,1.0964,1.0964,1.0964,1.0964,0.0,1.0964,1.0964,1.1167,1.171,1.1267,1.136,1.2393,1.151,1.0854,1.0576,1.0218,1.0012,1.0028,1.0277,1.0626,1.1032,1.1351,1.166,1.2008,1.2525,1.2814,1.3027,1.3858,1.444,1.4847,1.4826,1.5167,1.574,1.5935,1.6598,1.748,1.784,1.8206,1.8604,1.9188,1.9409,1.9486,1.29,1.2732,1.2504,1.2504,1.2511,1.2519,1.2519,1.2797,1.3001,1.3001,1.3287,1.3243,1.2592,1.2519,1.2519,1.2519,1.2219,1.2028,1.2028,1.1736,1.1622,1.1622,1.1622,1.1622,1.1622,1.1238,1.107,1.1063,1.0741,1.0411,1.0089,0.9768,0.9614,0.9614,0.9614,0.9614,0.9614,0.9614,0.9614,0.9614,0.9614,0.9614,0.9614,0.974,1.0131,1.0618,1.0744,1.1133,1.1566,1.1566,1.1665,1.1625,1.0608,1.0316,1.0324,1.047,1.0522,1.0522,1.0522,1.0522,1.0522,1.0522,1.0922,1.1267,1.1267,1.166,1.2008,1.2008,1.2008,1.2008,1.2008,1.2008,1.2008,1.2008,1.2008,1.2008,1.2008,1.2008,1.2008,1.2008,1.2008,1.2197,1.2716,1.2286,1.2442,1.3515,1.2589,1.2008,1.2008,1.1082,1.1023,1.1959,1.195,1.2008,1.2008,1.2008,1.1999,1.2008,1.253,1.3037,1.3508,1.4043,1.4359,1.4395,1.449,1.4801,1.5367,1.602,1.6293,1.643,1.7648,1.8114,1.8179,1.8715,1.8911,1.9035,1.4185,1.3769,1.3333,1.3333,1.3044,1.2855,1.2855,1.3133,1.3338,1.3338,1.3433,1.3411,1.3206,1.2987,1.2855,1.2855,1.2555,1.2365,1.2365,1.2065,1.1882,1.1882,1.1677,1.1622,1.1622,1.152,1.1358,1.1077,1.1373,1.131,1.0979,1.1366,1.1364,1.1083,1.1083,1.1138,1.1247,1.1247,1.0981,1.0612,1.0612,1.0612,1.0612,1.0675,1.1044,1.1564,1.1743,1.1991,1.222,1.2322,1.2159,1.1891,1.156,1.1217,1.0922,1.0565,1.0522,1.0522,1.0522,1.0522,1.0522,1.0522,1.0922,1.1326,1.1326,1.166,1.2008,1.2008,1.2008,1.2008,1.2008,1.2008,1.2008,1.2008,1.2008,1.2008,1.2008,1.2008,1.2008,1.2008,1.2008,1.2197,1.2764,1.2286,1.2442,1.3525,1.2589,1.2147,1.253,1.194,1.1692,1.1999,1.2008,1.2197,1.253,1.253,1.2725,1.3084,1.3579,1.4099,1.451,1.4473,1.4669,1.4994,1.5062,1.5421,1.6008,1.6225,1.6766,1.7552,1.7935,1.8557,1.9266,1.9771,2.0202,2.0647,1.5292,1.4824,1.4459,1.4459,1.4218,1.4018,1.4018,1.4198,1.4194,1.3985,1.3912,1.384,1.3564,1.3588,1.3461,1.3192,1.2892,1.2701,1.2701,1.2401,1.2226,1.2352,1.1966,1.1803,1.1919,1.1919,1.182,1.1601,1.2118,1.234,1.223,1.2487,1.2474,1.2236,1.2236,1.23,1.241,1.241,1.2133,1.1816,1.1535,1.1423,1.1431,1.1269,1.1648,1.241,1.2584,1.3022,1.3441,1.3546,1.3381,1.3068,1.2916,1.261,1.2196,1.1099,1.082,1.082,1.082,1.0922,1.1065,1.1065,1.146,1.1909,1.2098,1.2393,1.2589,1.2589,1.2589,1.2589,1.2589,1.2589,1.2589,1.2589,1.2589,1.2589,1.2589,1.2589,1.2589,1.2589,1.2589,1.2735,1.3064,1.2783,1.289,1.3573,1.2977,1.2735,1.3064,1.2579,1.2393,1.2589,1.2589,1.2783,1.3112,1.3112,1.3266,1.3621,1.4142,1.4559,1.4884,1.4832,1.5107,1.5599,1.57,1.6051,1.6565,1.6865,1.7445,1.814,1.8571,1.9133,1.9825,2.059,2.106,2.1439,1.6227,1.6049,1.5745,1.5675,1.5675,1.5604,1.5534,1.5534,1.5321,1.4601,1.453,1.4258,1.3564,1.4122,1.4258,1.3564,1.3285,1.3179,1.3179,1.2868,1.2795,1.3092,1.2482,1.2251,1.2581,1.2573,1.2573,1.2565,1.3058,1.3407,1.3531,1.3266,1.315,1.315,1.315,1.315,1.315,1.315,1.315,1.304,1.2432,1.2153,1.2106,1.1672,1.2226,1.3205,1.3387,1.4145,1.5049,1.5049,1.5028,1.4882,1.4387,1.4228,1.384,1.1977,1.1411,1.1403,1.1377,1.166,1.2008,1.2008,1.2384,1.2967,1.3467,1.3621,1.3621,1.3621,1.3621,1.3621,1.3621,1.3621,1.3621,1.3621,1.3621,1.3621,1.3621,1.3621,1.3621,1.3621,1.3621,1.3621,1.3621,1.3621,1.3621,1.3621,1.3621,1.3621,1.361,1.316,1.3112,1.3563,1.3621,1.3621,1.3621,1.3621,1.361,1.3658,1.4283,1.4641,1.4789,1.5254,1.5732,1.6157,1.6299,1.665,1.7148,1.7822,1.814,1.8323,1.9428,1.9874,2.0109,2.1124,2.1506,2.1698,1.7571,1.7083,1.6446,1.5816,1.5242,1.4681,1.4129,1.3985,1.3992,1.3775,1.3775,1.3702,1.3492,1.3637,1.3702,1.3492,1.4474,1.5056,1.5056,1.4786,1.4488,1.4244,1.383,1.3514,1.3268,1.326,1.3304,1.3408,1.4155,1.4295,1.3892,1.4252,1.4505,1.4687,1.4687,1.4754,1.4811,1.4811,1.4581,1.4118,1.3943,1.3884,1.3884,1.3767,1.4176,1.4811,1.4878,1.5183,1.5525,1.5525,1.5297,1.4997,1.4829,1.4556,1.3951,1.2739,1.2386,1.228,1.1931,1.1909,1.2008,1.2008,1.2384,1.2967,1.3467,1.3621,1.3621,1.3621,1.3621,1.3621,1.3621,1.3621,1.3621,1.3621,1.3621,1.3621,1.3621,1.3621,1.3621,1.3621,1.3621,1.3621,1.3621,1.3621,1.3621,1.3621,1.3621,1.3621,1.3773,1.361,1.3563,1.3621,1.3716,1.3716,1.3621,1.3716,1.3941,1.4283,1.4926,1.5365,1.5764,1.5996,1.6355,1.6808,1.6934,1.732,1.7848,1.8048,1.861,1.9467,2.008,2.0819,2.1619,2.2285,2.2785,2.3098,1.8008,1.7657,1.7295,1.6802,1.6446,1.6026,1.5613,1.5542,1.533,1.4625,1.4482,1.4274,1.3564,1.4129,1.4338,1.4049,1.441,1.4689,1.4689,1.4584,1.4466,1.4438,1.4288,1.4123,1.3952,1.4301,1.4574,1.4787,1.5206,1.5332,1.5108,1.541,1.5642,1.5778,1.5778,1.5778,1.5836,1.5836,1.5662,1.5362,1.5001,1.4883,1.4883,1.4588,1.4883,1.541,1.541,1.5676,1.6001,1.6001,1.5835,1.5628,1.5628,1.5454,1.5079,1.4297,1.3758,1.3299,1.283,1.2876,1.2987,1.2783,1.2977,1.3266,1.3515,1.3621,1.3621,1.3621,1.3621,1.3621,1.3621,1.3621,1.3621,1.3621,1.3621,1.3621,1.3621,1.3621,1.3621,1.3621,1.3668,1.3668,1.3668,1.3773,1.3773,1.3773,1.3773,1.3905,1.4222,1.4212,1.4082,1.3763,1.4082,1.4165,1.4107,1.4398,1.4709,1.4994,1.5555,1.5964,1.6312,1.6582,1.685,1.7099,1.7457,1.7903,1.8449,1.8981,1.9718,2.0541,2.1033,2.1602,2.2175,2.2694,2.3068,2.3334,1.8008,1.8008,1.794,1.7872,1.7794,1.7794,1.7657,1.7657,1.7157,1.5886,1.5675,1.5251,1.3985,1.4966,1.5525,1.4887,1.4266,1.392,1.3848,1.392,1.4119,1.4462,1.4574,1.4589,1.4603,1.5269,1.5799,1.6216,1.6144,1.6249,1.6384,1.6384,1.6384,1.6384,1.6384,1.6384,1.6384,1.6384,1.6384,1.6374,1.5778,1.5526,1.5478,1.5001,1.5118,1.5526,1.5526,1.5894,1.6384,1.6384,1.6384,1.6384,1.6384,1.6384,1.6301,1.5908,1.5222,1.4423,1.3856,1.3993,1.421,1.3817,1.3662,1.3621,1.3621,1.3621,1.3621,1.3621,1.3621,1.3621,1.3621,1.3621,1.3621,1.3621,1.3621,1.3621,1.3621,1.3621,1.361,1.361,1.381,1.3952,1.3952,1.4093,1.4197,1.4197,1.4197,1.4408,1.4789,1.4835,1.4663,1.428,1.4628,1.4835,1.4835,1.5287,1.5599,1.572,1.6213,1.6497,1.6607,1.7031,1.728,1.7481,1.7995,1.8588,1.9234,2.0202,2.0955,2.1443,2.2024,2.2221,2.2267,2.2785,2.3097,2.3302,1.8008,1.8008,1.7794,1.7148,1.7079,1.6872,1.6167,1.6026,1.5956,1.5745,1.5675,1.5666,1.5587,1.5799,1.6009,1.6018,1.5948,1.5816,1.5621,1.5745,1.5722,1.5477,1.546,1.5318,1.4936,1.5417,1.6025,1.6685,1.6434,1.6374,1.6384,1.6384,1.6384,1.6384,1.6384,1.6384,1.6384,1.6384,1.6384,1.6374,1.6316,1.6259,1.6249,1.6144,1.6134,1.6259,1.6259,1.6316,1.6384,1.6384,1.6384,1.6384,1.6384,1.6384,1.6363,1.6291,1.6162,1.5858,1.5005,1.4553,1.4283,1.4221,1.39,1.3621,1.3621,1.3621,1.3621,1.3621,1.3621,1.3621,1.3621,1.3621,1.3621,1.3621,1.3621,1.3621,1.3621,1.3716,1.3773,1.3773,1.4258,1.4571,1.4571,1.4937,1.5164,1.5164,1.5164,1.5242,1.5454,1.5454,1.5466,1.5522,1.5466,1.5454,1.5454,1.5908,1.6182,1.6225,1.6795,1.706,1.7073,1.7157,1.7699,1.8545,1.864,1.9553,2.0948,2.1086,2.1479,2.2048,2.2575,2.2799,2.283,2.3334,2.3837,2.4343,1.8008,1.8008,1.7872,1.7579,1.751,1.7364,1.7019,1.695,1.6802,1.6376,1.6376,1.6228,1.6009,1.6358,1.6507,1.6306,1.6793,1.6862,1.6376,1.6298,1.6087,1.5636,1.6314,1.6797,1.6838,1.6809,1.6971,1.7287,1.7152,1.6984,1.6736,1.6736,1.6612,1.6384,1.6384,1.6384,1.6384,1.6384,1.6384,1.6384,1.6384,1.6384,1.6384,1.6384,1.6384,1.6384,1.6384,1.6384,1.6384,1.6384,1.6384,1.6384,1.6384,1.6384,1.6384,1.6384,1.6208,1.5918,1.5484,1.5028,1.4676,1.4676,1.4521,1.4293,1.4045,1.3983,1.3921,1.3662,1.3621,1.3621,1.3621,1.3668,1.3716,1.3716,1.3773,1.3821,1.3821,1.3868,1.3926,1.3926,1.4222,1.4525,1.4801,1.5085,1.5355,1.5611,1.5611,1.5744,1.6051,1.6095,1.6225,1.6539,1.6225,1.6225,1.6441,1.6667,1.6795,1.6795,1.706,1.7199,1.7212,1.7794,1.834,1.8835,1.9735,2.0739,2.17,2.203,2.248,2.295,2.3201,2.329,2.3334,2.3925,2.4358,2.4686,1.8154,1.8076,1.8008,1.8008,1.8008,1.8008,1.8076,1.8076,1.7862,1.7354,1.7285,1.7139,1.6706,1.7129,1.7345,1.7001,1.7628,1.7696,1.6982,1.6922,1.6576,1.5886,1.6932,1.7745,1.8277,1.7849,1.7687,1.7885,1.7719,1.7492,1.7142,1.7142,1.7015,1.6694,1.6694,1.6632,1.6539,1.6539,1.6477,1.6384,1.6384,1.6384,1.6384,1.6384,1.6384,1.6384,1.6384,1.6384,1.6384,1.6384,1.6384,1.6384,1.6384,1.6384,1.6384,1.6384,1.6125,1.5846,1.5846,1.5515,1.5205,1.5311,1.5279,1.5153,1.4935,1.485,1.4744,1.4382,1.4259,1.4185,1.4185,1.4204,1.4176,1.4176,1.428,1.4326,1.4326,1.4373,1.4373,1.4373,1.4582,1.4903,1.522,1.5445,1.5756,1.6095,1.6139,1.6281,1.6637,1.665,1.682,1.7199,1.6863,1.6863,1.7199,1.7199,1.7199,1.7199,1.7199,1.7348,1.7618,1.8422,1.9071,1.9599,2.0895,2.1787,2.2424,2.2864,2.329,2.3595,2.3595,2.3699,2.3909,2.4388,2.4776,2.5226,1.8594,1.8281,1.8008,1.8008,1.8008,1.8076,1.8269,1.8269,1.8269,1.8337,1.8405,1.8405,1.8596,1.8664,1.8731,1.8865,1.8931,1.8654,1.7969,1.8519,1.824,1.6862,1.6932,1.7267,1.7988,1.7566,1.7666,1.833,1.7926,1.7657,1.7626,1.7626,1.7606,1.7575,1.7575,1.7337,1.6935,1.6935,1.6757,1.6384,1.6384,1.6384,1.6384,1.6384,1.6384,1.6384,1.6384,1.6384,1.6384,1.6384,1.6384,1.6384,1.6384,1.6384,1.6384,1.6384,1.6353,1.6332,1.6332,1.5991,1.5792,1.6256,1.609,1.5957,1.6432,1.6508,1.6497,1.6463,1.6192,1.5915,1.5915,1.5579,1.5299,1.5299,1.5299,1.5299,1.5299,1.5421,1.5499,1.5499,1.5964,1.6337,1.638,1.6765,1.706,1.7102,1.7115,1.7115,1.7157,1.7157,1.7157,1.7199,1.7157,1.7157,1.7199,1.7199,1.7199,1.7199,1.7199,1.7726,1.8697,1.8738,1.988,2.1758,2.1902,2.254,2.3492,2.3537,2.3551,2.3595,2.3595,2.3984,2.4507,2.4567,2.5405,2.6549,1.9177,1.912,1.9002,1.9143,1.8934,1.8755,1.8824,1.8584,1.8414,1.8482,1.8482,1.8549,1.8808,1.8808,1.8875,1.9065,1.9075,1.8998,1.8721,1.8931,1.8865,1.8307,1.824,1.8375,1.8654,1.8481,1.8532,1.8806,1.8651,1.8413,1.8133,1.8133,1.7988,1.7668,1.7668,1.7575,1.741,1.741,1.7378,1.7191,1.6912,1.6788,1.6757,1.6477,1.6384,1.6384,1.6384,1.6384,1.6384,1.6384,1.6384,1.6384,1.6384,1.6384,1.6384,1.6384,1.6384,1.6384,1.6384,1.6249,1.6273,1.6786,1.6809,1.6804,1.7054,1.7139,1.7109,1.6895,1.6674,1.6631,1.6727,1.6658,1.6586,1.6586,1.6669,1.6703,1.6703,1.675,1.6797,1.6797,1.6995,1.7103,1.7049,1.72,1.7278,1.7225,1.7199,1.7199,1.7199,1.7199,1.7199,1.7199,1.7199,1.7199,1.7199,1.7199,1.7199,1.7199,1.7876,1.8422,1.8835,2.0175,2.1212,2.2061,2.27,2.3241,2.3595,2.3595,2.3849,2.4238,2.4238,2.4687,2.5455,2.6153,2.6765,2.7411,1.9859,1.974,1.964,1.9847,1.9606,1.9425,1.9495,1.9121,1.8829,1.8897,1.8765,1.8741,1.8875,1.8875,1.8942,1.9075,1.9075,1.9075,1.9075,1.9075,1.9075,1.9075,1.9075,1.9075,1.9075,1.9075,1.9075,1.9075,1.9075,1.8909,1.8599,1.8599,1.8433,1.8154,1.8154,1.8071,1.7936,1.7936,1.7854,1.7647,1.7327,1.7203,1.7162,1.6922,1.6715,1.6591,1.6591,1.6498,1.6384,1.6384,1.6384,1.6384,1.6384,1.6545,1.6694,1.6864,1.692,1.692,1.692,1.692,1.7022,1.7379,1.7644,1.7881,1.8171,1.8243,1.8199,1.7991,1.7847,1.7775,1.7861,1.7823,1.7809,1.7809,1.7892,1.7939,1.7939,1.7939,1.7939,1.7939,1.779,1.7647,1.76,1.7454,1.7316,1.7225,1.7199,1.7199,1.7199,1.7199,1.7199,1.7199,1.7323,1.7485,1.7712,1.7485,1.7485,1.7712,1.8561,1.9294,1.9852,2.1327,2.2177,2.2584,2.3494,2.3924,2.3939,2.4148,2.4507,2.4987,2.5138,2.5667,2.6489,2.7453,2.7947,2.8349,2.0487,2.0042,1.965,1.9857,1.9929,2.0001,2.0175,1.9788,1.9561,1.9768,1.9432,1.9075,1.9075,1.9075,1.9075,1.9075,1.9075,1.9075,1.9075,1.9075,1.9075,1.9075,1.9075,1.9075,1.9075,1.9075,1.9075,1.9075,1.9075,1.9075,1.9075,1.9075,1.9075,1.9075,1.9075,1.8816,1.8382,1.8382,1.8133,1.7688,1.774,1.774,1.774,1.7668,1.7389,1.6987,1.6987,1.6757,1.6384,1.6384,1.6384,1.6384,1.6384,1.6786,1.7313,1.7929,1.8093,1.8093,1.8093,1.8093,1.8093,1.8093,1.8632,1.9344,1.9888,2.008,2.0182,2.0182,1.986,1.9633,1.9633,1.9235,1.8911,1.8911,1.8911,1.8911,1.8911,1.8911,1.8911,1.8911,1.844,1.8114,1.81,1.7565,1.7212,1.7199,1.7199,1.7199,1.7199,1.7199,1.7199,1.7199,1.7598,1.8126,1.8794,1.8126,1.814,1.8808,1.9238,2.0342,2.1989,2.2004,2.2598,2.3655,2.4343,2.4582,2.4642,2.5345,2.5676,2.5863,2.6332,2.7003,2.7762,2.8247,2.8826,2.9496,2.1156,2.1045,2.1019,2.1169,2.0977,2.0761,2.0844,2.0452,2.0153,2.0224,1.9831,1.9619,1.9619,1.9328,1.9075,1.9075,1.9075,1.9075,1.9075,1.9075,1.9075,1.9075,1.9075,1.9075,1.9075,1.9075,1.9075,1.9075,1.9075,1.9075,1.9075,1.9075,1.9075,1.9075,1.9075,1.8992,1.8868,1.8868,1.8796,1.864,1.8319,1.8185,1.8154,1.7854,1.7585,1.7461,1.7461,1.7172,1.6839,1.6839,1.6632,1.6488,1.6842,1.7045,1.7313,1.7929,1.8093,1.8093,1.8093,1.8483,1.8857,1.8857,1.9016,1.9396,1.9978,2.0182,2.0233,2.0398,2.0332,2.0265,2.0351,2.0257,2.0175,2.0175,2.0175,2.0175,2.0175,2.0175,1.9982,1.9577,1.9394,1.8976,1.8179,1.7944,1.7656,1.7238,1.7199,1.7199,1.7199,1.7199,1.7199,1.7199,1.8028,1.8575,1.8794,1.8865,1.9252,1.9936,2.0812,2.1484,2.2018,2.3246,2.4,2.4358,2.5107,2.5439,2.5454,2.5757,2.6382,2.7148,2.7269,2.8036,2.9086,2.9567,2.9927,3.0251,2.1578,2.1578,2.1578,2.1731,2.158,2.1393,2.1393,2.1,2.07,2.07,2.0296,1.9955,1.9848,1.9578,1.9272,1.9085,1.9075,1.9075,1.9075,1.9075,1.9075,1.9075,1.9075,1.9075,1.9075,1.9075,1.9075,1.9075,1.9075,1.9075,1.9075,1.9075,1.9075,1.9075,1.9075,1.9075,1.9075,1.9075,1.9075,1.911,1.8764,1.8651,1.862,1.8361,1.8154,1.7988,1.7988,1.7698,1.7224,1.7049,1.6853,1.6797,1.7379,1.7754,1.8081,1.8632,1.8792,1.8857,1.8857,1.9174,1.9565,1.9656,1.9708,1.9823,2.0233,2.0347,2.0448,2.0562,2.0562,2.0612,2.0712,2.0699,2.0699,2.0699,2.0699,2.0699,2.0699,2.0502,2.0191,1.9839,1.9407,1.8858,1.8166,1.7878,1.7591,1.7225,1.7199,1.7199,1.7199,1.7421,1.7636,1.7821,1.8835,1.9599,2.0063,2.0497,2.0822,2.1069,2.2133,2.276,2.3054,2.4387,2.5001,2.5137,2.5892,2.6225,2.6334,2.6857,2.7489,2.8215,2.8589,2.9242,3.0021,3.0477,3.0699,3.0838,2.1731,2.1655,2.1578,2.1807,2.1807,2.1807,2.1807,2.1445,2.1176,2.1176,2.0772,2.0327,1.9924,1.9851,1.9702,1.9168,1.9096,1.9075,1.9075,1.9075,1.9075,1.9075,1.9075,1.9075,1.9075,1.9075,1.9075,1.9075,1.9075,1.9075,1.9075,1.9075,1.9075,1.9075,1.9075,1.9075,1.9075,1.9075,1.9075,1.9142,1.9198,1.9198,1.9198,1.9264,1.9002,1.8626,1.8626,1.8344,1.7832,1.7322,1.7259,1.7479,1.805,1.8697,1.9291,1.9695,1.9914,2.0042,2.0042,2.0042,2.0093,2.041,2.0511,2.0511,2.0511,2.0612,2.0699,2.0699,2.0699,2.0699,2.0699,2.0699,2.0699,2.0699,2.0699,2.0686,2.0633,2.0139,1.9773,1.9669,1.8728,1.8074,1.8022,1.7568,1.7267,1.7348,1.7389,1.7416,1.7468,1.7995,1.8489,1.8918,1.9936,2.0955,2.2032,2.2604,2.2664,2.225,2.3228,2.4044,2.4732,2.539,2.5783,2.5938,2.6633,2.7031,2.7237,2.8295,2.8842,2.912,2.9995,3.0435,3.0601,3.1055,3.119,3.119,2.1807,2.1731,2.1731,2.1807,2.1807,2.1807,2.1807,2.1714,2.1652,2.1652,2.1248,2.0928,2.0834,2.0503,2.01,1.9655,1.9282,1.9075,1.9075,1.9075,1.9075,1.9075,1.9075,1.9075,1.9075,1.9075,1.9075,1.9075,1.9075,1.9075,1.9075,1.9075,1.9075,1.9075,1.9075,1.9075,1.9075,1.9075,1.9075,1.9142,1.9649,1.9911,1.9977,2.0484,2.061,2.052,2.052,2.0194,1.9704,1.8814,1.8601,1.8698,1.8923,1.9121,1.9488,1.9965,2.0118,2.0182,2.0182,2.0246,2.041,2.0461,2.0562,2.0662,2.0662,2.0662,2.0699,2.0699,2.0699,2.0699,2.0699,2.0699,2.0699,2.0699,2.0699,2.0542,2.0048,1.9878,1.9473,1.8571,1.8244,1.7904,1.7434,1.7555,1.7909,1.8409,1.8728,1.9142,1.967,1.9822,1.9935,2.0063,2.1098,2.1801,2.216,2.3611,2.431,2.4222,2.4446,2.4912,2.559,2.6347,2.6665,2.6615,2.7522,2.8134,2.8514,2.8888,2.9467,3.0166,3.0393,3.0699,3.1055,3.1151,3.119,3.119,2.1807,2.1807,2.1807,2.1807,2.1807,2.1807,2.1807,2.1807,2.1807,2.1807,2.159,2.1362,2.1135,2.0897,2.0576,2.012,1.9851,1.9717,1.9717,1.9717,1.9717,1.9717,1.9717,1.9613,1.9474,1.9396,1.9292,1.9075,1.9075,1.9075,1.9075,1.9075,1.9075,1.9075,1.9075,1.9075,1.9142,1.9452,1.9584,1.9649,2.0291,2.0549,2.0613,2.0996,2.1123,2.1123,2.1123,2.0864,2.0468,2.0041,1.9745,1.9617,1.969,1.9803,1.9965,2.0131,2.0283,2.0347,2.0347,2.0398,2.0511,2.0562,2.0662,2.0699,2.0699,2.0699,2.0699,2.0699,2.0699,2.0749,2.0997,2.1033,2.1131,2.1348,2.1131,2.0847,2.0489,1.9948,1.9354,1.8733,1.8254,1.7982,1.7971,1.8394,1.8945,1.9544,1.9782,2.0048,2.0373,2.0655,2.1126,2.173,2.2556,2.3319,2.3999,2.4912,2.5561,2.5925,2.5879,2.6046,2.6409,2.7155,2.7603,2.7842,2.8292,2.8811,2.9348,2.9661,3.0081,3.0518,3.074,3.0975,3.119,3.119,3.119,3.119,2.1807,2.1807,2.1807,2.1807,2.1807,2.1807,2.1807,2.1807,2.1807,2.1807,2.1807,2.1662,2.1269,2.1166,2.0959,2.0576,2.0472,2.042,2.042,2.042,2.042,2.042,2.042,2.0213,1.9837,1.9827,1.9599,1.9075,1.9075,1.9075,1.9075,1.9075,1.9075,1.9075,1.9075,1.9131,1.933,1.9846,2.0161,2.0355,2.0996,2.125,2.1313,2.1376,2.1439,2.1439,2.1439,2.1295,2.1163,2.1176,2.0973,2.0648,2.0461,2.0536,2.0641,2.0373,2.0398,2.0511,2.0511,2.0511,2.0562,2.0662,2.0699,2.0699,2.0799,2.0749,2.0699,2.0699,2.0749,2.0947,2.1326,2.1471,2.1636,2.2035,2.1675,2.1324,2.1226,2.0315,1.9572,1.9391,1.8645,1.8371,1.903,1.9594,2.0227,2.0812,2.0955,2.114,2.1356,2.1813,2.2598,2.3629,2.4146,2.4939,2.6016,2.6138,2.6565,2.724,2.7237,2.7235,2.7202,2.7878,2.8462,2.8904,2.8997,2.9393,2.9968,3.0351,3.0559,3.0658,3.1055,3.1275,3.1393,3.1529,3.1579,3.1579,2.1807,2.1807,2.1807,2.1807,2.1807,2.1807,2.1807,2.1807,2.1807,2.1807,2.1807,2.1787,2.1714,2.1352,2.1093,2.1031,2.0659,2.042,2.042,2.042,2.042,2.042,2.042,2.0213,1.9837,1.9827,1.9599,1.9075,1.9075,1.9075,1.9075,1.9075,1.9075,1.9075,1.9075,1.9386,1.9977,2.0042,2.042,2.0996,2.1678,2.1978,2.2051,2.2628,2.2823,2.2823,2.2823,2.2907,2.2962,2.2543,2.2496,2.2429,2.1452,2.125,2.1251,2.0806,2.0649,2.0662,2.0662,2.0662,2.0662,2.0699,2.0699,2.0799,2.1229,2.0997,2.0699,2.0699,2.1033,2.1326,2.1375,2.1732,2.2035,2.2081,2.2011,2.1833,2.1344,2.1119,2.0692,1.9754,1.9544,1.9647,2.0133,2.0667,2.1493,2.2732,2.3255,2.4023,2.5183,2.5319,2.5455,2.5606,2.5697,2.588,2.6184,2.6749,2.7148,2.7396,2.7933,2.8161,2.8048,2.867,2.8951,2.8904,2.9438,2.9968,3.0435,3.0477,3.074,3.1112,3.119,3.1579,3.2205,3.2865,3.3102,3.3102,2.1807,2.1807,2.1807,2.1807,2.1807,2.1807,2.1807,2.1807,2.1807,2.1807,2.1807,2.1807,2.1807,2.1621,2.1647,2.2083,2.1965,2.2056,2.2457,2.2457,2.2252,2.1848,2.1848,2.1635,2.1236,2.0898,2.0719,2.0665,1.9645,1.9075,1.9075,1.9075,1.933,1.9649,1.9649,2.0042,2.0677,2.1049,2.1416,2.1741,2.2372,2.2689,2.2689,2.3005,2.3078,2.3138,2.3318,2.345,2.3471,2.3463,2.3282,2.302,2.2525,2.1968,2.1459,2.1211,2.0948,2.0699,2.0699,2.0699,2.0749,2.1033,2.1082,2.1229,2.1684,2.1623,2.1479,2.1479,2.1636,2.186,2.2203,2.242,2.2649,2.2905,2.2673,2.2353,2.2119,2.1768,2.1396,2.1112,2.1396,2.1871,2.2571,2.3068,2.3747,2.4702,2.4986,2.5393,2.5986,2.6016,2.6199,2.6672,2.6687,2.6917,2.7409,2.7701,2.7902,2.7965,2.8273,2.8525,2.8716,2.8997,2.9332,2.9821,3.0097,3.0452,3.0878,3.0878,3.1251,3.1799,3.1799,3.2256,3.2949,3.3288,3.3406,3.3406]}]]